[[{"header":{"parameterUnit":"m.s-1","parameterCategory":1,"la1":30.6,"la2":29.2853,"lo1":-89.7004,"lo2":-87.6739,"dy":0.0162,"dx":0.0183,"nx":112,"ny":82,"refTime":"2024-09-29T18:00:00:Z","depth":0,"parameterNumber":2,"parameterNumberName":"U-component_of_WINDS"},"data":[0.0,0.0,0.0,0.0,0.0,0.0,0.0,0.0,0.0,0.0,0.0,0.0,0.0,0.0,0.0,0.0,0.0,0.0,0.0,0.0,0.0,0.0,0.0,0.0,0.0,0.0,0.0,0.0,0.0,0.0,0.0,0.0,0.0,0.0,0.0,0.0,0.0,0.0,0.0,0.0,0.0,0.0,0.0,0.0,0.0,0.0,0.0,0.0,0.0,0.0,0.0,0.0,0.0,0.0,0.0,0.0,0.0,0.0,0.0,0.0,0.0,0.0,0.0,0.0,0.0,0.0,0.0,0.0,0.0,0.0,0.0,0.0,0.0,0.0,0.0,0.0,0.0,0.0,0.0,0.0,0.0,0.0,0.0,0.0,0.0,0.0,0.0,0.0,0.0,0.0,1.7737,1.7712,1.5911,1.4831,1.5058,1.427,1.4116,1.5045,0.0,0.0,0.0,0.0,0.0,0.0,0.0,0.0,0.0,0.0,0.0,0.0,0.0,0.0,0.0,0.0,0.0,0.0,0.0,0.0,0.0,0.0,0.0,0.0,0.0,0.0,0.0,0.0,0.0,0.0,0.0,0.0,0.0,0.0,0.0,0.0,0.0,0.0,0.0,0.0,0.0,0.0,0.0,0.0,0.0,0.0,0.0,0.0,0.0,0.0,0.0,0.0,0.0,0.0,0.0,0.0,0.0,0.0,0.0,0.0,0.0,0.0,0.0,0.0,0.0,0.0,0.0,0.0,0.0,0.0,0.0,0.0,0.0,0.0,0.0,0.0,0.0,0.0,0.0,0.0,0.0,0.0,0.0,0.0,0.0,0.0,0.0,0.0,0.0,0.0,0.0,0.0,0.0,0.0,0.0,0.0,0.0,0.0,0.0,0.0,0.0,0.0,0.0,0.0,1.655,1.5215,1.3356,1.2474,1.3084,1.1474,1.1077,1.2616,0.0,0.0,0.0,0.0,0.0,0.0,0.0,0.0,0.0,0.0,0.0,0.0,0.0,0.0,0.0,0.0,0.0,0.0,0.0,0.0,0.0,0.0,0.0,0.0,0.0,0.0,0.0,0.0,0.0,0.0,0.0,0.0,0.0,0.0,0.0,0.0,0.0,0.0,0.0,0.0,0.0,0.0,0.0,0.0,0.0,0.0,0.0,0.0,0.0,0.0,0.0,0.0,0.0,0.0,0.0,0.0,0.0,0.0,0.0,0.0,0.0,0.0,0.0,0.0,0.0,0.0,0.0,0.0,0.0,0.0,0.0,0.0,0.0,0.0,0.0,0.0,0.0,0.0,0.0,0.0,0.0,0.0,0.0,0.0,0.0,0.0,0.0,0.0,0.0,0.0,0.0,0.0,0.0,0.0,0.0,0.0,0.0,0.0,0.0,0.0,0.0,0.0,0.0,1.4828,1.3701,1.2091,1.0781,1.0195,1.0515,0.9328,0.9169,1.0596,1.0904,0.0,0.0,0.0,0.0,0.0,0.0,0.0,0.0,0.0,0.0,0.0,0.0,0.0,0.0,0.0,0.0,0.0,0.0,0.0,0.0,0.0,0.0,0.0,0.0,0.0,0.0,0.0,0.0,0.0,0.0,0.0,0.0,0.0,0.0,0.0,0.0,0.0,0.0,0.0,0.0,0.0,0.0,0.0,0.0,0.0,0.0,0.0,0.0,0.0,0.0,0.0,0.0,0.0,0.0,0.0,0.0,0.0,0.0,0.0,0.0,0.0,0.0,0.0,0.0,0.0,0.0,0.0,0.0,0.0,0.0,0.0,0.0,0.0,0.0,0.0,0.0,0.0,0.0,0.0,0.0,0.0,0.0,0.0,0.0,0.0,0.0,0.0,0.0,0.0,0.0,0.0,0.0,0.0,0.0,0.0,0.0,0.0,0.0,0.0,0.0,0.0,0.0,1.2724,1.1345,1.0074,0.9221,0.8501,0.8097,0.7261,0.7443,0.8883,0.8448,0.0,0.0,0.0,0.0,0.0,0.0,0.0,0.0,0.0,0.0,0.0,0.0,0.0,0.0,0.0,0.0,0.0,0.0,0.0,0.0,0.0,0.0,0.0,0.0,0.0,0.0,0.0,0.0,0.0,0.0,0.0,0.0,0.0,0.0,0.0,0.0,0.0,0.0,0.0,0.0,0.0,0.0,0.0,0.0,0.0,0.0,0.0,0.0,0.0,0.0,0.0,0.0,0.0,0.0,0.0,0.0,0.0,0.0,0.0,0.0,0.0,0.0,0.0,0.0,0.0,0.0,0.0,0.0,0.0,0.0,0.0,0.0,0.0,0.0,0.0,0.0,0.0,0.0,0.0,0.0,0.0,0.0,0.0,0.0,0.0,0.0,0.0,0.0,0.0,0.0,0.0,0.0,0.0,0.0,0.0,0.0,0.0,0.0,0.0,0.0,0.0,0.0,1.179,1.084,1.0728,0.9506,0.7985,0.6225,0.5096,0.5369,0.7585,0.6927,0.0,0.0,0.0,0.0,0.0,0.0,0.0,0.0,0.0,0.0,0.0,0.0,0.0,0.0,0.0,0.0,0.0,0.0,0.0,0.0,0.0,0.0,0.0,0.0,0.0,0.0,0.0,0.0,0.0,0.0,0.0,0.0,0.0,0.0,0.0,0.0,0.0,0.0,0.0,0.0,0.0,0.0,0.0,0.0,0.0,0.0,0.0,0.0,0.0,0.0,0.0,0.0,0.0,0.0,0.0,0.0,0.0,0.0,0.0,0.0,0.0,0.0,0.0,0.0,0.0,0.0,0.0,0.0,0.0,0.0,0.0,0.0,0.0,0.0,0.0,0.0,0.0,0.0,0.0,0.0,0.0,0.0,0.0,0.0,0.0,0.0,0.0,0.0,0.0,0.0,0.0,0.0,0.0,0.0,0.0,0.0,0.0,0.0,0.0,0.0,0.0,0.0,0.6933,0.5611,0.0,0.4545,0.376,0.2577,0.2615,0.3346,0.4834,0.0,0.0,0.0,0.0,0.0,0.0,0.0,0.0,0.0,0.0,0.0,0.0,0.0,0.0,0.0,0.0,0.0,0.0,0.0,0.0,0.0,0.0,0.0,0.0,0.0,0.0,0.0,0.0,0.0,0.0,0.0,0.0,0.0,0.0,0.0,0.0,0.0,0.0,0.0,0.0,0.0,0.0,0.0,0.0,0.0,0.0,0.0,0.0,0.0,0.0,0.0,0.0,0.0,0.0,0.0,0.0,0.0,0.0,0.0,0.0,0.0,0.0,0.0,0.0,0.0,0.0,0.0,0.0,0.0,0.0,0.0,0.0,0.0,0.0,0.0,0.0,0.0,0.0,0.0,0.0,0.0,0.0,0.0,0.0,0.0,0.0,0.0,0.0,0.0,0.0,0.0,0.0,0.0,0.0,0.0,0.0,0.0,0.0,0.0,0.0,0.0,0.0,0.4566,0.2018,0.0145,0.0,-0.0098,-0.0099,-0.0,0.0505,0.1515,0.3002,0.0,0.0,0.0,0.0,0.0,0.0,0.0,0.0,0.0,0.0,0.0,0.0,0.0,0.0,0.0,0.0,0.0,0.0,0.0,0.0,0.0,0.0,0.0,0.0,0.0,0.0,0.0,0.0,0.0,0.0,0.0,0.0,0.0,0.0,0.0,0.0,0.0,0.0,0.0,0.0,0.0,0.0,0.0,0.0,0.0,0.0,0.0,0.0,0.0,0.0,0.0,0.0,0.0,0.0,0.0,0.0,0.0,0.0,0.0,0.0,0.0,0.0,0.0,0.0,0.0,0.0,0.0,0.0,0.0,0.0,0.0,0.0,0.0,0.0,0.0,0.0,0.0,0.0,0.0,0.0,0.0,0.0,0.0,0.0,0.0,0.0,0.0,0.0,0.0,0.0,0.0,0.0,0.0,0.0,0.0,0.0,0.0,0.0,0.0,0.0,0.0,0.0,0.1593,-0.2456,-0.4881,-0.3752,-0.3623,-0.2899,-0.1098,-0.1109,-0.0138,0.0,0.0,0.0,0.0,0.0,0.0,0.0,0.0,0.0,0.0,0.0,0.0,0.0,0.0,0.0,0.0,0.0,0.0,0.0,0.0,0.0,0.0,0.0,0.0,0.0,0.0,0.0,0.0,0.0,0.0,0.0,0.0,0.0,0.0,0.0,0.0,0.0,0.0,0.0,0.0,0.0,0.0,0.0,0.0,0.0,0.0,0.0,0.0,0.0,0.0,0.0,0.0,0.0,0.0,0.0,0.0,0.0,0.0,0.0,0.0,0.0,0.0,0.0,0.0,0.0,0.0,0.0,0.0,0.0,0.0,0.0,0.0,0.0,0.0,0.0,0.0,0.0,0.0,0.0,0.0,0.0,0.0,0.0,0.0,0.0,0.0,0.0,0.0,0.0,0.0,0.0,0.0,0.0,0.0,0.0,0.0,0.0,0.0,0.0,0.0,0.0,0.0,0.0,-0.2376,-0.4815,-0.6216,-0.5453,-0.504,-0.4591,-0.4025,-0.3309,-0.2201,-0.0559,0.0,0.0,0.0,0.0,0.0,0.0,0.0,0.0,0.0,0.0,0.0,0.0,0.0,0.0,0.0,0.0,0.0,0.0,0.0,0.0,0.0,0.0,0.0,0.0,0.0,0.0,0.0,0.0,0.0,0.0,0.0,0.0,0.0,0.0,0.0,0.0,0.0,0.0,0.0,0.0,0.0,0.0,0.0,0.0,0.0,0.0,0.0,0.0,0.0,0.0,0.0,0.0,0.0,0.0,0.0,0.0,0.0,0.0,0.0,0.0,0.0,0.0,0.0,0.0,0.0,0.0,0.0,0.0,0.0,0.0,0.0,0.0,0.0,0.0,0.0,0.0,0.0,0.0,0.0,0.0,0.0,0.0,0.0,0.0,0.0,0.0,0.0,0.0,0.0,0.0,0.0,0.0,0.0,0.0,0.0,0.0,0.0,0.0,0.0,0.0,0.0,0.0,-0.5356,-0.677,-0.7436,-0.682,-0.6301,-0.5888,-0.5631,-0.4568,-0.344,-0.2302,0.0,0.0,0.0,0.0,0.0,0.0,0.0,0.0,0.0,0.0,0.0,0.0,0.0,0.0,0.0,0.0,0.0,0.0,0.0,0.0,0.0,0.0,0.0,0.0,0.0,0.0,0.0,0.0,0.0,0.0,0.0,0.0,0.0,0.0,0.0,0.0,0.0,0.0,0.0,0.0,0.0,0.0,0.0,0.0,0.0,0.0,0.0,0.0,0.0,0.0,0.0,0.0,0.0,0.0,0.0,0.0,0.0,0.0,0.0,0.0,0.0,0.0,0.0,0.0,0.0,0.0,0.0,0.0,0.0,0.0,0.0,0.0,0.0,0.0,0.0,0.0,0.0,0.0,0.0,0.0,0.0,0.0,0.0,0.0,0.0,0.0,0.0,0.0,0.0,0.0,0.0,0.0,0.0,0.0,0.0,0.0,0.0,0.0,0.0,0.0,0.0,0.0,-0.7447,-0.8337,-0.8618,-0.8008,-0.7473,-0.689,-0.6331,-0.5277,-0.4209,-0.3235,0.0,0.0,0.0,0.0,0.0,0.0,0.0,0.0,0.0,0.0,0.0,0.0,0.0,0.0,0.0,0.0,0.0,0.0,0.0,0.0,0.0,0.0,0.0,0.0,0.0,0.0,0.0,0.0,0.0,0.0,0.0,0.0,0.0,0.0,0.0,0.0,0.0,0.0,0.0,0.0,0.0,0.0,0.0,0.0,0.0,0.0,0.0,0.0,0.0,0.0,0.0,0.0,0.0,0.0,0.0,0.0,0.0,0.0,0.0,0.0,-0.5705,0.0,0.0,0.0,0.0,0.0,0.0,0.0,0.0,0.0,0.0,0.0,0.0,0.0,0.0,0.0,0.0,0.0,0.0,0.0,0.0,0.0,0.0,0.0,0.0,0.0,0.0,0.0,0.0,0.0,0.0,0.0,0.0,0.0,0.0,0.0,0.0,0.0,0.0,0.0,0.0,0.0,-0.8599,-0.935,-0.9647,-0.9168,-0.8667,-0.8095,-0.7558,-0.6862,-0.6121,-0.5308,-0.3939,0.0,0.0,0.0,0.0,0.0,0.0,0.0,0.0,0.0,0.0,0.0,0.0,0.0,0.0,0.0,0.0,0.0,0.0,0.0,0.0,0.0,0.0,0.0,0.0,0.0,0.0,0.0,0.0,0.0,0.0,0.0,0.0,0.0,0.0,0.0,0.0,0.0,0.0,0.0,0.0,0.0,0.0,0.0,0.0,0.0,0.0,0.0,0.0,0.0,0.0,0.0,0.0,0.0,0.0,0.0,0.0,0.0,0.0,0.0,0.0,-0.868,0.0,0.0,0.0,0.0,0.0,0.0,0.0,0.0,0.0,0.0,0.0,0.0,0.0,0.0,0.0,0.0,0.0,0.0,0.0,0.0,0.0,0.0,0.0,0.0,0.0,0.0,0.0,0.0,0.0,0.0,0.0,0.0,0.0,0.0,0.0,0.0,0.0,0.0,0.0,0.0,-0.9352,-1.006,-1.0369,-0.9941,-0.9408,-0.8886,-0.8316,-0.7502,-0.6726,-0.6073,-0.5219,0.0,0.0,0.0,0.0,0.0,0.0,0.0,0.0,0.0,0.0,0.0,0.0,0.0,0.0,0.0,0.0,0.0,0.0,0.0,0.0,0.0,0.0,0.0,0.0,0.0,0.0,0.0,0.0,0.0,0.0,0.0,0.0,0.0,0.0,0.0,0.0,0.0,0.0,0.0,0.0,0.0,0.0,0.0,0.0,0.0,0.0,0.0,0.0,0.0,0.0,0.0,0.0,0.0,-1.5828,-1.5972,-1.6045,-1.5824,-1.6342,-1.7218,-1.4848,-1.3561,-1.3065,-1.2754,0.0,0.0,0.0,0.0,0.0,0.0,0.0,0.0,0.0,0.0,0.0,0.0,0.0,0.0,0.0,0.0,0.0,0.0,0.0,0.0,0.0,0.0,0.0,0.0,-1.9491,-1.959,0.0,0.0,0.0,0.0,0.0,0.0,0.0,0.0,0.0,0.0,0.0,0.0,-1.0011,-1.0582,-1.0829,-1.0351,-0.9922,-0.9448,-0.8886,-0.7874,-0.7085,-0.652,-0.6139,-0.5651,0.0,0.0,0.0,0.0,0.0,0.0,0.0,0.0,0.0,0.0,0.0,0.0,0.0,0.0,0.0,0.0,0.0,0.0,0.0,0.0,0.0,0.0,0.0,0.0,0.0,0.0,0.0,0.0,0.0,0.0,0.0,0.0,0.7744,0.0662,0.0,0.0,0.0,0.0,0.0,0.0,0.0,0.0,0.0,0.0,0.0,0.0,0.0,-1.8903,-1.9538,-1.9808,-1.9807,-1.9497,-1.9493,-1.9759,-2.0188,-1.9221,-1.9416,-2.0346,-1.917,0.0,-1.652,-1.614,0.0,0.0,0.0,0.0,0.0,0.0,0.0,0.0,0.0,0.0,0.0,0.0,0.0,0.0,0.0,0.0,0.0,0.0,0.0,0.0,0.0,0.0,-2.1759,-2.173,-2.1859,-2.1773,0.0,-1.8905,-1.6986,-1.5961,-1.5314,0.0,0.0,0.0,0.0,0.0,0.0,0.0,-1.0872,-1.0939,-1.0829,-1.0351,-1.0235,-0.9961,-0.9448,-0.8829,-0.8259,-0.7697,-0.6706,-0.6089,-0.6004,-0.5498,0.0,0.0,0.0,0.0,0.0,0.0,0.0,0.0,0.0,0.0,0.0,0.0,0.0,0.0,0.0,0.0,0.0,0.0,0.0,0.0,0.0,0.0,0.0,0.0,0.0,0.0,0.0,0.0,0.0,0.4947,0.054,-0.6352,-0.7397,-0.9216,0.0,0.0,0.0,0.0,0.0,0.0,0.0,0.0,0.0,-2.1853,-2.1481,-2.1441,-2.1771,-2.1587,-2.1417,-2.1269,-2.0831,-2.0765,-2.0991,-2.0505,-2.0569,-2.0959,-2.0567,-1.9997,-1.9241,-1.797,-1.7088,-1.6579,0.0,0.0,0.0,0.0,-1.7539,-1.7452,-1.8707,-1.9152,0.0,-1.8983,0.0,0.0,0.0,0.0,0.0,0.0,0.0,0.0,0.0,0.0,-2.1974,-2.2237,-2.2327,-2.2237,-2.2032,-2.0907,-1.956,0.0,-1.7427,-1.6406,-1.4822,0.0,0.0,0.0,0.0,-1.1846,-1.1841,-1.1836,-1.1542,-1.0791,-1.0677,-1.037,-0.9549,-0.9288,-0.8805,-0.7961,-0.7724,-0.7474,-0.7154,-0.7127,-0.7041,0.0,0.0,0.0,0.0,0.0,0.0,0.0,0.0,0.0,0.0,0.0,0.0,0.0,0.0,0.0,0.0,0.0,0.0,0.0,0.0,0.0,0.0,0.0,0.0,0.0,0.0,0.0,0.0,-0.4494,-0.6836,-1.336,-1.4434,-1.6789,0.0,0.0,0.0,0.0,0.0,0.0,-2.4172,-2.3952,-2.3853,-2.3903,-2.366,-2.3464,-2.3328,-2.2788,-2.2417,-2.2235,-2.1694,-2.143,-2.1339,-2.1339,-2.1339,-2.1339,-2.1213,-2.115,-2.1023,-1.9338,-1.8496,-1.8259,-1.8444,-1.8327,-1.8263,-1.9504,-1.9703,-1.9527,-2.0765,-2.1176,-2.1173,-2.1073,0.0,-2.0655,-2.0104,0.0,0.0,0.0,0.0,-2.0776,-2.1573,-2.1661,-2.1587,-2.1939,-2.1854,-2.1691,-2.1691,-2.1378,-2.0779,0.0,-1.9071,-1.7881,-1.6189,0.0,0.0,0.0,0.0,-1.2722,-1.2531,-1.2508,-1.209,-1.1132,-1.1019,-1.0639,-0.9804,-0.9567,-0.9151,-0.8357,-0.8561,-0.8521,-0.8111,-0.848,-0.8631,-0.8524,0.0,0.0,0.0,0.0,0.0,0.0,0.0,0.0,0.0,0.0,0.0,0.0,0.0,0.0,0.0,0.0,0.0,0.0,0.0,0.0,0.0,0.0,0.0,0.0,0.0,0.0,0.0,0.0,0.0,-2.3823,-2.4788,0.0,0.0,0.0,0.0,-2.3788,-2.4331,-2.47,-2.4775,-2.4723,-2.467,-2.4459,-2.4442,-2.4174,-2.3674,-2.3631,-2.3282,-2.2669,-2.2643,-2.2466,-2.2237,-2.2237,-2.2237,-2.2209,-2.1764,-2.1552,-2.1491,-2.0569,-2.0436,-2.0766,-2.0369,-2.0438,-2.0863,-2.1336,-2.1488,-2.1516,-2.2061,-2.2237,-2.2237,-2.2231,-2.1725,-2.1177,-2.1143,-2.1109,0.0,0.0,-2.1657,-2.2203,-2.2237,-2.1758,-2.1245,-2.1245,-2.067,-2.0103,-2.0103,-1.9817,-1.9796,0.0,-2.0066,-1.8862,-1.7282,0.0,-1.5524,-1.4066,-1.3855,-1.3496,-1.2615,-1.2508,-1.209,-1.1132,-1.1019,-1.0791,-1.0312,-0.9804,-0.9487,-0.9448,-0.8967,-0.8683,-0.8683,-0.8683,-0.8893,-0.9318,-0.9112,0.0,0.0,0.0,0.0,0.0,0.0,0.0,0.0,0.0,0.0,0.0,0.0,0.0,0.0,0.0,0.0,0.0,0.0,0.0,0.0,0.0,0.0,0.0,0.0,0.0,0.0,0.0,0.0,-2.5102,-2.539,0.0,-2.4745,-2.4897,-2.4877,-2.4598,-2.4912,-2.508,-2.4943,-2.4861,-2.4716,-2.453,-2.4375,-2.421,-2.4016,-2.3816,-2.3477,-2.3021,-2.2797,-2.2546,-2.2327,-2.2327,-2.2327,-2.2265,-2.2123,-2.2032,-2.2003,-2.1399,-2.1086,-2.0991,-2.1118,-2.1244,-2.143,-2.1915,-2.2032,-2.2061,-2.2237,-2.2327,-2.2327,-2.2327,-2.2255,-2.2194,-2.2194,-2.2194,-2.2194,-2.2194,-2.2248,-2.2192,-2.1718,-2.138,-2.1068,-2.0568,-2.0204,-2.0002,-2.0002,-1.9684,-1.9492,-1.9902,-1.9243,-1.8315,-1.7395,-1.66,-1.5584,-1.4099,-1.3888,-1.3656,-1.3035,-1.2955,-1.2579,-1.1616,-1.1505,-1.1169,-1.0351,-1.0118,-0.9883,-0.9527,-0.9351,-0.9256,-0.9231,-0.9601,-0.9999,-1.0407,-1.0681,-1.0695,0.0,0.0,0.0,0.0,0.0,0.0,0.0,0.0,0.0,0.0,0.0,0.0,0.0,0.0,0.0,0.0,0.0,0.0,0.0,0.0,0.0,0.0,0.0,0.0,0.0,0.0,-2.4647,-2.539,-2.5374,-2.5275,-2.5157,-2.5094,-2.5122,-2.5126,-2.5244,-2.5234,-2.5099,-2.5043,-2.4874,-2.4607,-2.4497,-2.4321,-2.419,-2.3976,-2.371,-2.3351,-2.3021,-2.273,-2.2426,-2.2349,-2.2327,-2.2327,-2.2327,-2.2327,-2.2265,-2.1974,-2.1675,-2.1462,-2.1552,-2.1705,-2.1853,-2.218,-2.2327,-2.2327,-2.2327,-2.2327,-2.2293,-2.2398,-2.25,-2.2573,-2.2669,-2.2652,-2.2546,-2.2546,-2.2248,-2.182,-2.1339,-2.0831,-2.0264,-1.9756,-1.9427,-1.9258,-1.9258,-1.9027,-1.8849,-1.8849,-1.8499,-1.8006,-1.7381,-1.6759,-1.5805,-1.4327,-1.4084,-1.3855,-1.3301,-1.3198,-1.2896,-1.2113,-1.2041,-1.1616,-1.0621,-1.0544,-1.0312,-0.9804,-0.981,-0.9829,-0.9785,-1.0131,-1.0651,-1.1282,-1.175,-1.2048,-1.2073,0.0,0.0,0.0,0.0,0.0,0.0,0.0,0.0,0.0,0.0,0.0,0.0,0.0,0.0,0.0,0.0,0.0,0.0,0.0,0.0,0.0,0.0,0.0,-2.4256,-2.4367,-2.4647,-2.5399,-2.5493,-2.5468,-2.5427,-2.5348,-2.5321,-2.5391,-2.5339,-2.5303,-2.5303,-2.5303,-2.5138,-2.4818,-2.479,-2.4591,-2.419,-2.419,-2.4016,-2.371,-2.3351,-2.3045,-2.2695,-2.2426,-2.2293,-2.2327,-2.2327,-2.2327,-2.2327,-2.2327,-2.2327,-2.2237,-2.1794,-2.1882,-2.2327,-2.2327,-2.2327,-2.2327,-2.2327,-2.2293,-2.2349,-2.2625,-2.2527,-2.2377,-2.2652,-2.2527,-2.2293,-2.226,-2.1779,-2.1204,-2.1136,-1.9993,-1.8877,-1.8877,-1.8302,-1.7794,-1.7794,-1.7794,-1.7794,-1.7794,-1.799,-1.7975,-1.7386,-1.6939,-1.6182,-1.4742,-1.4501,0.0,-1.3335,-1.3198,-1.3025,-1.2544,-1.2473,-1.209,-1.1094,-1.0981,-1.0791,-1.0351,-1.0312,-1.0312,-1.0351,-1.0351,-1.085,-1.1844,-1.2237,-1.2967,-1.3986,0.0,0.0,0.0,0.0,0.0,0.0,0.0,0.0,0.0,0.0,0.0,0.0,0.0,0.0,0.0,0.0,0.0,0.0,0.0,0.0,0.0,-2.2562,-2.387,-2.4274,-2.4917,-2.539,-2.5554,-2.5587,-2.557,-2.5468,-2.5427,-2.5376,-2.5406,-2.5339,-2.5303,-2.5303,-2.5143,-2.4993,-2.4804,-2.4654,-2.4479,-2.419,-2.419,-2.4016,-2.371,-2.361,-2.3259,-2.2695,-2.2625,-2.2473,-2.2327,-2.2327,-2.2327,-2.2327,-2.2327,-2.2327,-2.2299,-2.218,-2.218,-2.2327,-2.2327,-2.2327,-2.2327,-2.2327,-2.2426,-2.2599,-2.2669,-2.2797,-2.2982,-2.3045,-2.2822,-2.2496,-2.1945,-2.1524,-2.0933,-1.9824,-1.9215,-1.8775,-1.8234,-1.7523,-1.6982,-1.6982,-1.6982,-1.6982,-1.6982,-1.7311,-1.7442,-1.6987,-1.644,-1.5773,-1.5058,-1.469,0.0,-1.3782,-1.3412,-1.2896,-1.2077,-1.1982,-1.1726,-1.1057,-1.0677,-1.0774,-1.1356,-1.0762,-1.0683,-1.1356,-1.1799,-1.247,-1.3448,-1.3577,-1.3736,0.0,0.0,0.0,0.0,0.0,0.0,0.0,0.0,0.0,0.0,0.0,0.0,0.0,0.0,0.0,0.0,0.0,0.0,0.0,0.0,0.0,0.0,-2.3496,-2.4687,-2.4744,-2.5236,-2.5463,-2.5073,-2.5375,-2.5437,-2.5021,-2.5274,-2.5428,-2.5428,-2.5376,-2.533,-2.5313,-2.5192,-2.5053,-2.4891,-2.4731,-2.451,-2.4321,-2.4247,-2.4112,-2.3935,-2.3774,-2.35,-2.3117,-2.2822,-2.2625,-2.2446,-2.201,-2.2023,-2.2293,-2.1989,-2.2023,0.0,0.0,0.0,0.0,0.0,-2.2327,-2.2327,-2.2327,-2.2473,-2.2721,-2.2873,-2.3045,-2.3141,-2.2972,-2.2576,-2.2071,-2.1285,-2.0685,-2.0027,-1.9113,-1.8437,-1.7862,-1.7422,-1.6779,-1.6258,-1.6258,-1.6495,-1.6699,-1.6699,-1.7009,0.0,-1.6882,-1.6355,-1.5797,-1.518,-1.4907,-1.4564,-1.3954,-1.3648,-1.3207,-1.2473,-1.2401,-1.2162,-1.1689,-1.1394,0.0,0.0,0.0,-1.1308,-1.2092,-1.2671,0.0,0.0,0.0,0.0,0.0,0.0,0.0,0.0,-1.7507,-1.8099,0.0,0.0,0.0,0.0,0.0,0.0,0.0,0.0,0.0,0.0,0.0,0.0,0.0,0.0,0.0,0.0,-2.4323,-2.5391,-2.5406,-2.5368,-2.506,-2.4295,-2.4955,-2.5176,-2.4395,-2.4946,-2.5425,-2.5503,-2.5428,-2.5368,-2.5293,0.0,0.0,0.0,0.0,-2.47,-2.4493,-2.4284,-2.419,-2.419,-2.3878,-2.3732,-2.361,-2.2915,-2.2582,-2.2505,-2.1532,-2.1441,-2.2023,-2.1468,-2.1644,-2.2327,-2.2327,-2.2327,-2.2327,-2.2327,-2.2321,-2.2349,-2.2349,0.0,0.0,-2.3165,-2.3259,-2.3209,-2.2653,-2.21,-2.1461,-2.0558,-1.96,-1.8843,-1.8707,-1.7681,-1.6699,-1.6597,-1.6001,-1.5494,-1.5494,-1.5967,-1.6462,-1.6462,-1.682,-1.7018,-1.6676,-1.6444,-1.6022,-1.527,-1.512,-1.4845,-1.4117,-1.3954,-1.3749,-1.3242,0.0,0.0,-1.2544,-1.2473,-1.2294,-1.2004,-1.2014,-1.2301,-1.2842,-1.3203,-1.366,-1.4244,-1.5234,-1.6207,-1.7283,-1.7863,-1.8737,-1.966,-1.7861,-1.813,0.0,0.0,0.0,0.0,0.0,0.0,0.0,0.0,0.0,0.0,0.0,0.0,0.0,0.0,0.0,-2.3581,-2.4677,-2.5339,-2.5398,-2.4857,-2.4421,-2.4276,-2.4491,-2.4569,-2.4413,-2.4477,-2.481,-2.5512,-2.5451,-2.5398,-2.5383,-2.533,-2.5214,-2.4991,-2.4864,-2.47,-2.4493,-2.4284,-2.419,-2.419,0.0,0.0,-2.3282,-2.2551,-2.1951,-2.1445,-2.0847,-2.0499,-2.05,-2.1165,-2.1797,-2.2327,-2.2327,-2.2327,-2.2327,-2.2327,-2.2453,-2.2625,-2.2625,-2.2996,-2.3522,-2.3566,-2.3795,-2.383,-2.2854,-2.2332,0.0,-2.0057,-1.9258,-1.864,-1.7444,-1.6902,-1.6563,-1.5933,-1.5257,-1.4697,-1.4697,-1.4817,-1.4919,-1.4919,-1.5488,-1.5817,-1.5485,-1.5914,-1.6163,-1.5741,-1.5359,-1.5029,-1.4876,-1.431,-1.3722,-1.32,-1.2836,-1.2615,-1.2508,-1.215,-1.2222,-1.2896,-1.3384,-1.3915,-1.4434,-1.4138,-1.4361,-1.5196,-1.5533,-1.6172,-1.7125,-1.8201,-1.9075,-1.966,-1.9301,-1.9728,0.0,0.0,0.0,0.0,0.0,0.0,0.0,0.0,0.0,0.0,0.0,-1.8151,-1.9682,0.0,-2.2518,-2.3889,-2.4428,-2.4725,-2.4748,-2.4064,-2.3611,-2.3678,-2.3745,-2.3633,-2.3203,-2.3514,-2.4092,-2.4898,-2.4896,-2.5024,-2.5374,-2.5352,-2.5303,-2.5133,-2.4993,-2.4809,-2.4654,-2.4462,-2.4284,-2.419,-2.419,-2.3797,-2.3076,-2.2554,-2.1945,-2.1208,-2.0258,-1.9992,-2.0226,-2.0601,-2.0935,-2.115,-2.115,-2.146,-2.1839,-2.1332,-2.1293,-2.1562,-2.1562,-2.1896,-2.2317,-2.2479,-2.2735,-2.2813,-2.1863,-2.127,-2.0696,-1.9386,-1.8694,-1.8099,-1.7004,-1.6428,-1.5967,-1.5223,-1.4479,-1.3938,-1.3938,-1.4242,-1.4494,-1.4494,-1.5088,-1.5496,-1.5176,-1.5342,-1.5499,-1.5503,-1.5585,-1.5565,-1.515,-1.4564,-1.3992,-1.3537,-1.3113,-1.2826,-1.2826,-1.265,-1.2685,-1.3163,-1.3483,-1.3921,-1.4475,-1.4223,-1.4545,-1.5459,-1.5828,-1.6498,-1.7516,-1.8396,-1.9117,-1.9726,-1.9909,-2.0364,0.0,0.0,0.0,0.0,0.0,0.0,0.0,0.0,-1.6533,-1.7213,-1.7909,-1.8724,-1.9887,-2.1297,-2.2637,-2.3582,-2.3775,-2.3794,-2.3821,-2.2994,-2.2444,-2.2578,-2.2766,-2.2656,-2.1953,-2.2539,-2.3241,-2.4048,-2.4081,-2.4401,-2.5156,-2.5149,-2.5205,-2.5312,-2.5122,-2.4879,-2.462,-2.4382,-2.4094,-2.3768,-2.3731,-2.3364,-2.2666,-2.2238,-2.1686,-2.0924,-1.9717,-1.9586,-2.0235,-1.9986,-1.9916,-1.9968,-1.9907,-2.0377,-2.1077,-2.0338,-2.0264,-2.0489,-2.057,-2.078,-2.1095,-2.1329,-2.1571,-2.162,-2.0726,-2.0174,-1.9676,-1.8641,-1.8064,-1.7505,-1.6618,-1.5936,-1.5287,-1.4571,-1.3922,-1.3495,-1.3446,-1.3905,-1.4312,-1.4276,-1.4783,-1.5078,-1.4808,-1.47,-1.4783,-1.5154,-1.5664,-1.5816,-1.53,-1.4876,-1.4501,-1.4181,-1.3648,-1.3301,-1.3198,-1.3198,-1.3198,-1.3198,-1.3298,-1.3584,-1.4072,-1.4181,-1.4603,-1.5449,-1.5989,-1.6733,-1.7667,-1.8229,-1.8852,-1.9546,-1.994,-2.044,2.0702,1.2434,0.2856,-0.0906,-0.8581,-1.6045,0.0,0.0,-1.7792,-1.8733,-1.9197,-1.9708,-2.0559,-2.1004,-2.1543,-2.2362,-2.2658,-2.2786,-2.2868,-2.1557,-2.0637,-2.0678,-2.1455,-2.1946,-2.1914,-2.1992,-2.2383,-2.3242,-2.327,-2.3564,-2.4378,-2.4308,-2.4609,-2.5352,-2.5137,-2.4636,-2.3914,-2.3596,-2.3045,-2.2237,-2.211,-2.1881,-2.1456,-2.077,-2.0223,-1.9825,-1.9043,-1.9074,-1.9738,-1.9482,-1.9624,-1.9959,-1.9533,-1.9595,-1.9928,-2.0235,-2.0558,-2.0888,-2.1131,-2.1441,-2.1697,-2.1732,-2.175,-2.1603,-2.0553,-2.0192,-1.9795,-1.8039,-1.7488,-1.7081,-1.557,-1.5148,-1.4867,-1.4144,-1.3912,-1.3798,-1.3617,-1.3639,-1.3661,-1.3549,-1.3583,-1.3633,-1.3599,-1.4102,-1.466,-1.5112,-1.5084,-1.5167,-1.5651,-1.5329,-1.4998,-1.4968,-1.4278,-1.3648,-1.3232,-1.3198,-1.3198,-1.3198,-1.3684,-1.4022,-1.4097,-1.4433,-1.4857,-1.5291,-1.583,-1.6343,-1.6842,-1.7471,-1.8164,-1.8822,-1.9298,-2.0034,1.7761,0.9163,-0.0029,-0.2356,-1.0336,-1.7829,-1.8655,-1.8385,-1.8143,-1.8717,-1.9125,-1.9627,-2.0485,-2.0875,-2.1355,0.0,-2.2042,-2.1845,-2.1876,-2.055,-1.9561,-1.9643,-1.9981,-2.026,-2.0307,-2.0775,-2.1442,-2.2383,-2.242,-2.2764,-2.3569,-2.3504,-2.3624,-2.3934,-2.3783,-2.3503,-2.3061,-2.288,-2.2557,-2.2009,-2.193,-2.1524,-2.0825,-2.0514,-1.9992,-1.9272,-1.8968,-1.8837,-1.8843,-1.8883,-1.8913,-1.8927,-1.875,-1.8739,-1.8877,-1.9213,-1.9558,-1.981,-1.9903,-2.0047,-2.0169,-2.0303,-2.0352,-2.0262,-1.9799,-1.9229,-1.8588,-1.7804,-1.7151,-1.643,-1.5282,-1.5,-1.4803,-1.4076,-1.3827,-1.3709,-1.3632,-1.3557,-1.3479,-1.3396,-1.3413,-1.3413,-1.3413,-1.3529,-1.3823,-1.4421,-1.4971,-1.5526,-1.6016,-1.5507,-1.4998,-1.4783,-1.4246,-1.3848,-1.3615,-1.3369,-1.3198,-1.3198,-1.3458,-1.3699,-1.3977,-1.3873,-1.4258,-1.5177,-1.5177,-1.5664,-1.6726,-1.6995,-1.7443,-1.8134,-1.8812,-1.9337,1.5762,0.784,-0.0362,-0.2734,-1.0293,-1.7249,-1.7562,-1.7376,-1.724,-1.7689,-1.8056,-1.8515,-1.923,-1.9662,-2.0126,-2.0913,-2.0727,-2.0576,-2.0793,-1.9497,-1.8659,-1.8982,-1.8802,-1.8827,-1.9136,-1.9777,-2.0534,-2.1443,-2.1328,-2.1639,-2.2722,-2.2692,-2.2756,-2.292,-2.2871,-2.2641,-2.2238,-2.2195,-2.1907,-2.1461,-2.1405,-2.1005,-2.0268,-2.0205,-1.9762,-1.9067,-1.9067,-1.8843,-1.8448,-1.8641,-1.8565,-1.8328,-1.8373,-1.8393,-1.8432,-1.8698,-1.8843,-1.8896,-1.9034,-1.9067,-1.9101,-1.9261,-1.9323,-1.925,-1.9051,-1.8432,-1.7711,-1.7276,-1.6612,-1.59,-1.5059,-1.4845,-1.4717,-1.4194,-1.3955,-1.3842,-1.3783,-1.3698,-1.3608,-1.3495,-1.3462,-1.3446,-1.343,-1.3226,-1.3401,-1.4291,-1.4897,-1.5416,-1.5925,-1.5591,-1.5062,-1.4438,-1.4296,-1.4181,-1.4052,-1.3749,-1.3514,-1.3378,-1.348,-1.3648,-1.3888,-1.3815,-1.4149,-1.5059,-1.4937,-1.5381,-1.6458,-1.6458,-1.6786,-1.7445,-1.8155,-1.863,1.6098,0.8723,0.0737,-0.2557,-0.8277,-1.3856,-1.6767,-1.5811,-1.4584,-1.5513,-1.5922,-1.6201,-1.6474,-1.6648,-1.6986,-1.7814,-1.8232,-1.8777,-1.9535,-1.8324,-1.7728,-1.8678,-1.8132,-1.8037,0.0,-1.9198,-1.9589,-2.0488,-1.9802,-2.0117,-2.1836,-2.1863,-2.2182,-2.2959,-2.292,-2.2446,-2.1534,-2.1388,-2.0899,-2.005,-1.9915,-1.9788,-1.9606,-1.9435,-1.9308,-1.9308,-1.9308,-1.9182,-1.8984,-1.9002,-1.8825,-1.8622,-1.8861,-1.8984,-1.9019,-1.9214,-1.8998,-1.8697,-1.913,-1.9308,-1.9308,-1.9308,-1.9323,-1.9161,-1.8353,-1.8119,-1.7752,-1.6224,-1.5735,-1.5551,-1.4733,-1.4513,-1.4513,-1.4476,-1.4476,-1.4429,-1.4232,-1.4193,-1.4051,-1.3678,-1.3601,-1.3539,-1.3413,-1.3413,-1.387,-1.5325,-1.4682,-1.4347,-1.5123,-1.5546,-1.5358,-1.4227,-1.4686,-1.4907,-1.4501,-1.447,-1.4278,-1.3888,-1.4246,-1.4278,-1.3921,-1.4627,-1.5059,-1.509,-1.5536,-1.577,-1.5829,-1.5829,-1.6129,-1.6726,-1.7236,-1.7985,1.3389,0.7688,0.1548,-0.2027,-0.7416,-1.2269,-1.3901,-1.4111,-1.4139,-1.4896,-1.5302,-1.5484,-1.5594,-1.5941,-1.6462,-1.7223,-1.7824,-1.8471,-1.9228,-1.8603,-1.8224,-1.8569,-1.8833,0.0,0.0,0.0,0.0,-2.0486,-2.0261,-2.0386,-2.1016,-2.0968,-2.1067,-2.133,-2.1245,-2.1011,-2.0714,-2.065,-2.0411,-1.9984,-1.9774,-1.9559,-1.9413,-1.9338,-1.9323,-1.9323,-1.9323,-1.9198,-1.9019,-1.9134,-1.9067,-1.8825,-1.8319,-1.8136,-1.8064,-1.7586,-1.7343,-1.7319,-1.8213,-1.85,-1.8427,-1.7876,-1.806,-1.8353,-1.7532,-1.6922,-1.6371,-1.5857,-1.5307,-1.4829,-1.4561,-1.4488,-1.4488,-1.4488,-1.4417,-1.4257,-1.4038,-1.3899,-1.3739,-1.3493,-1.3479,-1.3462,-1.343,-1.3413,-1.3921,-1.5392,-1.5954,-1.6026,-1.5573,-1.5894,-1.5988,-1.5576,-1.5272,-1.5029,-1.4907,-1.4658,-1.4438,-1.431,-1.4438,-1.4564,-1.469,-1.469,-1.4968,-1.5536,-1.5418,-1.5477,-1.5799,-1.5799,-1.6004,-1.6445,-1.6804,-1.7305,1.2784,0.8236,0.3347,-0.0336,-0.4999,-0.9136,-1.0913,-1.1428,-1.1911,-1.31,-1.3314,-1.3471,-1.4019,-1.4341,-1.4986,-1.6354,-1.7058,-1.7824,-1.883,-1.8529,-1.8341,-1.869,-1.9276,-1.9601,0.0,0.0,0.0,-2.0379,-2.0412,-2.0482,-2.0544,-2.0508,-2.0503,-2.0488,-2.0402,-2.0342,-2.0288,-2.0314,-2.0235,-2.0087,-1.9866,-1.965,-1.9476,-1.9419,-1.9383,-1.9323,-1.9323,-1.923,-1.9117,-1.9261,-1.9047,-1.8612,-1.8068,-1.7669,-1.7327,-1.682,-1.6443,-1.6363,-1.7343,-1.7679,-1.7568,-1.7055,-1.7238,-1.7532,-1.6725,-1.6114,-1.5637,-1.5343,-1.4903,-1.4488,-1.4488,-1.4488,-1.4488,-1.4488,-1.4417,-1.427,-1.4131,-1.4011,-1.387,-1.3713,-1.3682,-1.3636,-1.3511,-1.3871,-1.4411,-1.5088,-1.6507,-1.7056,-1.5887,-1.5857,-1.5876,-1.5768,-1.5504,-1.5359,-1.5359,-1.509,-1.4876,-1.4721,-1.4876,-1.4998,-1.509,-1.4998,-1.5239,-1.5799,-1.5507,-1.5507,-1.5799,-1.5799,-1.5998,-1.6301,-1.6543,-1.6876,1.4026,1.0168,0.5953,0.2347,-0.1197,-0.4631,-0.7842,-0.8009,-0.8093,-1.016,-1.022,-1.0271,-1.1698,-1.1961,-1.2757,-1.511,-1.5958,-1.6853,-1.8372,-1.811,-1.8093,0.0,0.0,0.0,0.0,0.0,0.0,-2.0126,0.0,-2.0434,-2.0484,-2.0488,-2.0505,-2.0494,-2.049,-2.0458,-2.0305,-2.0294,-2.0289,-2.0304,-2.0087,-1.9914,-1.9734,-1.965,-1.9476,-1.9176,-1.9213,-1.9213,-1.9161,-1.9161,-1.872,-1.8023,-1.7986,-1.7495,-1.6835,-1.6798,-1.6285,-1.5747,-1.6505,-1.6798,-1.6835,-1.6798,-1.6798,-1.6688,-1.5894,-1.5637,-1.549,-1.4719,-1.4488,-1.4488,-1.4488,-1.4488,-1.4488,-1.4488,-1.4488,-1.4488,-1.4488,-1.4476,-1.4429,-1.4232,-1.4157,-1.4051,-1.3693,-1.4743,-1.5378,-1.4682,-1.6373,-1.7255,-1.5974,-1.5505,-1.5185,-1.4923,-1.5439,-1.5799,-1.5799,-1.5799,-1.5595,-1.515,-1.5536,-1.5595,-1.515,-1.5536,-1.5799,-1.5799,-1.5799,-1.5799,-1.5827,-1.5827,-1.6026,-1.6355,-1.6355,-1.6696,1.2856,0.9682,0.6345,0.4156,0.0581,-0.2951,-0.4997,-0.6502,-0.7789,-0.8855,-0.919,-0.9466,-1.0082,-1.0975,-1.2158,-1.3775,-1.5422,0.0,-1.8113,-1.8334,0.0,-1.8717,0.0,-1.9911,-1.9559,-2.0864,0.0,0.0,-2.0028,-2.0255,-2.0406,-2.0475,-2.0494,-2.0503,-2.0503,-2.0482,-2.0464,-2.0347,-2.025,-2.0158,-2.0049,-1.961,-1.8843,-1.9461,-1.8977,-1.772,-1.8339,-1.8199,-1.7495,-1.7495,-1.7385,-1.7165,-1.6555,-1.6188,-1.5931,-1.5331,-1.4964,-1.4829,-1.5038,-1.549,-1.5894,-1.5294,-1.5527,-1.5857,-1.505,-1.4829,-1.4756,-1.4561,-1.4488,-1.4488,-1.4488,-1.4488,-1.4488,-1.4488,-1.4488,-1.4464,-1.4307,-1.4282,-1.4232,-1.4011,-1.3983,-1.3941,-1.3856,-1.4933,-1.5776,-1.5569,-1.6339,-1.6752,-1.6174,-1.6272,-1.626,-1.5972,-1.5849,-1.5799,-1.5799,-1.5799,-1.5741,-1.5654,-1.5741,-1.5741,-1.5654,-1.5741,-1.5799,-1.5799,-1.5799,-1.5942,-1.6163,-1.6163,-1.6459,-1.7052,-1.7052,-1.7272,1.2478,1.0123,0.7511,0.5204,0.2163,-0.074,-0.2638,-0.4424,-0.5949,-0.7046,-0.7561,-0.8148,-0.9193,-1.0377,-1.1785,0.0,0.0,0.0,-1.7681,-1.817,-1.8413,0.0,-1.9372,0.0,-1.938,-2.0458,-2.0852,0.0,-2.0364,-2.0512,-2.0266,-2.037,-2.0458,-2.0488,-2.0507,-2.0505,-2.0488,-2.0361,-2.0076,-1.9645,-1.9588,-1.9039,-1.8087,-1.8552,-1.8192,-1.7139,0.0,-1.7485,-1.6908,-1.6908,-1.6688,-1.6334,-1.5894,-1.549,-1.5135,-1.4726,-1.46,-1.4611,-1.4664,-1.4982,-1.5269,-1.477,-1.4896,-1.5203,-1.4775,-1.4685,-1.4685,-1.4685,-1.4685,-1.4685,-1.4685,-1.4685,-1.4685,-1.4685,-1.4685,-1.4616,-1.4474,-1.4439,-1.4392,-1.4219,-1.4296,-1.4379,-1.4379,-1.5401,-1.6267,-1.6267,-1.6761,-1.7042,-1.6726,-1.658,-1.6554,-1.6538,-1.6355,-1.6163,-1.6024,-1.5996,-1.597,-1.5799,-1.5799,-1.5799,-1.5799,-1.5799,-1.5799,-1.5799,-1.5799,-1.594,-1.6301,-1.6301,-1.6644,-1.7296,-1.7296,-1.7462,1.2291,1.0579,0.8506,0.5805,0.3555,0.1484,-0.0508,-0.2037,-0.347,-0.4968,-0.5646,-0.6566,-0.8443,-0.9816,-1.1291,-1.3237,0.0,-1.6343,-1.7256,-1.7726,-1.8035,-1.8138,-1.8962,-1.9517,-1.9517,-1.9808,-2.0065,-2.0213,-2.0664,-2.0678,-2.0079,-2.0171,-2.0293,-2.0475,-2.048,-2.0502,-2.0497,-2.0391,-1.9905,-1.9119,-1.904,-1.8443,-1.7369,-1.7475,-1.7264,-1.6825,-1.6948,0.0,-1.6643,-1.6643,-1.6202,-1.5588,-1.5588,-1.5182,-1.4567,-1.4668,-1.4718,-1.4728,-1.4868,-1.4904,-1.4886,-1.4747,-1.4718,-1.4738,-1.4868,-1.4904,-1.4904,-1.4904,-1.4904,-1.4904,-1.4904,-1.4904,-1.4904,-1.4904,-1.4904,-1.4877,-1.4738,-1.4698,-1.4685,-1.4556,-1.4833,-1.5092,-1.5092,-1.6062,-1.6809,-1.6809,-1.745,-1.7816,-1.7532,-1.6805,-1.6441,-1.6793,-1.6805,-1.667,-1.6409,-1.6382,-1.6219,-1.5885,-1.5885,-1.5856,-1.5799,-1.5799,-1.5799,-1.5799,-1.5799,-1.5998,-1.6382,-1.6382,-1.6722,-1.7368,-1.7368,-1.7509,1.1091,0.9061,0.7185,0.6564,0.4426,0.2378,0.1986,0.0064,0.0,-0.2928,-0.4031,-0.5195,-0.6466,-0.8148,-0.9995,-1.1978,-1.385,-1.5671,-1.7444,-1.7339,-1.7254,0.0,-1.799,-1.8073,-1.8073,-1.8568,0.0,0.0,0.0,-1.9419,-1.9828,-1.9945,-2.0073,-2.0244,-2.034,-2.0428,-2.05,-2.0429,-1.9988,-1.9183,-1.9095,-1.8252,-1.6684,-1.7356,-1.6804,-1.5383,-1.6143,0.0,-1.5245,-1.5245,-1.517,-1.502,-1.502,-1.4954,-1.4841,-1.4868,-1.4877,-1.4877,-1.4895,-1.4904,-1.4895,-1.4877,-1.4877,-1.4877,-1.4895,-1.4904,-1.4904,-1.4904,-1.4904,-1.4904,-1.4904,-1.4904,-1.4904,-1.4904,-1.4904,-1.4895,-1.4877,-1.4794,-1.4678,-1.4658,-1.5171,-1.5585,-1.5585,-1.6643,-1.7521,-1.7521,-1.8072,-1.8432,-1.8393,-1.7647,-1.7044,-1.6825,-1.6805,-1.6805,-1.6727,-1.6696,-1.6596,-1.6246,-1.6219,-1.608,-1.5799,-1.5799,-1.5799,-1.5799,-1.5799,-1.608,-1.6696,-1.6696,-1.7052,-1.7704,-1.7704,-1.7726,1.0112,0.8471,0.6946,0.6655,0.503,0.3381,0.291,0.0,0.0,-0.1336,-0.26,-0.3962,-0.5356,-0.7147,-0.8945,-1.0528,-1.2291,-1.4158,-1.6205,-1.6218,-1.6453,-1.7645,-1.7474,-1.7311,-1.7476,-1.7902,-1.8258,-1.8584,0.0,-1.8992,-1.965,-1.9834,-1.999,-2.0146,-2.0228,-2.0141,-1.9843,-1.9755,-1.9061,-1.7773,-1.7774,-1.7076,-1.5871,-1.63,-1.5944,-1.5057,-1.5467,0.0,-1.4904,-1.4904,-1.4904,-1.4904,-1.4904,-1.4904,-1.4913,-1.4933,-1.4957,-1.4965,-1.5011,-1.5061,-1.5101,-1.5101,-1.504,-1.4973,-1.5075,-1.5101,-1.5114,-1.5118,-1.5091,-1.5091,-1.5091,-1.5091,-1.5091,-1.5091,-1.5063,-1.5002,-1.5012,-1.4912,-1.4954,-1.5374,-1.5951,-1.6448,-1.6917,-1.7752,-1.8385,-1.8385,-1.8632,-1.8819,-1.8819,-1.8448,-1.8064,-1.7759,-1.7614,-1.7452,-1.7287,-1.7118,-1.685,-1.6328,-1.6463,-1.6409,-1.6052,-1.6052,-1.6052,-1.6052,-1.5885,-1.6136,-1.6805,-1.6623,-1.6977,-1.7805,-1.7635,-1.7635,0.9242,0.811,0.6951,0.6699,0.5668,0.4526,0.3754,0.2694,0.1511,0.023,-0.1271,-0.2783,-0.43,-0.6153,-0.7837,0.0,-1.0702,-1.2561,-1.4797,-1.5122,-1.5778,0.0,-1.7086,0.0,-1.7052,-1.7358,0.0,-1.7945,0.0,0.0,-1.9146,-1.9338,-1.9447,-1.9492,-1.9504,-1.9329,-1.8837,-1.8767,-1.7967,-1.6449,-1.6484,-1.605,-1.527,-1.5268,-1.5241,-1.5139,-1.5091,0.0,0.0,-1.5004,-1.5004,-1.5004,-1.5004,-1.5004,-1.4973,-1.5057,-1.5044,-1.5088,-1.5185,-1.5245,-1.5295,-1.5295,-1.5188,-1.5107,-1.5255,-1.5288,-1.5303,-1.5299,-1.5273,-1.5277,-1.5277,-1.5277,-1.5277,-1.5309,-1.5214,-1.5154,-1.5151,-1.5183,-1.543,-1.6122,-1.68,-1.7498,-1.8196,-1.8802,-1.9234,-1.9234,-1.9234,-1.9234,-1.9234,-1.9234,-1.9118,-1.8821,-1.8459,-1.8156,-1.7877,-1.7591,-1.715,-1.6538,-1.6747,-1.6722,-1.6328,-1.6301,-1.6274,-1.6191,-1.5996,-1.6191,-1.6805,-1.6591,-1.7002,-1.7883,-1.7555,-1.7602,0.8603,0.7486,0.6742,0.7058,0.6579,0.5951,0.5606,0.0,0.3296,0.2033,0.0066,-0.1707,-0.2655,-0.4573,-0.646,-0.7845,0.0,-1.1383,-1.4002,-1.4538,-1.525,-1.6785,0.0,0.0,-1.6386,-1.6696,0.0,-1.7269,0.0,0.0,-1.7864,-1.7881,-1.7757,-1.7491,-1.7407,-1.7482,-1.7653,-1.7668,-1.7209,-1.6309,-1.6376,-1.5977,-1.5117,-1.5194,-1.5228,-1.5286,-1.5284,0.0,0.0,-1.5274,-1.5274,-1.5274,-1.5274,-1.5274,-1.5274,-1.5278,-1.5281,-1.5281,-1.5284,-1.5307,-1.529,-1.529,-1.527,-1.5281,-1.5287,-1.5312,-1.5291,-1.5293,-1.5267,-1.5195,-1.5195,-1.5195,-1.5233,-1.5298,-1.529,-1.5282,-1.5296,-1.5796,-1.63,-1.6382,-1.7555,-1.8573,-1.865,-1.9358,-1.9909,-1.9909,-1.9909,-1.9909,-1.9909,-1.9909,-1.9821,-1.9562,-1.881,-1.8353,-1.8334,-1.7954,-1.7612,-1.7224,-1.7248,-1.6977,-1.6328,-1.6301,-1.6163,-1.5856,-1.6108,-1.6436,-1.6805,-1.7076,-1.7555,-1.8163,-1.7883,-1.8035,0.8363,0.7663,0.711,0.717,0.7258,0.7092,0.6277,0.5576,0.4626,0.3014,0.1382,-0.0164,-0.1572,-0.2974,-0.4511,-0.6284,-0.7278,-0.8928,-1.1988,-1.2567,-1.3409,-1.5333,-1.5122,0.0,0.0,0.0,-1.5559,-1.6133,0.0,0.0,-1.6282,-1.6728,-1.7312,-1.784,-1.7002,-1.6938,-1.7657,-1.7244,-1.6603,-1.5771,-1.591,-1.5548,-1.4807,-1.4942,-1.5087,-1.5187,-1.5155,0.0,0.0,-1.5225,-1.5225,-1.5225,-1.5225,-1.5225,-1.5226,-1.5154,-1.5116,-1.5117,-1.5077,-1.4983,-1.4865,-1.4865,-1.4805,-1.4837,-1.5192,-1.5312,-1.5311,-1.5306,-1.5161,-1.5034,-1.5034,-1.4977,-1.4927,-1.5093,-1.546,-1.5769,-1.5645,-1.6188,-1.6795,-1.7182,-1.7725,-1.8297,-1.881,-1.9166,-1.9404,-1.9404,-1.9404,-1.9404,-1.9404,-1.9404,-1.9453,-1.9633,-1.9222,-1.8879,-1.8789,-1.8333,-1.7893,-1.7568,-1.7579,-1.7296,-1.6649,-1.6623,-1.6463,-1.6108,-1.6024,-1.6274,-1.6805,-1.6722,-1.715,-1.7949,-1.7805,-1.798,0.8434,0.7914,0.7476,0.7439,0.7739,0.7754,0.6706,0.6345,0.5681,0.3922,0.2419,0.1005,-0.0381,-0.167,-0.2954,0.0,-0.5251,-0.6817,-0.9753,-1.0604,-1.1797,-1.4062,0.0,-1.3877,0.0,-1.4152,-1.4155,0.0,0.0,0.0,-1.489,-1.5261,-1.6056,-1.7317,-1.6325,-1.6201,-1.6983,-1.6514,-1.5926,-1.5309,-1.5519,-1.5197,-1.4504,-1.4707,-1.4742,-1.4662,-1.4599,0.0,0.0,-1.4865,-1.491,-1.4956,-1.4956,-1.4912,-1.4823,-1.4755,-1.4656,-1.4596,-1.455,-1.4405,-1.4259,-1.4052,-1.3934,-1.3854,-1.394,-1.4448,-1.5,-1.4999,-1.4807,-1.4586,-1.4586,-1.4468,-1.4446,-1.4787,-1.5269,-1.5616,-1.5386,-1.5955,-1.6542,-1.6694,-1.689,-1.7255,-1.7858,-1.7944,-1.7944,-1.7944,-1.7944,-1.7944,-1.7944,-1.8197,-1.8458,-1.8739,-1.8812,-1.8986,-1.9203,-1.8761,-1.8376,-1.8084,-1.8113,-1.7812,-1.7093,-1.7044,-1.6876,-1.6463,-1.6297,-1.6485,-1.6952,-1.6799,-1.7199,-1.8035,-1.7902,-1.8052,0.883,0.8146,0.7737,0.7954,0.8048,0.7881,0.7063,0.6904,0.6442,0.4883,0.3111,0.1619,0.1008,-0.0696,-0.2012,-0.2055,-0.3582,-0.5514,-0.7447,-0.8961,-1.0739,0.0,0.0,-1.3561,-1.3717,-1.3298,-1.304,0.0,0.0,0.0,-1.3815,-1.319,-1.3542,-1.5093,-1.4927,-1.4906,-1.5121,-1.5121,-1.5121,-1.5088,-1.5223,-1.493,-1.4332,-1.4441,-1.4168,0.0,0.0,0.0,0.0,-1.4027,-1.4167,-1.4413,-1.4413,-1.424,-1.4027,-1.4027,-1.3827,-1.3618,-1.3618,-1.3603,-1.3509,-1.2766,-1.251,-1.2303,-1.1177,-1.2488,-1.4316,-1.4316,-1.4129,-1.3932,-1.3932,-1.372,-1.3693,-1.4417,-1.4609,-1.4544,-1.4279,-1.4899,-1.5228,-1.4326,-1.4819,-1.5412,-1.5465,-1.5465,-1.5465,-1.5465,-1.5465,-1.5465,-1.5465,-1.6255,-1.6765,-1.6542,-1.7345,-1.8424,-1.9683,-1.9401,-1.9101,-1.8904,-1.8889,-1.8537,-1.7737,-1.7693,-1.7396,-1.6831,-1.7126,-1.7296,-1.7296,-1.7635,-1.8078,-1.8603,-1.8293,-1.8471,1.0371,0.9567,0.8783,0.8962,0.9295,0.9193,0.7923,0.7711,0.7251,0.5325,0.4065,0.2933,0.1742,0.0427,-0.0754,-0.1553,-0.2522,0.0,0.0,0.0,0.0,-1.0309,-1.104,-1.1344,0.0,0.0,0.0,0.0,0.0,0.0,-1.1731,-1.1559,-1.2374,-1.451,-1.3554,-1.3469,-1.4418,-1.4221,-1.3957,-1.3607,-1.4146,-1.3848,-1.2814,-1.3299,-1.3315,0.0,0.0,0.0,0.0,-1.2265,-1.2159,-1.2142,-1.2142,-1.1994,-1.1715,-1.1616,-1.1444,-1.1099,-1.0437,-1.0102,-0.9848,-0.9028,-0.866,-0.8465,-0.8098,-0.982,-1.1824,-1.1342,-1.1285,-1.1352,-1.1253,-1.1335,-1.1339,-1.0866,-1.1188,-1.1319,-1.0249,-1.066,-1.1128,-1.0636,-1.0763,-1.0953,-1.0953,-1.0953,-1.0953,-1.0953,-1.0953,-1.0953,-1.0953,-1.1213,-1.1508,-1.1761,-1.2035,-1.3871,-1.7943,-1.8527,-1.8628,-1.857,-1.8896,-1.8728,-1.7934,-1.7929,-1.765,-1.7077,-1.7206,-1.7432,-1.7868,-1.7954,-1.8362,-1.8992,-1.9,-1.9221,1.1337,1.0493,0.966,0.9769,0.9881,0.9609,0.8312,0.8199,0.785,0.592,0.4771,0.3786,0.265,0.1556,0.0504,-0.0448,-0.1088,-0.2233,0.0,0.0,0.0,-0.8353,0.0,0.0,0.0,-0.9512,0.0,0.0,0.0,0.0,-0.9639,-0.9639,-1.0315,-1.178,-1.1866,-1.2279,-1.3084,-1.2933,-1.2543,-1.2001,-1.2476,-1.2024,-1.0851,-1.127,-1.1071,0.0,0.0,0.0,0.0,-0.9515,-0.9413,-0.9422,-0.9422,-0.9129,-0.8694,-0.8607,-0.8271,-0.7754,-0.7122,-0.6814,-0.6575,-0.5788,-0.5162,-0.4739,-0.4739,-0.6841,-0.9154,-0.8753,-0.8679,-0.8711,-0.8628,-0.8508,-0.8319,-0.7958,-0.8086,-0.7992,-0.7014,-0.721,-0.7427,-0.6928,-0.6812,-0.6812,-0.6812,-0.6812,-0.676,-0.6535,-0.6484,-0.6347,-0.5914,-0.6328,-0.6719,-0.6801,-0.6975,-0.8513,-1.2022,-1.4165,-1.5715,-1.6642,-1.7029,-1.7486,-1.8117,-1.8155,-1.8082,-1.7979,-1.796,-1.8145,-1.8516,-1.8636,-1.891,-1.9375,-1.9548,-1.9698,0.0,1.1034,1.0351,1.0396,1.004,0.9374,0.8362,0.8436,0.0,0.6605,0.5288,0.4283,0.3686,0.2632,0.1685,0.1143,0.0526,-0.0636,0.0,-0.3702,0.0,0.0,-0.8177,0.0,-0.7675,-0.7819,0.0,0.0,0.0,0.0,-0.7426,-0.7385,-0.7385,-0.7385,-0.9583,-1.0895,-1.1082,-1.1061,-1.078,-1.0169,-1.0169,-0.9548,-0.8387,-0.8422,-0.774,0.0,0.0,0.0,0.0,-0.6011,-0.6114,-0.6293,-0.6293,-0.577,-0.5003,-0.5003,-0.4449,-0.3723,-0.3657,-0.3657,-0.3541,-0.2815,-0.1856,-0.1012,-0.1016,-0.3483,-0.6277,-0.623,-0.6054,-0.5851,-0.5851,-0.524,-0.4774,-0.5321,-0.5027,-0.45,-0.419,-0.4126,-0.3882,-0.3083,-0.2894,-0.2894,-0.2894,-0.2846,-0.2622,-0.2108,-0.1935,-0.1512,-0.0482,-0.1563,-0.2228,-0.1639,-0.201,-0.2461,-0.2847,-0.7138,-1.0766,-1.3051,-1.3359,-1.4695,-1.7459,-1.7691,-1.8014,-1.8498,-1.8717,-1.8793,-1.8793,-1.9254,-1.9487,-1.9526,-1.9778,-1.9896,1.2313,0.0,1.0866,1.1337,1.0788,0.9964,0.0,0.8899,0.8341,0.7085,0.5888,0.4955,0.4488,0.3447,0.2633,0.2611,0.1602,0.0472,-0.06,0.0,0.0,-0.5039,-0.5197,-0.5275,-0.5547,0.0,0.0,0.0,0.0,-0.4971,-0.4534,-0.4491,-0.4491,-0.4491,-0.4623,-0.5715,-0.7935,-0.7897,-0.7589,-0.7057,-0.7013,-0.6415,-0.5345,-0.5697,-0.5258,0.0,0.0,0.0,-0.3381,-0.3082,-0.2662,-0.2247,-0.2247,-0.1722,-0.0981,-0.0981,-0.0666,-0.018,0.0472,0.0729,0.0918,0.2152,0.3011,0.3551,0.3552,0.0812,-0.2151,-0.1699,-0.1673,-0.1685,-0.1288,-0.1168,-0.0965,-0.0204,0.0082,0.0453,0.1357,0.1578,0.1624,0.1855,0.1859,0.1859,0.1859,0.2549,0.2989,0.2724,0.3399,0.3995,0.4234,0.3643,0.351,0.4304,0.3999,0.3824,0.4037,-0.149,-0.5333,-0.6189,-0.8064,-0.9323,-0.9658,-1.0977,-1.165,-1.1618,-1.3774,-1.4899,-1.4899,-1.7123,-1.8345,-1.8614,-1.8794,-1.8983,1.2721,1.2045,1.1356,1.1654,1.1139,1.0366,0.9576,0.9045,0.843,0.7432,0.6506,0.5755,0.5377,0.4558,0.3716,0.3208,0.2495,0.0,0.0,0.0,-0.2041,-0.2811,-0.3081,-0.3276,0.0,0.0,0.0,0.0,0.0,-0.2247,-0.1895,-0.1895,-0.1895,-0.1895,-0.1581,-0.2529,-0.489,-0.4623,-0.4186,-0.3659,-0.3356,-0.2755,-0.1922,-0.1941,-0.1472,0.0,0.0,0.0,0.0636,0.1115,0.1537,0.1868,0.1868,0.2301,0.298,0.298,0.3262,0.3723,0.4196,0.4371,0.4468,0.5257,0.5705,0.5919,0.5937,0.4396,0.2629,0.2386,0.2221,0.2177,0.2493,0.2658,0.2917,0.3581,0.3941,0.4295,0.4909,0.5056,0.5056,0.5056,0.5249,0.5407,0.5402,0.6062,0.6544,0.6499,0.7214,0.786,0.8077,0.8134,0.8349,0.8791,0.9043,0.9205,0.9221,0.6467,0.2864,-0.1375,-0.271,-0.4137,-0.5918,-0.6639,-0.7484,-0.8535,-1.0081,-1.1283,-1.2106,-1.3632,-1.4881,-1.58,-1.5886,-1.6433,1.2866,1.2381,1.1799,1.1797,1.1409,1.0746,0.9856,0.0,0.868,0.7959,0.7205,0.6556,0.6131,0.5552,0.0,0.3537,0.0,0.0,0.1504,0.0722,0.0111,-0.0499,-0.1157,0.0,0.0,0.0,0.0,0.0,0.0,0.031,0.0398,0.0486,0.0531,0.0531,0.0618,-0.0044,-0.1523,-0.139,-0.1045,-0.048,0.013,0.0782,0.1441,0.1996,0.2562,0.3184,0.0,0.0,0.4721,0.5208,0.5449,0.5533,0.5605,0.5991,0.6524,0.6594,0.6949,0.7402,0.7402,0.7443,0.7524,0.7524,0.7524,0.7524,0.7524,0.7484,0.7182,0.6198,0.5689,0.5533,0.5616,0.6014,0.6412,0.6412,0.6811,0.721,0.7251,0.7293,0.7307,0.7349,0.7814,0.8152,0.7961,0.857,0.9125,0.9353,1.0,1.064,1.1072,1.1591,1.1958,1.2162,1.2889,1.3238,1.2935,1.3695,1.0965,0.3336,0.2988,0.1169,-0.3017,-0.2763,-0.3541,-0.5706,-0.6132,-0.7103,-0.8653,-0.9071,-1.0102,-1.167,-1.1855,-1.272,1.2318,1.229,1.2158,1.217,1.1832,1.1465,1.1272,1.0383,0.9502,0.0,0.0,0.0,0.0,0.5772,0.5249,0.0,0.0,0.3237,0.0,0.0,0.1838,0.1726,0.0,0.0,0.0,0.0,0.0,0.0,0.0,0.1764,0.226,0.2734,0.2953,0.2953,0.3477,0.3608,0.3333,0.145,0.0793,0.1406,0.1983,0.2822,0.3868,0.4406,0.5004,0.5577,0.0,0.6425,0.6521,0.6604,0.6949,0.7416,0.782,0.8359,0.8927,0.9325,0.952,0.9616,0.9616,0.9906,1.029,1.029,1.0309,1.0387,1.0387,1.0099,0.9728,0.9573,0.8488,0.7512,0.7993,0.8212,0.8269,0.8269,0.8366,0.8513,0.8922,0.9001,0.9128,0.944,1.0054,1.0289,0.9648,1.1204,1.209,1.0739,1.1787,1.2701,1.273,1.2527,1.285,1.4114,1.4072,1.4049,1.4339,1.4541,1.3647,1.145,0.9666,0.729,0.4286,0.3882,0.3542,0.3127,0.095,-0.0534,-0.123,-0.3483,-0.5093,-0.6165,-0.7112,-0.7876,1.2173,1.2277,1.218,1.2068,1.1731,1.1196,1.0551,0.975,0.9113,0.0,0.0,0.0,0.0,0.0,0.666,0.5659,0.0,0.41,0.3751,0.3529,0.3289,0.0,0.0,0.0,0.0,0.0,0.0,0.0,0.0,0.0,0.4117,0.4326,0.4457,0.4457,0.4726,0.4899,0.4899,0.4121,0.3724,0.3695,0.4318,0.5019,0.5823,0.6416,0.6961,0.7515,0.0,0.8318,0.8359,0.8887,0.9301,0.9594,1.0079,1.0444,1.0712,1.0918,1.1031,1.1031,1.1031,1.1201,1.135,1.1052,1.1185,1.1394,1.1094,1.1057,1.1094,1.1094,1.0369,0.9533,0.9549,0.9746,0.9884,0.9628,0.9746,1.0001,1.0215,1.0484,1.0835,1.1326,1.1865,1.2222,1.2159,1.3237,1.3837,1.3031,1.3828,1.4355,1.4003,1.438,1.4794,1.5151,1.5298,1.5492,1.5688,1.5644,1.5098,1.3762,1.223,1.0799,0.9506,0.9565,0.8848,0.735,0.6163,0.4853,0.3381,0.1878,0.0458,-0.086,-0.1395,-0.2564,1.2189,1.2303,1.2253,1.1889,1.1598,1.1064,1.0087,0.9456,0.9038,0.0,0.0,0.0,0.0,0.7912,0.0,0.6557,0.5809,0.5304,0.5208,0.5057,0.4787,0.4223,0.0,0.0,0.0,0.0,0.0,0.0,0.0,0.0,0.5696,0.5813,0.5984,0.6101,0.6112,0.6112,0.6112,0.6512,0.6386,0.5685,0.6283,0.6875,0.7404,0.8013,0.8561,0.907,0.9628,0.9942,1.0099,1.0867,1.1207,1.1244,1.1763,1.2018,1.215,1.215,1.215,1.215,1.2265,1.2348,1.2298,1.2016,1.2099,1.2249,1.1872,1.1948,1.2159,1.2159,1.1948,1.1583,1.0976,1.111,1.1323,1.11,1.1316,1.1604,1.1719,1.2061,1.2484,1.2986,1.3533,1.3935,1.4177,1.4771,1.5085,1.4744,1.5242,1.5398,1.4971,1.5732,1.6194,1.5864,1.6238,1.6522,1.6522,1.6522,1.5979,1.4751,1.358,1.2927,1.2941,1.3229,1.241,1.0235,1.0121,0.913,0.7275,0.6715,0.5756,0.4346,0.3955,0.2513,1.2096,1.25,1.2686,1.1963,1.1796,1.1669,1.1262,1.0638,1.0245,1.0516,0.0,0.0,0.0,0.7706,0.7269,0.7061,0.7101,0.7022,0.6768,0.0,0.6426,0.6372,0.0,0.0,0.0,0.0,0.0,0.0,0.0,0.0,0.6875,0.7391,0.7946,0.8423,0.8464,0.8464,0.8464,0.8504,0.7957,0.6862,0.7432,0.8024,0.8586,0.911,0.9667,1.0138,1.0657,1.1169,1.1616,1.1689,1.1748,1.1763,1.2258,1.272,1.3094,1.3094,1.3094,1.3204,1.3738,1.3949,1.3988,1.4474,1.4289,1.3951,1.3911,1.3593,1.3293,1.3293,1.3552,1.3635,1.2687,1.2457,1.2608,1.3058,1.3211,1.3333,1.3792,1.3911,1.4078,1.4541,1.5118,1.533,1.4744,1.5596,1.6015,1.488,1.5242,1.5576,1.5531,1.5599,1.5864,1.6367,1.6479,1.6522,1.6522,1.6522,1.6454,1.6318,1.4861,1.4,1.3978,1.3591,1.332,1.3107,1.2551,1.1985,1.1385,1.0762,1.0167,0.9503,0.7952,0.6841,1.1777,1.2187,1.2328,1.1385,1.1029,0.0,0.0,1.0151,0.9702,1.0008,0.9765,0.0,0.0,0.0,0.794,0.7951,0.7412,0.6999,0.6919,0.6719,0.6588,0.0,0.0,0.0,0.0,0.0,0.0,0.0,0.0,0.0,0.88,0.9021,0.9099,0.9056,0.9081,0.894,0.8724,0.903,0.899,0.8569,0.8448,0.865,0.9191,0.9688,1.0196,1.0733,1.1282,1.1616,1.1844,1.2473,1.2724,1.2822,1.3642,1.3889,1.3785,1.4136,1.4262,1.4287,1.4525,1.4601,1.4588,1.4455,1.4489,1.4528,1.4189,1.4189,1.4332,1.4332,1.445,1.4362,1.338,1.3311,1.3516,1.3442,1.3628,1.387,1.4046,1.4347,1.474,1.5241,1.5529,1.5745,1.5792,1.6194,1.6349,1.5888,1.602,1.6151,1.6151,1.6151,1.6238,1.6479,1.6522,1.6522,1.6522,1.6522,1.6522,1.6522,1.5936,1.5453,1.5115,1.5211,1.5011,1.4356,1.3785,1.3401,1.3225,1.1978,1.1487,1.163,1.0677,0.956,1.1452,1.1814,1.1954,1.1182,0.0,0.0,1.0569,0.9939,0.9486,0.9886,0.9806,0.9686,0.9686,0.0,0.0,0.0,0.8166,0.7711,0.7555,0.7389,0.0,0.0,0.0,0.0,0.0,0.0,0.0,0.0,0.0,0.0,0.0,1.0193,1.0117,1.003,1.003,0.9991,0.9912,1.024,1.0543,1.0725,1.0362,1.0205,1.027,1.0924,1.1496,1.202,1.2363,1.2611,1.2822,1.354,1.3798,1.3885,1.4599,1.4676,1.44,1.4777,1.4903,1.4928,1.5104,1.5141,1.5126,1.4931,1.5126,1.5352,1.498,1.5126,1.5392,1.5392,1.5392,1.5271,1.4553,1.4492,1.4558,1.4423,1.4612,1.4858,1.4858,1.5166,1.5492,1.5894,1.5944,1.607,1.6446,1.6522,1.6522,1.6522,1.6522,1.6522,1.6522,1.6522,1.6522,1.6522,1.6522,1.6522,1.6522,1.6522,1.6522,1.6522,1.6522,1.6346,1.5969,1.6321,1.617,1.5417,1.4867,1.4603,1.4614,1.3333,1.2883,1.3314,1.2611,1.1583,1.1082,1.1526,1.1722,1.1381,1.1305,0.0,1.1122,1.0345,0.986,1.0497,1.01,0.9686,0.9686,0.9686,0.0,0.923,0.9486,0.9472,0.8884,0.8804,0.0,0.0,0.0,0.0,0.0,0.0,0.0,0.0,0.0,0.0,0.0,1.0812,1.1079,1.1606,1.1606,1.191,1.2489,1.2531,1.2826,1.3406,1.3406,1.2873,1.1954,1.2936,1.3668,1.4086,1.411,1.4386,1.4903,1.4928,1.4928,1.4928,1.4928,1.4928,1.4928,1.4928,1.4928,1.5004,1.5517,1.5693,1.5793,1.6346,1.6522,1.6522,1.6522,1.6522,1.6522,1.6522,1.6522,1.6522,1.6522,1.612,1.5844,1.6396,1.6522,1.6522,1.6522,1.6522,1.6522,1.6522,1.6522,1.6522,1.6522,1.6522,1.6522,1.6522,1.6522,1.6522,1.6522,1.6522,1.6522,1.6522,1.6522,1.6522,1.6522,1.6522,1.6522,1.6522,1.6522,1.6522,1.6522,1.6522,1.6522,1.6522,1.5908,1.5666,1.5693,1.5115,1.4849,1.4864,1.3798,1.3018,1.1845,1.1693,1.1435,1.1341,1.0754,1.0208,0.0,1.0167,0.0,0.0,1.0483,1.0234,1.002,0.982,0.0,0.923,0.9138,0.9166,0.9435,0.951,0.0,0.0,0.0,0.0,0.0,0.0,0.0,0.0,0.0,0.0,0.0,1.2291,1.2371,1.2665,1.2665,1.2806,1.3117,1.3117,1.3242,1.3406,1.4163,1.3946,1.2999,1.3599,1.399,1.4125,1.4489,1.4748,1.4953,1.5291,1.5442,1.5492,1.5869,1.5793,1.5492,1.5894,1.6045,1.6045,1.622,1.6271,1.6296,1.6471,1.6522,1.6522,1.6522,1.6522,1.6522,1.6522,1.6522,1.6522,1.6522,1.6396,1.6321,1.6471,1.6522,1.6522,1.6522,1.6522,1.6522,1.6522,1.6522,1.6522,1.6522,1.6522,1.6522,1.6522,1.6522,1.6522,1.6522,1.6522,1.6522,1.6522,1.6522,1.6522,1.6522,1.6522,1.6667,1.7021,1.671,1.6522,1.6522,1.6522,1.6522,1.6522,1.5908,1.5835,1.6271,1.5284,1.5018,1.5442,1.4773,1.4128,1.1438,1.1199,1.0902,1.0852,1.0566,1.0241,1.0134,0.0,0.0,0.0,1.0194,1.0067,1.0297,1.0091,0.0,1.0017,0.9882,0.9866,1.0182,1.0218,0.0,0.0,0.0,0.0,0.0,0.0,0.0,0.0,0.0,0.0,0.0,1.3238,1.3381,1.3734,1.3757,1.3939,1.4294,1.4294,1.4378,1.463,1.5302,1.5278,1.463,1.4921,1.502,1.5061,1.5396,1.5517,1.5542,1.5894,1.6019,1.6045,1.6396,1.6321,1.607,1.6396,1.6522,1.6522,1.6522,1.6522,1.6522,1.6522,1.6522,1.6522,1.6522,1.6522,1.6522,1.6522,1.6522,1.6522,1.6522,1.6522,1.6522,1.6522,1.6522,1.6522,1.6522,1.6522,1.6522,1.6522,1.6522,1.6522,1.6522,1.6522,1.6522,1.6522,1.6667,1.6837,1.6837,1.6837,1.6837,1.6837,1.6625,1.6522,1.6522,1.6522,1.671,1.7271,1.698,1.6837,1.6837,1.6607,1.6522,1.6522,1.6151,1.6151,1.6522,1.5789,1.5684,1.5994,1.5467,1.5032,1.0455,1.0369,1.0313,1.0205,1.0657,1.0912,1.0235,1.01,1.0074,1.0074,0.0,0.952,1.0521,1.0468,1.0516,1.1198,1.1288,1.1193,1.0913,1.0914,0.0,0.0,0.0,0.0,0.0,0.0,0.0,0.0,0.0,0.0,0.0,1.3862,1.4143,1.4744,1.4789,1.5062,1.5688,1.5688,1.5952,1.6522,1.6522,1.6522,1.6522,1.6522,1.6522,1.6522,1.6522,1.6522,1.6522,1.6522,1.6522,1.6522,1.6522,1.6522,1.6522,1.6522,1.6522,1.6522,1.6522,1.6522,1.6522,1.6522,1.6522,1.6522,1.6522,1.6522,1.6522,1.6522,1.6522,1.6522,1.6522,1.6522,1.6522,1.6522,1.6522,1.6522,1.6522,1.6522,1.6522,1.6522,1.6522,1.6522,1.6522,1.6522,1.6522,1.6522,1.6921,1.7229,1.7229,1.7229,1.7229,1.7229,1.6795,1.6522,1.6522,1.6565,1.6795,1.7353,1.7353,1.7312,1.7394,1.6879,1.6565,1.6522,1.6522,1.6522,1.6522,1.6522,1.6522,1.6497,1.5994,1.5768,1.1783,1.1124,1.0409,1.0769,1.0826,1.0581,1.0167,0.994,0.978,0.978,0.9673,0.9822,1.055,1.0468,1.0516,1.1198,1.1075,1.1065,1.1534,1.1566,0.0,0.0,0.0,0.0,0.0,0.0,0.0,0.0,0.0,0.0,1.4468,1.4514,1.4789,1.5398,1.5421,1.5688,1.6281,1.6281,1.6367,0.0,1.6522,1.6522,1.6522,1.6522,1.6522,1.6522,1.6522,1.6522,1.6522,1.6522,1.6522,1.6522,1.6522,1.6522,1.6522,1.6522,1.6522,1.6522,1.6522,1.6522,1.6522,1.6522,1.6522,1.6522,1.6522,1.6522,1.6522,1.6522,1.6522,1.6522,1.6522,1.6522,1.6522,1.6522,1.6522,1.6522,1.6522,1.6522,1.6522,1.6522,1.6522,1.6522,1.6522,1.6522,1.6522,1.6522,1.6607,1.6667,1.6667,1.6667,1.6667,1.6667,1.6565,1.6522,1.6522,1.6879,1.7353,1.7894,1.7558,1.7517,1.7894,1.7435,1.6921,1.6522,1.6522,1.6522,1.6522,1.6522,1.6522,1.6522,1.6396,1.6346,1.1597,1.1036,1.049,1.0576,1.0465,1.0234,0.9793,0.9852,0.9925,0.977,0.9742,0.9947,1.064,1.091,1.1266,1.1953,1.1926,1.195,1.2295,1.2344,0.0,0.0,0.0,0.0,0.0,0.0,0.0,0.0,0.0,1.4514,1.5107,1.5152,1.5421,1.5996,1.6039,1.6194,1.6522,1.6522,1.6522,1.6522,1.6522,1.6522,1.6522,1.6522,1.6522,1.6522,1.6522,1.6522,1.6522,1.6522,1.6522,1.6522,1.6522,1.6522,1.6522,1.6522,1.6522,1.6522,1.6522,1.6522,1.6522,1.6522,1.6522,1.6522,1.6522,1.6522,1.6522,1.6522,1.6522,1.6522,1.6522,1.6522,1.6522,1.6522,1.6522,1.6522,1.6522,1.6522,1.6522,1.6522,1.6522,1.6522,1.6522,1.6522,1.6522,1.6522,1.671,1.6879,1.6879,1.6879,1.6879,1.6879,1.6879,1.6879,1.6879,1.7394,1.7894,1.8444,1.7973,1.7814,1.8092,1.7598,1.7021,1.6522,1.6522,1.6522,1.6522,1.6522,1.6522,1.6522,1.6522,1.6522,1.1146,1.085,1.0726,1.0476,1.0322,1.0146,0.9757,1.0071,1.0371,1.0037,0.9961,1.0167,1.0864,1.1416,1.203,1.2774,1.2891,1.2891,1.2891,1.2891,0.0,0.0,0.0,0.0,0.0,0.0,0.0,0.0,0.0,1.5107,1.5732,1.5776,1.5996,1.6479,1.6522,1.6522,1.6522,1.6522,1.6522,1.6522,1.6522,1.6522,1.6522,1.6522,1.6522,1.6522,1.6522,1.6522,1.6522,1.6522,1.6522,1.6522,1.6522,1.6522,1.6522,1.6522,1.6522,1.6522,1.6522,1.6522,1.6522,1.6522,1.6522,1.6522,1.6522,1.6522,1.6522,1.6522,1.6522,1.6522,1.6522,1.6522,1.6522,1.6522,1.6522,1.6522,1.6522,1.6522,1.6522,1.6522,1.6522,1.6522,1.6522,1.6607,1.6607,1.6522,1.6964,1.7271,1.7146,1.7146,1.7188,1.7312,1.7312,1.7353,1.7435,1.7814,1.8288,1.8741,1.8249,1.7933,1.7933,1.7476,1.6964,1.6522,1.6522,1.6522,1.6522,1.6522,1.6522,1.6522,1.6522,1.6522,1.2026,1.1567,1.1108,1.1507,1.1253,1.1064,0.0,0.0,1.1048,0.0,1.0661,1.0864,1.1534,1.1733,1.203,1.2774,1.2891,1.2891,1.2891,1.2891,1.2891,0.0,0.0,0.0,0.0,0.0,0.0,0.0,1.5487,1.5732,1.6324,1.6367,1.6436,1.6522,1.6522,1.6522,1.6522,1.6522,1.6522,1.6522,1.6522,1.6522,1.6522,1.6522,1.6522,1.6522,1.6522,1.6522,1.6522,1.6522,1.6522,1.6522,1.6522,1.6522,1.6522,1.6522,1.6522,1.6522,1.6522,1.6522,1.6522,1.6522,1.6522,1.6522,1.6522,1.6522,1.6522,1.6522,1.6522,1.6522,1.6522,1.6522,1.6522,1.6522,1.6522,1.6522,1.6522,1.6522,1.6522,1.6522,1.6522,1.6522,1.6522,1.6879,1.7021,1.6565,1.6964,1.7105,1.6667,1.6607,1.6795,1.7229,1.7312,1.7517,1.7933,1.8052,1.8131,1.821,1.7693,1.7435,1.7435,1.6879,1.6565,1.6522,1.6522,1.6522,1.6522,1.6522,1.6522,1.6522,1.6522,1.6522,1.2608,1.2237,1.1909,1.2186,1.2107,1.1911,1.1721,1.1811,1.1852,1.1453,1.1683,1.195,1.1832,1.2147,1.251,1.2822,1.2891,1.2891,1.2891,1.2891,1.2891,0.0,0.0,0.0,0.0,0.0,0.0,0.0,1.6083,1.6238,1.6479,1.6522,1.6522,1.6522,1.6522,1.6522,1.6522,1.6522,1.6522,1.6522,1.6522,1.6522,1.6522,1.6522,1.6522,1.6522,1.6522,1.6522,1.6522,1.6522,1.6522,1.6522,1.6522,1.6522,1.6522,1.6522,1.6522,1.6522,1.6522,1.6522,1.6522,1.6522,1.6522,1.6522,1.6522,1.6522,1.6522,1.6522,1.6522,1.6522,1.6522,1.6522,1.6522,1.6522,1.6522,1.6522,1.6522,1.6522,1.6522,1.6522,1.6522,1.6522,1.6522,1.671,1.6752,1.6565,1.671,1.6879,1.6964,1.6964,1.7146,1.7693,1.8013,1.8288,1.8521,1.8817,1.9006,1.9006,1.821,1.7733,1.7733,1.6964,1.6522,1.6522,1.6522,1.6522,1.6522,1.6522,1.6522,1.6522,1.6522,1.6522,1.2751,1.2543,1.2478,1.2779,1.2745,1.2615,0.0,0.0,1.2665,0.0,1.2586,1.2725,1.2178,1.2559,1.2891,1.2891,1.2891,1.2891,1.2891,1.2891,1.2968,0.0,0.0,0.0,0.0,0.0,0.0,0.0,1.6522,1.6522,1.6522,1.6522,1.6522,1.6522,1.6522,1.6522,1.6522,1.6522,1.6522,1.6522,1.6522,1.6522,1.6522,1.6522,1.6522,1.6522,1.6522,1.6522,1.6522,1.6522,1.6522,1.6522,1.6522,1.6522,1.6522,1.6625,1.6625,1.6522,1.6667,1.6607,1.6522,1.6522,1.6522,1.6522,1.6522,1.6522,1.6522,1.6522,1.6522,1.6522,1.6522,1.6522,1.6522,1.6522,1.6522,1.6522,1.6522,1.6522,1.6522,1.6522,1.6522,1.6522,1.6522,1.6607,1.6667,1.6522,1.671,1.698,1.7271,1.7435,1.7693,1.8249,1.8664,1.8893,1.8893,1.9118,1.9295,1.9295,1.8405,1.7933,1.8092,1.7353,1.6837,1.671,1.671,1.6625,1.6522,1.6522,1.6522,1.6522,1.6522,1.6522,1.2425,1.2342,1.2538,1.3325,1.3235,1.3204,0.0,0.0,1.3445,1.3426,1.3164,1.2871,1.2822,1.2871,1.2891,1.2891,1.2891,1.2891,1.2891,1.2891,1.3094,1.3695,0.0,0.0,0.0,0.0,0.0,0.0,1.6522,1.6522,1.6522,1.6522,1.6522,1.6522,1.6522,1.6522,1.6522,1.6522,1.6522,1.6522,1.6522,1.6522,1.6522,1.6522,1.6522,1.6522,1.6522,1.6522,1.6522,1.6522,1.6522,1.6522,1.6522,1.6522,1.6565,1.7063,1.6964,1.6565,1.7063,1.6921,1.6522,1.6522,1.6522,1.6522,1.6522,1.6522,1.6522,1.6522,1.6522,1.6522,1.6522,1.6522,1.6522,1.6522,1.6522,1.6522,1.6522,1.6522,1.6522,1.6522,1.6522,1.6522,1.6522,1.6921,1.7063,1.6607,1.7394,1.7814,1.7353,1.7733,1.8249,1.8817,1.8893,1.8893,1.8893,1.8444,1.8171,1.8171,1.7653,1.7598,1.8052,1.8052,1.7773,1.7271,1.7271,1.698,1.6522,1.6522,1.6522,1.6522,1.6522,1.6522,1.3023,1.3086,1.3219,1.3787,1.4014,1.4181,1.434,1.4336,1.418,1.3633,1.3398,1.3203,1.293,1.2891,1.2891,1.2891,1.3238,1.3457,1.3457,1.3789,1.4165,1.4329,1.4926,0.0,0.0,0.0,0.0,0.0,0.0,1.6522,1.6522,1.6522,1.6522,1.6522,1.6522,1.6522,1.6522,1.6522,1.6522,1.6522,1.6522,1.6522,1.6522,1.6522,1.6522,1.6522,1.6879,1.6837,1.6522,1.6522,1.6522,1.6522,1.6879,1.698,1.7063,1.7639,1.7693,1.7558,1.7733,1.7693,1.7558,1.7558,1.7312,1.698,1.698,1.6752,1.6522,1.6522,1.6522,1.6522,1.6522,1.6522,1.6607,1.6921,1.698,1.7105,1.7476,1.7005,1.6522,1.6522,1.6522,1.6522,1.6522,1.6667,1.6837,1.7005,1.7353,1.7773,1.8249,1.8482,1.8817,1.9369,1.9406,1.9406,1.9406,1.9258,1.9118,1.9118,1.8626,1.8405,1.8626,1.8288,1.7854,1.7312,1.7312,1.7021,1.6522,1.6522,1.6522,1.6522,1.6522,1.6522,1.3223,1.3301,0.0,0.0,1.4238,1.4394,1.4531,1.457,1.4453,1.4023,1.3711,1.3469,1.3421,1.329,1.319,1.319,1.3552,1.3862,1.405,1.4468,1.4789,1.4971,1.5377,1.5688,0.0,0.0,0.0,0.0,0.0,0.0,1.6522,1.6522,1.6522,1.6522,1.6522,1.6522,1.6522,1.6522,1.6522,1.6522,1.6522,1.6522,1.6522,1.6522,1.6607,1.6795,1.7146,1.7105,1.6795,1.6964,1.7021,1.7063,1.7435,1.7598,1.7639,1.8171,1.8249,1.8131,1.8288,1.8249,1.8092,1.8092,1.7854,1.7585,1.7591,1.7203,1.6761,1.6791,1.6672,1.6522,1.6522,1.6625,1.6795,1.7005,1.7303,1.7644,1.7811,1.7303,1.6752,1.6752,1.6625,1.6565,1.6752,1.6752,1.6964,1.7517,1.7693,1.8092,1.8817,1.9043,1.9332,1.9654,1.9899,1.9856,1.9472,1.9649,1.9679,1.9472,1.908,1.8893,1.8893,1.8588,1.8013,1.7312,1.7312,1.7021,1.6522,1.6522,1.6522,1.6522,1.6522,1.6522,0.0,0.0,0.0,0.0,0.0,0.0,1.5078,0.0,1.4258,1.4723,1.4155,1.375,1.4312,1.4083,1.3836,1.3862,1.3862,1.405,1.4652,1.4744,1.4971,1.5555,1.562,1.5864,1.6436,0.0,0.0,0.0,1.6522,1.6522,1.6522,1.6522,1.6522,1.6522,1.6522,1.6522,1.6522,1.6522,1.6522,1.6522,1.6522,1.6522,1.6522,1.6522,1.6837,1.7312,1.7353,1.7353,1.7394,1.7894,1.8092,1.8092,1.8131,1.8131,1.8171,1.8741,1.8588,1.821,1.8741,1.8588,1.8159,1.8159,1.8187,1.8138,1.8222,1.784,1.7371,1.7403,1.7043,1.6615,1.6615,1.7015,1.724,1.6761,1.7454,1.8105,1.7626,1.7402,1.7365,1.7365,1.6879,1.6735,1.7282,1.738,1.7544,1.8108,1.8616,1.8921,1.8959,1.9398,1.972,1.972,2.0318,2.0279,1.9084,1.9565,1.9681,1.9017,1.895,1.895,1.895,1.895,1.8422,1.7406,1.7365,1.7115,1.6572,1.6547,1.6522,1.6522,1.6522,1.6522,1.2891,0.0,0.0,0.0,0.0,0.0,0.0,0.0,1.485,1.4993,1.5257,1.5214,1.4503,1.4747,1.5054,1.5108,1.5084,1.5174,1.5332,1.5732,1.6064,1.6238,1.6238,1.6324,1.6479,0.0,0.0,0.0,1.6522,1.6522,1.6522,1.6522,1.6522,1.6522,1.6522,1.6667,1.7063,1.7063,1.7063,1.7063,1.7063,1.7063,1.7063,1.7063,1.7394,1.7894,1.8288,1.8444,1.8444,1.821,1.8092,1.8131,1.8521,1.8703,1.8741,1.9295,1.9369,1.9295,1.9442,1.9693,1.9962,1.9962,1.9741,1.9403,1.9439,1.9037,1.8579,1.8629,1.8861,1.9103,1.9103,1.9232,1.9403,1.9614,1.9556,1.9494,1.9752,1.9486,1.9076,1.8684,1.7764,1.7534,1.9068,1.8934,1.8962,1.9973,1.9861,1.9769,2.0144,2.0333,2.0438,2.0438,2.1036,2.1296,2.0931,2.1109,2.1139,2.0931,2.0477,2.0206,2.0206,1.9754,1.9418,1.9205,1.9177,1.8946,1.8375,1.7117,1.6522,1.6522,1.6522,1.6522,0.0,0.0,0.0,0.0,0.0,0.0,1.4944,1.506,1.5133,0.0,1.5613,1.5684,1.5527,1.5536,1.5637,1.5913,1.5952,1.5952,1.5952,1.6281,1.6522,1.6522,1.6522,1.6522,1.6522,1.6522,1.6522,1.6522,1.6522,1.6522,1.6522,1.6522,1.6522,1.6522,1.6522,1.6752,1.7312,1.7312,1.7435,1.7639,1.7639,1.7639,1.7639,1.7639,1.7933,1.8444,1.8779,1.9043,1.9221,1.8893,1.8779,1.8817,1.9118,1.9258,1.9295,1.9551,1.969,1.972,2.0019,2.0198,2.0323,2.0587,2.0312,1.9927,2.0175,1.9888,1.9485,1.9773,1.9959,2.0029,1.9768,1.9855,2.0073,2.0159,2.0196,2.039,2.0696,2.0566,2.013,1.9547,1.8936,1.8904,2.0218,2.0104,2.0157,2.1094,2.09,2.0744,2.1087,2.1126,2.1126,2.1126,2.1724,2.1994,2.1724,2.1964,2.1994,2.1724,2.1315,2.0876,2.0387,2.0045,1.9636,1.9189,1.9189,1.9189,1.9118,1.8059,1.7339,1.6873,1.6622,1.6522,0.0,0.0,0.0,0.0,0.0,0.0,1.5933,1.5616,1.5488,0.0,1.5626,1.5705,1.683,1.6359,1.5937,1.6436,1.6522,1.6522,1.6522,1.6522,1.6522,1.6522,1.6522,1.6522,1.6522,1.6522,1.6522,1.6522,1.6522,1.6522,1.6522,1.6522,1.6522,1.6522,1.6522,1.6752,1.7312,1.7312,1.7598,1.8092,1.8092,1.8092,1.8092,1.8092,1.8366,1.8817,1.8855,1.9155,1.9617,1.969,1.969,1.969,1.9654,1.9654,1.969,1.9743,1.9707,1.9826,2.055,2.0401,1.9929,2.0707,2.0514,2.0158,2.0816,2.064,2.0351,2.1024,2.0862,2.0354,1.9754,1.9976,2.0196,1.971,2.0298,2.1028,2.1074,2.1074,2.0907,2.0351,2.0199,2.0387,2.1079,2.1133,2.1298,2.1824,2.1844,2.1814,2.1814,2.1814,2.1814,2.1814,2.2383,2.2532,2.1964,2.2443,2.2532,2.1934,2.1864,2.1316,2.0239,2.0152,1.962,1.8592,1.8523,1.878,1.9258,1.9163,1.855,1.7485,1.686,1.6565,0.0,0.0,0.0,0.0,0.0,0.0,1.6471,1.6592,1.6732,0.0,1.6598,1.6856,1.6527,1.6779,1.6916,1.6554,1.6522,1.6522,1.6522,1.6522,1.6522,1.6522,1.6522,1.6522,1.6522,1.6522,1.6522,1.6522,1.6522,1.6522,1.6522,1.6522,1.6522,1.6522,1.6522,1.6752,1.7312,1.7312,1.7598,1.8092,1.8092,1.8092,1.8092,1.8092,1.8171,1.8288,1.8703,1.8968,1.908,1.9515,1.969,1.9654,1.9221,1.9332,1.9713,1.9806,1.9788,1.9875,2.1089,2.1092,2.0789,2.1926,2.1844,2.1425,2.2147,2.2255,2.2304,2.2908,2.3009,2.2891,2.2761,2.2804,2.2848,2.2761,2.254,2.2341,2.2341,2.2341,2.2283,2.2169,2.1384,2.1223,2.2829,2.2676,2.2569,2.3161,2.2802,2.2473,2.2473,2.2473,2.2473,2.2473,2.3041,2.337,2.3251,2.334,2.337,2.3221,2.279,2.2409,2.2141,2.1657,2.1258,2.1023,2.055,2.0381,2.0452,1.9564,1.8735,1.8113,1.745,1.6921,0.0,0.0,0.0,1.7238,0.0,0.0,0.0,0.0,1.7289,1.7526,1.7219,1.702,1.7556,1.7272,1.6848,1.6572,1.6522,1.6522,1.6522,1.6522,1.6622,1.6923,1.6697,1.6522,1.6522,1.6522,1.6522,1.6522,1.6522,1.6522,1.6522,1.6522,1.6522,1.6522,1.6522,1.6752,1.7312,1.7312,1.7598,1.8092,1.8092,1.8249,1.8482,1.8482,1.8664,1.8893,1.9155,1.9295,1.9332,1.9617,1.9899,2.0161,1.9908,1.9945,2.0251,2.0646,2.0764,2.0852,2.1853,2.177,2.1405,2.2367,2.2226,2.1852,2.2512,2.292,2.3187,2.3493,2.361,2.3523,2.3231,2.3143,2.3143,2.3143,2.292,2.2785,2.3098,2.3143,2.3143,2.3143,2.2687,2.2507,2.3447,2.334,2.3251,2.355,2.334,2.3131,2.3131,2.3131,2.3131,2.3131,2.34,2.361,2.361,2.361,2.361,2.361,2.3319,2.3009,2.2694,2.2392,2.1927,2.1259,2.0944,2.0795,2.0795,2.0252,1.9476,1.8642,1.8029,1.7619,0.0,0.0,0.0,0.0,0.0,1.9506,0.0,0.0,0.0,0.0,0.0,0.0,0.0,0.0,0.0,0.0,0.0,0.0,0.0,1.6597,0.0,1.7149,1.6798,1.6572,1.6672,1.6759,1.6853,1.6848,1.6708,1.6658,1.6672,1.6658,1.6625,1.6625,1.6752,1.7021,1.7476,1.7476,1.7693,1.8249,1.8249,1.8482,1.8893,1.8893,1.908,1.9406,1.9479,1.9641,1.976,1.9833,2.0288,2.0887,2.0652,2.0721,2.0938,2.1515,2.1713,2.1802,2.2581,2.2336,2.1826,2.2611,2.2529,2.2179,2.274,2.3187,2.361,2.361,2.361,2.3493,2.3009,2.2875,2.2875,2.2875,2.2875,2.3009,2.3493,2.361,2.361,2.361,2.361,2.361,2.361,2.361,2.361,2.361,2.361,2.361,2.361,2.361,2.361,2.361,2.361,2.361,2.361,2.361,2.3566,2.3406,2.3406,2.3143,2.2558,2.2512,2.2067,2.1188,2.1042,2.0993,2.0993,2.0847,2.022,1.9204,1.8599,1.8298,0.0,0.0,0.0,0.0,2.0342,0.0,0.0,0.0,0.0,0.0,0.0,0.0,0.0,0.0,0.0,0.0,0.0,0.0,1.72,1.6848,1.6547,1.6597,1.6547,1.6722,1.7225,1.7738,1.7989,1.8025,1.7488,1.7238,1.7295,1.7248,1.7188,1.7188,1.7653,1.7933,1.8013,1.8013,1.8288,1.8817,1.8817,1.8855,1.8893,1.8893,1.8664,1.8288,1.8779,1.9353,1.9904,2.0398,2.0976,2.1476,2.041,2.0646,2.1625,2.1838,2.1787,2.1874,2.3079,2.2685,2.1909,2.3113,2.345,2.3406,2.345,2.3566,2.361,2.361,2.361,2.361,2.3523,2.3493,2.3493,2.3493,2.3493,2.3523,2.361,2.361,2.361,2.361,2.361,2.361,2.361,2.361,2.361,2.361,2.361,2.361,2.361,2.361,2.361,2.361,2.361,2.361,2.361,2.361,2.3363,2.283,2.2785,2.2483,2.1852,2.1805,2.2039,2.2466,2.1899,2.1615,2.1615,2.1059,2.0501,1.9877,1.9205,1.8647,0.0,0.0,0.0,0.0,0.0,0.0,2.0188,0.0,1.8857,0.0,0.0,0.0,0.0,0.0,0.0,0.0,1.6522,0.0,0.0,0.0,1.7067,0.0,0.0,0.0,1.6848,1.7678,1.8078,1.7748,1.7782,1.8017,1.8371,1.8359,1.8372,1.8357,1.8576,1.8491,1.8092,1.8092,1.821,1.8444,1.8444,1.8626,1.8893,1.8893,1.917,1.9624,1.9845,2.0342,2.0971,2.1198,2.1665,2.2233,2.1732,2.1832,2.2353,2.274,2.2848,2.2877,2.3404,2.3275,2.2891,2.3406,2.361,2.361,2.361,2.361,2.361,2.361,2.361,2.361,2.361,2.361,2.361,2.361,2.361,2.3699,2.4118,2.4208,2.4298,2.4687,2.4777,2.4777,2.4777,2.4118,2.361,2.361,2.361,2.361,2.361,2.361,2.361,2.361,2.361,2.361,2.361,2.361,2.3493,2.3231,2.3231,2.3098,2.2801,2.2483,2.2253,2.2086,2.15,2.1015,2.062,2.0346,2.0092,1.9885,1.9605,1.9355,1.8602,0.0,0.0,0.0,0.0,0.0,0.0,0.0,0.0,0.0,0.0,0.0,0.0,0.0,0.0,0.0,0.0,1.6888,0.0,0.0,0.0,0.0,0.0,0.0,0.0,1.8031,1.8472,1.8078,1.8262,1.8614,1.9054,1.9087,1.9066,1.9068,1.9211,1.9027,1.854,1.8528,1.8521,1.8521,1.8719,1.8998,1.9409,1.9584,2.0127,2.0976,2.0976,2.1365,2.1964,2.1964,2.2353,2.2921,2.2921,2.2921,2.2981,2.343,2.361,2.361,2.361,2.361,2.361,2.361,2.3729,2.3879,2.3879,2.3999,2.4118,2.3939,2.3879,2.3849,2.364,2.3729,2.3879,2.3879,2.4029,2.4298,2.4777,2.4851,2.5046,2.5525,2.5615,2.5615,2.5615,2.4657,2.3879,2.3879,2.3729,2.361,2.361,2.361,2.361,2.361,2.361,2.361,2.361,2.361,2.3523,2.3363,2.3054,2.2891,2.3069,2.2483,2.2021,2.171,2.1259,2.0818,2.032,2.0144,2.0042,2.0042,1.9914,1.9811,0.0,0.0,0.0,2.0112,0.0,0.0,0.0,0.0,2.019,0.0,0.0,0.0,0.0,0.0,0.0,0.0,0.0,0.0,0.0,0.0,0.0,0.0,0.0,0.0,0.0,1.9332,1.967,0.0,1.9216,1.8879,1.8981,1.8977,1.8989,1.9008,1.9433,1.9655,1.9627,1.9626,1.9654,1.9654,2.0311,2.0639,2.0669,2.1296,2.1635,2.1665,2.1665,2.2054,2.2694,2.2694,2.3011,2.358,2.358,2.358,2.358,2.358,2.361,2.361,2.361,2.361,2.361,2.361,2.4059,2.4552,2.4552,2.5046,2.5405,2.4731,2.4552,2.4403,2.3759,2.4088,2.4552,2.4552,2.5076,2.5555,2.5585,2.5585,2.5585,2.5615,2.5615,2.5615,2.5615,2.5046,2.4552,2.4552,2.4029,2.361,2.361,2.361,2.361,2.361,2.361,2.361,2.361,2.361,2.3319,2.274,2.1547,2.1161,2.1758,2.1161,2.1113,2.171,2.171,2.1663,2.1663,2.1064,2.0746,2.0746,2.0093,1.9811,0.0,0.0,2.0765,1.9987,0.0,0.0,0.0,0.0,0.0,0.0,0.0,0.0,0.0,0.0,0.0,0.0,0.0,0.0,0.0,0.0,0.0,0.0,0.0,0.0,0.0,0.0,0.0,1.988,2.0394,2.1175,2.2082,2.2085,2.2101,2.2061,2.1796,2.1473,2.106,2.1048,2.1006,2.1036,2.1246,2.1365,2.1365,2.1605,2.1934,2.2353,2.2353,2.2712,2.3281,2.3281,2.34,2.361,2.361,2.361,2.361,2.361,2.361,2.361,2.361,2.361,2.367,2.4148,2.4448,2.4672,2.5136,2.5435,2.5555,2.5345,2.5285,2.5226,2.4986,2.5106,2.5285,2.5285,2.5435,2.5734,2.6153,2.6243,2.6393,2.6811,2.6901,2.6901,2.6901,2.6363,2.5764,2.5345,2.5076,2.4926,2.4926,2.4926,2.4926,2.4926,2.4926,2.4926,2.4926,2.4537,2.4,2.3348,2.2891,2.2756,2.2935,2.2756,2.2575,2.2346,2.2346,2.1974,2.1113,2.0894,2.0547,2.0144,1.9888,1.9811,1.9861,2.0213,0.0,1.9936,1.9811,0.0,1.956,0.0,0.0,0.0,0.0,0.0,0.0,0.0,0.0,0.0,0.0,0.0,0.0,1.8968,0.0,0.0,0.0,0.0,0.0,0.0,0.0,2.018,2.1102,2.2181,0.0,2.3575,2.3665,2.3635,2.304,2.2507,2.2093,2.1853,2.1695,2.1695,2.1934,2.2054,2.2054,2.2263,2.2592,2.3011,2.3011,2.3221,2.361,2.361,2.361,2.361,2.361,2.3759,2.3939,2.3699,2.3759,2.3999,2.4238,2.4298,2.4388,2.4837,2.5136,2.5405,2.5824,2.6123,2.6243,2.6033,2.5944,2.5914,2.5674,2.5794,2.5944,2.5944,2.6123,2.6422,2.6841,2.6931,2.7051,2.755,2.761,2.761,2.761,2.723,2.6722,2.6063,2.5764,2.5615,2.5615,2.5615,2.5615,2.5615,2.5615,2.5615,2.5615,2.5226,2.4777,2.4358,2.3893,2.3589,2.3589,2.3093,2.2552,2.1973,2.1973,2.1475,2.0446,2.0446,2.0194,1.9811,1.9811,1.9811]},{"header":{"parameterUnit":"m.s-1","parameterCategory":1,"la1":30.6,"la2":29.2853,"lo1":-89.7004,"lo2":-87.6739,"dy":0.0162,"dx":0.0183,"nx":112,"ny":82,"refTime":"2024-09-29T18:00:00:Z","depth":0,"parameterNumber":3,"parameterNumberName":"V-component_of_WINDS"},"data":[0.0,0.0,0.0,0.0,0.0,0.0,0.0,0.0,0.0,0.0,0.0,0.0,0.0,0.0,0.0,0.0,0.0,0.0,0.0,0.0,0.0,0.0,0.0,0.0,0.0,0.0,0.0,0.0,0.0,0.0,0.0,0.0,0.0,0.0,0.0,0.0,0.0,0.0,0.0,0.0,0.0,0.0,0.0,0.0,0.0,0.0,0.0,0.0,0.0,0.0,0.0,0.0,0.0,0.0,0.0,0.0,0.0,0.0,0.0,0.0,0.0,0.0,0.0,0.0,0.0,0.0,0.0,0.0,0.0,0.0,0.0,0.0,0.0,0.0,0.0,0.0,0.0,0.0,0.0,0.0,0.0,0.0,0.0,0.0,0.0,0.0,0.0,0.0,0.0,0.0,-1.597,-1.7254,-1.9131,-2.0319,-2.0443,-2.086,-2.0444,-1.8829,0.0,0.0,0.0,0.0,0.0,0.0,0.0,0.0,0.0,0.0,0.0,0.0,0.0,0.0,0.0,0.0,0.0,0.0,0.0,0.0,0.0,0.0,0.0,0.0,0.0,0.0,0.0,0.0,0.0,0.0,0.0,0.0,0.0,0.0,0.0,0.0,0.0,0.0,0.0,0.0,0.0,0.0,0.0,0.0,0.0,0.0,0.0,0.0,0.0,0.0,0.0,0.0,0.0,0.0,0.0,0.0,0.0,0.0,0.0,0.0,0.0,0.0,0.0,0.0,0.0,0.0,0.0,0.0,0.0,0.0,0.0,0.0,0.0,0.0,0.0,0.0,0.0,0.0,0.0,0.0,0.0,0.0,0.0,0.0,0.0,0.0,0.0,0.0,0.0,0.0,0.0,0.0,0.0,0.0,0.0,0.0,0.0,0.0,0.0,0.0,0.0,0.0,0.0,0.0,-1.6263,-1.9739,-2.1271,-2.1936,-2.1669,-2.2519,-2.1976,-1.9427,0.0,0.0,0.0,0.0,0.0,0.0,0.0,0.0,0.0,0.0,0.0,0.0,0.0,0.0,0.0,0.0,0.0,0.0,0.0,0.0,0.0,0.0,0.0,0.0,0.0,0.0,0.0,0.0,0.0,0.0,0.0,0.0,0.0,0.0,0.0,0.0,0.0,0.0,0.0,0.0,0.0,0.0,0.0,0.0,0.0,0.0,0.0,0.0,0.0,0.0,0.0,0.0,0.0,0.0,0.0,0.0,0.0,0.0,0.0,0.0,0.0,0.0,0.0,0.0,0.0,0.0,0.0,0.0,0.0,0.0,0.0,0.0,0.0,0.0,0.0,0.0,0.0,0.0,0.0,0.0,0.0,0.0,0.0,0.0,0.0,0.0,0.0,0.0,0.0,0.0,0.0,0.0,0.0,0.0,0.0,0.0,0.0,0.0,0.0,0.0,0.0,0.0,0.0,-1.7285,-1.9208,-2.1926,-2.2859,-2.3169,-2.2939,-2.3531,-2.2837,-2.0246,-1.8512,0.0,0.0,0.0,0.0,0.0,0.0,0.0,0.0,0.0,0.0,0.0,0.0,0.0,0.0,0.0,0.0,0.0,0.0,0.0,0.0,0.0,0.0,0.0,0.0,0.0,0.0,0.0,0.0,0.0,0.0,0.0,0.0,0.0,0.0,0.0,0.0,0.0,0.0,0.0,0.0,0.0,0.0,0.0,0.0,0.0,0.0,0.0,0.0,0.0,0.0,0.0,0.0,0.0,0.0,0.0,0.0,0.0,0.0,0.0,0.0,0.0,0.0,0.0,0.0,0.0,0.0,0.0,0.0,0.0,0.0,0.0,0.0,0.0,0.0,0.0,0.0,0.0,0.0,0.0,0.0,0.0,0.0,0.0,0.0,0.0,0.0,0.0,0.0,0.0,0.0,0.0,0.0,0.0,0.0,0.0,0.0,0.0,0.0,0.0,0.0,0.0,0.0,-2.0561,-2.2146,-2.3307,-2.3866,-2.4174,-2.4024,-2.4126,-2.3252,-2.1054,-1.92,0.0,0.0,0.0,0.0,0.0,0.0,0.0,0.0,0.0,0.0,0.0,0.0,0.0,0.0,0.0,0.0,0.0,0.0,0.0,0.0,0.0,0.0,0.0,0.0,0.0,0.0,0.0,0.0,0.0,0.0,0.0,0.0,0.0,0.0,0.0,0.0,0.0,0.0,0.0,0.0,0.0,0.0,0.0,0.0,0.0,0.0,0.0,0.0,0.0,0.0,0.0,0.0,0.0,0.0,0.0,0.0,0.0,0.0,0.0,0.0,0.0,0.0,0.0,0.0,0.0,0.0,0.0,0.0,0.0,0.0,0.0,0.0,0.0,0.0,0.0,0.0,0.0,0.0,0.0,0.0,0.0,0.0,0.0,0.0,0.0,0.0,0.0,0.0,0.0,0.0,0.0,0.0,0.0,0.0,0.0,0.0,0.0,0.0,0.0,0.0,0.0,0.0,-2.1601,-2.365,-2.3271,-2.4133,-2.476,-2.4737,-2.4236,-2.3255,-2.1721,-1.9427,0.0,0.0,0.0,0.0,0.0,0.0,0.0,0.0,0.0,0.0,0.0,0.0,0.0,0.0,0.0,0.0,0.0,0.0,0.0,0.0,0.0,0.0,0.0,0.0,0.0,0.0,0.0,0.0,0.0,0.0,0.0,0.0,0.0,0.0,0.0,0.0,0.0,0.0,0.0,0.0,0.0,0.0,0.0,0.0,0.0,0.0,0.0,0.0,0.0,0.0,0.0,0.0,0.0,0.0,0.0,0.0,0.0,0.0,0.0,0.0,0.0,0.0,0.0,0.0,0.0,0.0,0.0,0.0,0.0,0.0,0.0,0.0,0.0,0.0,0.0,0.0,0.0,0.0,0.0,0.0,0.0,0.0,0.0,0.0,0.0,0.0,0.0,0.0,0.0,0.0,0.0,0.0,0.0,0.0,0.0,0.0,0.0,0.0,0.0,0.0,0.0,0.0,-2.0871,-2.2716,0.0,-2.3112,-2.3411,-2.3531,-2.3881,-2.3079,-2.0733,0.0,0.0,0.0,0.0,0.0,0.0,0.0,0.0,0.0,0.0,0.0,0.0,0.0,0.0,0.0,0.0,0.0,0.0,0.0,0.0,0.0,0.0,0.0,0.0,0.0,0.0,0.0,0.0,0.0,0.0,0.0,0.0,0.0,0.0,0.0,0.0,0.0,0.0,0.0,0.0,0.0,0.0,0.0,0.0,0.0,0.0,0.0,0.0,0.0,0.0,0.0,0.0,0.0,0.0,0.0,0.0,0.0,0.0,0.0,0.0,0.0,0.0,0.0,0.0,0.0,0.0,0.0,0.0,0.0,0.0,0.0,0.0,0.0,0.0,0.0,0.0,0.0,0.0,0.0,0.0,0.0,0.0,0.0,0.0,0.0,0.0,0.0,0.0,0.0,0.0,0.0,0.0,0.0,0.0,0.0,0.0,0.0,0.0,0.0,0.0,0.0,0.0,-1.8145,-2.0487,-2.2109,0.0,-2.2422,-2.2656,-2.2812,-2.3158,-2.2371,-2.0089,0.0,0.0,0.0,0.0,0.0,0.0,0.0,0.0,0.0,0.0,0.0,0.0,0.0,0.0,0.0,0.0,0.0,0.0,0.0,0.0,0.0,0.0,0.0,0.0,0.0,0.0,0.0,0.0,0.0,0.0,0.0,0.0,0.0,0.0,0.0,0.0,0.0,0.0,0.0,0.0,0.0,0.0,0.0,0.0,0.0,0.0,0.0,0.0,0.0,0.0,0.0,0.0,0.0,0.0,0.0,0.0,0.0,0.0,0.0,0.0,0.0,0.0,0.0,0.0,0.0,0.0,0.0,0.0,0.0,0.0,0.0,0.0,0.0,0.0,0.0,0.0,0.0,0.0,0.0,0.0,0.0,0.0,0.0,0.0,0.0,0.0,0.0,0.0,0.0,0.0,0.0,0.0,0.0,0.0,0.0,0.0,0.0,0.0,0.0,0.0,0.0,0.0,-1.8212,-2.0754,-2.2244,-2.1551,-2.2246,-2.2785,-2.2864,-2.2081,-2.1132,0.0,0.0,0.0,0.0,0.0,0.0,0.0,0.0,0.0,0.0,0.0,0.0,0.0,0.0,0.0,0.0,0.0,0.0,0.0,0.0,0.0,0.0,0.0,0.0,0.0,0.0,0.0,0.0,0.0,0.0,0.0,0.0,0.0,0.0,0.0,0.0,0.0,0.0,0.0,0.0,0.0,0.0,0.0,0.0,0.0,0.0,0.0,0.0,0.0,0.0,0.0,0.0,0.0,0.0,0.0,0.0,0.0,0.0,0.0,0.0,0.0,0.0,0.0,0.0,0.0,0.0,0.0,0.0,0.0,0.0,0.0,0.0,0.0,0.0,0.0,0.0,0.0,0.0,0.0,0.0,0.0,0.0,0.0,0.0,0.0,0.0,0.0,0.0,0.0,0.0,0.0,0.0,0.0,0.0,0.0,0.0,0.0,0.0,0.0,0.0,0.0,0.0,0.0,-1.7456,-2.0055,-2.1502,-2.0174,-2.0402,-2.0708,-2.0706,-2.1189,-2.0507,-1.8312,0.0,0.0,0.0,0.0,0.0,0.0,0.0,0.0,0.0,0.0,0.0,0.0,0.0,0.0,0.0,0.0,0.0,0.0,0.0,0.0,0.0,0.0,0.0,0.0,0.0,0.0,0.0,0.0,0.0,0.0,0.0,0.0,0.0,0.0,0.0,0.0,0.0,0.0,0.0,0.0,0.0,0.0,0.0,0.0,0.0,0.0,0.0,0.0,0.0,0.0,0.0,0.0,0.0,0.0,0.0,0.0,0.0,0.0,0.0,0.0,0.0,0.0,0.0,0.0,0.0,0.0,0.0,0.0,0.0,0.0,0.0,0.0,0.0,0.0,0.0,0.0,0.0,0.0,0.0,0.0,0.0,0.0,0.0,0.0,0.0,0.0,0.0,0.0,0.0,0.0,0.0,0.0,0.0,0.0,0.0,0.0,0.0,0.0,0.0,0.0,0.0,0.0,-1.6988,-1.8985,-2.0156,-1.9258,-1.9393,-1.9563,-1.9638,-2.0393,-2.0019,-1.8096,0.0,0.0,0.0,0.0,0.0,0.0,0.0,0.0,0.0,0.0,0.0,0.0,0.0,0.0,0.0,0.0,0.0,0.0,0.0,0.0,0.0,0.0,0.0,0.0,0.0,0.0,0.0,0.0,0.0,0.0,0.0,0.0,0.0,0.0,0.0,0.0,0.0,0.0,0.0,0.0,0.0,0.0,0.0,0.0,0.0,0.0,0.0,0.0,0.0,0.0,0.0,0.0,0.0,0.0,0.0,0.0,0.0,0.0,0.0,0.0,0.0,0.0,0.0,0.0,0.0,0.0,0.0,0.0,0.0,0.0,0.0,0.0,0.0,0.0,0.0,0.0,0.0,0.0,0.0,0.0,0.0,0.0,0.0,0.0,0.0,0.0,0.0,0.0,0.0,0.0,0.0,0.0,0.0,0.0,0.0,0.0,0.0,0.0,0.0,0.0,0.0,0.0,-1.6824,-1.7878,-1.8695,-1.8752,-1.8972,-1.9191,-1.9342,-1.9696,-1.9592,-1.8826,0.0,0.0,0.0,0.0,0.0,0.0,0.0,0.0,0.0,0.0,0.0,0.0,0.0,0.0,0.0,0.0,0.0,0.0,0.0,0.0,0.0,0.0,0.0,0.0,0.0,0.0,0.0,0.0,0.0,0.0,0.0,0.0,0.0,0.0,0.0,0.0,0.0,0.0,0.0,0.0,0.0,0.0,0.0,0.0,0.0,0.0,0.0,0.0,0.0,0.0,0.0,0.0,0.0,0.0,0.0,0.0,0.0,0.0,0.0,0.0,-1.8516,0.0,0.0,0.0,0.0,0.0,0.0,0.0,0.0,0.0,0.0,0.0,0.0,0.0,0.0,0.0,0.0,0.0,0.0,0.0,0.0,0.0,0.0,0.0,0.0,0.0,0.0,0.0,0.0,0.0,0.0,0.0,0.0,0.0,0.0,0.0,0.0,0.0,0.0,0.0,0.0,0.0,-1.6969,-1.8252,-1.8934,-1.8388,-1.8586,-1.8842,-1.9064,-1.9243,-1.9122,-1.8512,-1.8531,0.0,0.0,0.0,0.0,0.0,0.0,0.0,0.0,0.0,0.0,0.0,0.0,0.0,0.0,0.0,0.0,0.0,0.0,0.0,0.0,0.0,0.0,0.0,0.0,0.0,0.0,0.0,0.0,0.0,0.0,0.0,0.0,0.0,0.0,0.0,0.0,0.0,0.0,0.0,0.0,0.0,0.0,0.0,0.0,0.0,0.0,0.0,0.0,0.0,0.0,0.0,0.0,0.0,0.0,0.0,0.0,0.0,0.0,0.0,0.0,-1.961,0.0,0.0,0.0,0.0,0.0,0.0,0.0,0.0,0.0,0.0,0.0,0.0,0.0,0.0,0.0,0.0,0.0,0.0,0.0,0.0,0.0,0.0,0.0,0.0,0.0,0.0,0.0,0.0,0.0,0.0,0.0,0.0,0.0,0.0,0.0,0.0,0.0,0.0,0.0,0.0,-1.67,-1.7691,-1.8234,-1.8027,-1.8266,-1.8526,-1.8789,-1.9044,-1.9125,-1.8973,-1.8821,0.0,0.0,0.0,0.0,0.0,0.0,0.0,0.0,0.0,0.0,0.0,0.0,0.0,0.0,0.0,0.0,0.0,0.0,0.0,0.0,0.0,0.0,0.0,0.0,0.0,0.0,0.0,0.0,0.0,0.0,0.0,0.0,0.0,0.0,0.0,0.0,0.0,0.0,0.0,0.0,0.0,0.0,0.0,0.0,0.0,0.0,0.0,0.0,0.0,0.0,0.0,0.0,0.0,-1.6752,-1.6831,-1.6761,-1.697,-1.7071,-1.7143,-1.7932,-1.8924,-1.9833,-1.8299,0.0,0.0,0.0,0.0,0.0,0.0,0.0,0.0,0.0,0.0,0.0,0.0,0.0,0.0,0.0,0.0,0.0,0.0,0.0,0.0,0.0,0.0,0.0,0.0,-1.3775,-1.3973,0.0,0.0,0.0,0.0,0.0,0.0,0.0,0.0,0.0,0.0,0.0,0.0,-1.6497,-1.7017,-1.7415,-1.7749,-1.7992,-1.8246,-1.8526,-1.8893,-1.9204,-1.9485,-1.9035,-1.8777,0.0,0.0,0.0,0.0,0.0,0.0,0.0,0.0,0.0,0.0,0.0,0.0,0.0,0.0,0.0,0.0,0.0,0.0,0.0,0.0,0.0,0.0,0.0,0.0,0.0,0.0,0.0,0.0,0.0,0.0,0.0,0.0,-0.1877,-0.4008,0.0,0.0,0.0,0.0,0.0,0.0,0.0,0.0,0.0,0.0,0.0,0.0,0.0,-1.4571,-1.5472,-1.4995,-1.5061,-1.5648,-1.5715,-1.5507,-1.5075,-1.5986,-1.5934,-1.5124,-1.6229,0.0,-1.892,-1.8004,0.0,0.0,0.0,0.0,0.0,0.0,0.0,0.0,0.0,0.0,0.0,0.0,0.0,0.0,0.0,0.0,0.0,0.0,0.0,0.0,0.0,0.0,-1.301,-1.3057,-1.307,-1.3212,0.0,-1.4441,-1.4636,-1.4498,-1.4789,0.0,0.0,0.0,0.0,0.0,0.0,0.0,-1.7065,-1.7254,-1.7415,-1.7749,-1.7816,-1.7971,-1.8246,-1.851,-1.8771,-1.9051,-1.9339,-1.946,-1.9487,-1.8863,0.0,0.0,0.0,0.0,0.0,0.0,0.0,0.0,0.0,0.0,0.0,0.0,0.0,0.0,0.0,0.0,0.0,0.0,0.0,0.0,0.0,0.0,0.0,0.0,0.0,0.0,0.0,0.0,0.0,-0.1454,-0.4105,-0.6842,-0.7627,-0.8445,0.0,0.0,0.0,0.0,0.0,0.0,0.0,0.0,0.0,-1.1316,-1.1846,-1.2317,-1.276,-1.3293,-1.371,-1.4011,-1.4722,-1.4949,-1.4698,-1.5173,-1.5151,-1.4744,-1.5219,-1.5835,-1.6507,-1.6757,-1.7163,-1.7547,0.0,0.0,0.0,0.0,-1.6072,-1.5645,-1.4947,-1.4696,0.0,-1.3478,0.0,0.0,0.0,0.0,0.0,0.0,0.0,0.0,0.0,0.0,-1.3334,-1.2968,-1.2891,-1.2968,-1.3238,-1.3707,-1.4081,0.0,-1.5082,-1.5569,-1.5282,0.0,0.0,0.0,0.0,-1.5578,-1.66,-1.6747,-1.6952,-1.7439,-1.7509,-1.7693,-1.8149,-1.8328,-1.8565,-1.8984,-1.8998,-1.9097,-1.9261,-1.8812,-1.8343,0.0,0.0,0.0,0.0,0.0,0.0,0.0,0.0,0.0,0.0,0.0,0.0,0.0,0.0,0.0,0.0,0.0,0.0,0.0,0.0,0.0,0.0,0.0,0.0,0.0,0.0,0.0,0.0,-0.2364,-0.5012,-0.7482,-0.8042,-0.8693,0.0,0.0,0.0,0.0,0.0,0.0,-0.8146,-0.8659,-0.9037,-0.9235,-0.974,-1.0202,-1.0509,-1.1548,-1.2171,-1.258,-1.349,-1.405,-1.4258,-1.4258,-1.4258,-1.4258,-1.4376,-1.4468,-1.4584,-1.5659,-1.6292,-1.6441,-1.6175,-1.5653,-1.5122,-1.5514,-1.5325,-1.4849,-1.4338,-1.415,-1.4014,-1.3232,0.0,-1.272,-1.2199,0.0,0.0,0.0,0.0,-1.3622,-1.3611,-1.347,-1.3293,-1.2859,-1.2617,-1.2586,-1.2586,-1.3036,-1.3688,0.0,-1.5306,-1.575,-1.5229,0.0,0.0,0.0,0.0,-1.5229,-1.6184,-1.6301,-1.6565,-1.7224,-1.7296,-1.7532,-1.8057,-1.8184,-1.8353,-1.877,-1.8678,-1.8697,-1.8878,-1.8715,-1.8301,-1.7573,0.0,0.0,0.0,0.0,0.0,0.0,0.0,0.0,0.0,0.0,0.0,0.0,0.0,0.0,0.0,0.0,0.0,0.0,0.0,0.0,0.0,0.0,0.0,0.0,0.0,0.0,0.0,0.0,0.0,-0.1457,-0.2169,0.0,0.0,0.0,0.0,-0.5492,-0.6236,-0.6676,-0.6696,-0.674,-0.7074,-0.7771,-0.7824,-0.8501,-0.9806,-0.9909,-1.061,-1.1864,-1.1913,-1.2325,-1.2968,-1.2968,-1.2968,-1.3017,-1.36,-1.3862,-1.3956,-1.5151,-1.533,-1.488,-1.5419,-1.5262,-1.4676,-1.4122,-1.3888,-1.3773,-1.319,-1.2968,-1.2968,-1.29,-1.2606,-1.2227,-1.2207,-1.2187,0.0,0.0,-1.2567,-1.2949,-1.2968,-1.2626,-1.2266,-1.2266,-1.1934,-1.1665,-1.1665,-1.2144,-1.2979,0.0,-1.478,-1.5004,-1.5424,0.0,-1.4796,-1.5084,-1.512,-1.5389,-1.6219,-1.6301,-1.6565,-1.7224,-1.7296,-1.7439,-1.7772,-1.8057,-1.8225,-1.8246,-1.8487,-1.8622,-1.8622,-1.8622,-1.8436,-1.8093,-1.7319,0.0,0.0,0.0,0.0,0.0,0.0,0.0,0.0,0.0,0.0,0.0,0.0,0.0,0.0,0.0,0.0,0.0,0.0,0.0,0.0,0.0,0.0,0.0,0.0,0.0,0.0,0.0,0.0,-0.1645,-0.2445,0.0,-0.453,-0.5179,-0.5458,-0.5453,-0.5295,-0.5445,-0.5873,-0.6372,-0.6912,-0.7676,-0.8156,-0.8633,-0.9159,-0.9562,-1.0269,-1.1166,-1.1616,-1.2178,-1.2891,-1.2891,-1.2891,-1.292,-1.3162,-1.3238,-1.3286,-1.4097,-1.456,-1.4698,-1.4514,-1.4329,-1.405,-1.343,-1.3238,-1.319,-1.2968,-1.2891,-1.2891,-1.2891,-1.2464,-1.1925,-1.1925,-1.1925,-1.1925,-1.1925,-1.2396,-1.2812,-1.2539,-1.2344,-1.2102,-1.1875,-1.1724,-1.1606,-1.1606,-1.2062,-1.2659,-1.3173,-1.3853,-1.4245,-1.3961,-1.4366,-1.4789,-1.5053,-1.509,-1.53,-1.5883,-1.5998,-1.6246,-1.6901,-1.6977,-1.7199,-1.7749,-1.7883,-1.8014,-1.8205,-1.7679,-1.7685,-1.8313,-1.75,-1.7231,-1.758,-1.7093,-1.639,0.0,0.0,0.0,0.0,0.0,0.0,0.0,0.0,0.0,0.0,0.0,0.0,0.0,0.0,0.0,0.0,0.0,0.0,0.0,0.0,0.0,0.0,0.0,0.0,0.0,0.0,-0.0269,-0.1998,-0.2611,-0.344,-0.4663,-0.4992,-0.5054,-0.4827,-0.4622,-0.4677,-0.5164,-0.5609,-0.6317,-0.7289,-0.7783,-0.8315,-0.8804,-0.9263,-0.9821,-1.0458,-1.1166,-1.1832,-1.2559,-1.2774,-1.2891,-1.2891,-1.2891,-1.2891,-1.292,-1.3334,-1.3742,-1.4071,-1.3862,-1.3695,-1.3457,-1.3065,-1.2891,-1.2891,-1.2891,-1.2891,-1.2871,-1.2608,-1.2344,-1.2129,-1.1864,-1.1981,-1.2178,-1.2178,-1.2396,-1.2598,-1.2258,-1.1966,-1.1699,-1.1406,-1.1273,-1.1175,-1.1175,-1.1489,-1.1778,-1.1778,-1.3013,-1.3879,-1.3217,-1.3876,-1.461,-1.4836,-1.4907,-1.512,-1.5712,-1.5799,-1.5996,-1.6596,-1.6649,-1.6901,-1.7589,-1.7635,-1.7772,-1.8057,-1.7429,-1.7373,-1.8023,-1.7199,-1.6881,-1.7126,-1.6473,-1.5915,-1.5452,0.0,0.0,0.0,0.0,0.0,0.0,0.0,0.0,0.0,0.0,0.0,0.0,0.0,0.0,0.0,0.0,0.0,0.0,0.0,0.0,0.0,0.0,0.0,0.0265,0.0638,0.0269,-0.1887,-0.2174,-0.2452,-0.3178,-0.4015,-0.4181,-0.3456,-0.407,-0.4519,-0.4519,-0.4519,-0.5171,-0.6534,-0.6642,-0.7343,-0.8804,-0.8804,-0.9159,-0.9821,-1.0458,-1.1116,-1.1814,-1.2559,-1.2871,-1.2891,-1.2891,-1.2891,-1.2891,-1.2891,-1.2891,-1.2968,-1.3552,-1.3409,-1.2891,-1.2891,-1.2891,-1.2891,-1.2891,-1.2871,-1.2774,-1.203,-1.2295,-1.2725,-1.1981,-1.2295,-1.2871,-1.2852,-1.2511,-1.218,-1.2141,-1.1543,-1.0898,-1.0898,-1.0566,-1.0273,-1.0273,-1.0273,-1.0273,-1.0273,-1.2307,-1.3855,-1.334,-1.3717,-1.4191,-1.4424,-1.4501,0.0,-1.5683,-1.5799,-1.5942,-1.6274,-1.6328,-1.6565,-1.7248,-1.732,-1.7439,-1.7749,-1.7772,-1.7772,-1.7749,-1.7749,-1.7448,-1.6837,-1.5522,-1.4917,-1.4998,0.0,0.0,0.0,0.0,0.0,0.0,0.0,0.0,0.0,0.0,0.0,0.0,0.0,0.0,0.0,0.0,0.0,0.0,0.0,0.0,0.0,0.3624,0.3037,0.106,0.0489,-0.0111,-0.1283,-0.1397,-0.1676,-0.2452,-0.3178,-0.3566,-0.3345,-0.407,-0.4519,-0.4519,-0.4944,-0.5655,-0.6588,-0.7128,-0.7836,-0.8804,-0.8804,-0.9159,-0.9821,-0.9961,-1.0661,-1.1814,-1.203,-1.2393,-1.2891,-1.2891,-1.2891,-1.2891,-1.2891,-1.2891,-1.2939,-1.3065,-1.3065,-1.2891,-1.2891,-1.2891,-1.2891,-1.2891,-1.2559,-1.208,-1.1864,-1.1616,-1.1334,-1.1116,-1.1566,-1.2024,-1.173,-1.1931,-1.2025,-1.1445,-1.1094,-1.084,-1.0527,-1.0117,-0.9805,-0.9805,-0.9805,-0.9805,-0.9805,-1.0922,-1.1932,-1.2173,-1.2902,-1.3591,-1.398,-1.431,0.0,-1.5239,-1.5566,-1.5996,-1.6623,-1.6644,-1.6825,-1.7272,-1.7509,-1.7496,-1.7076,-1.6811,-1.6769,-1.7076,-1.6773,-1.6624,-1.6755,-1.6398,-1.5802,0.0,0.0,0.0,0.0,0.0,0.0,0.0,0.0,0.0,0.0,0.0,0.0,0.0,0.0,0.0,0.0,0.0,0.0,0.0,0.0,0.0,0.0,0.3721,0.3415,0.2219,0.1378,0.0556,-0.0492,-0.0886,-0.1277,-0.1695,-0.2434,-0.2841,-0.2841,-0.3566,-0.4125,-0.4463,-0.4897,-0.5382,-0.6091,-0.6858,-0.761,-0.8315,-0.8646,-0.9015,-0.9368,-0.9666,-1.0218,-1.0965,-1.1566,-1.203,-1.2442,-1.258,-1.2715,-1.2871,-1.2695,-1.2715,0.0,0.0,0.0,0.0,0.0,-1.2891,-1.2891,-1.2891,-1.2393,-1.1765,-1.1466,-1.1116,-1.073,-1.0348,-1.0829,-1.149,-1.1139,-1.1348,-1.1562,-1.1035,-1.0645,-1.0312,-1.0059,-0.9687,-0.934,-0.934,-0.9476,-0.9592,-0.9592,-1.0372,0.0,-1.1712,-1.2437,-1.3138,-1.3789,-1.4084,-1.4438,-1.5029,-1.5359,-1.574,-1.6328,-1.6382,-1.6512,-1.685,-1.7052,0.0,0.0,0.0,-1.6686,-1.7189,-1.6815,0.0,0.0,0.0,0.0,0.0,0.0,0.0,0.0,-1.4625,-1.4014,0.0,0.0,0.0,0.0,0.0,0.0,0.0,0.0,0.0,0.0,0.0,0.0,0.0,0.0,0.0,0.0,0.3744,0.3456,0.3345,0.2666,0.1697,0.0265,-0.0545,-0.0989,-0.0958,-0.1635,-0.2057,-0.2063,-0.2841,-0.3622,-0.4346,0.0,0.0,0.0,0.0,-0.6966,-0.7664,-0.8421,-0.8804,-0.8804,-0.9406,-0.9769,-0.9961,-1.1115,-1.1693,-1.184,-1.1997,-1.2317,-1.2715,-1.227,-1.2433,-1.2891,-1.2891,-1.2891,-1.2891,-1.2891,-1.2822,-1.2774,-1.2774,0.0,0.0,-1.0864,-1.0661,-1.0394,-0.9616,-1.0188,-1.1053,-1.0759,-1.0809,-1.0879,-1.0801,-1.0157,-0.9592,-0.9534,-0.9238,-0.8945,-0.8945,-0.9219,-0.9456,-0.9456,-1.0156,-1.0946,-1.1461,-1.2057,-1.2801,-1.3689,-1.3855,-1.4149,-1.4876,-1.5029,-1.5269,-1.5711,0.0,0.0,-1.6274,-1.6328,-1.6463,-1.6675,-1.6765,-1.7087,-1.7757,-1.7441,-1.7484,-1.8068,-1.7294,-1.693,-1.691,-1.6585,-1.6432,-1.6497,-1.5054,-1.4229,0.0,0.0,0.0,0.0,0.0,0.0,0.0,0.0,0.0,0.0,0.0,0.0,0.0,0.0,0.0,0.4158,0.424,0.407,0.34,0.2667,0.1868,0.1007,0.0214,-0.0214,-0.0213,-0.0855,-0.13,-0.1337,-0.2619,-0.34,-0.3511,-0.4125,-0.4787,-0.5483,-0.6199,-0.6966,-0.7664,-0.8421,-0.8804,-0.8804,0.0,0.0,-1.061,-1.0516,-1.1125,-1.2071,-1.1378,-1.1363,-1.1836,-1.1611,-1.2082,-1.2891,-1.2891,-1.2891,-1.2891,-1.2891,-1.251,-1.203,-1.203,-1.1216,-1.0167,-1.0064,-0.9614,-0.9207,-0.9233,-0.9768,0.0,-1.011,-1.0456,-1.0762,-1.0021,-0.9709,-0.9515,-0.9199,-0.8809,-0.8528,-0.8528,-0.8555,-0.8613,-0.8613,-0.9032,-0.9551,-1.0008,-1.1457,-1.2685,-1.3267,-1.3648,-1.3954,-1.4117,-1.469,-1.524,-1.5593,-1.5994,-1.6219,-1.6301,-1.657,-1.6517,-1.5996,-1.6455,-1.7031,-1.7666,-1.7151,-1.6964,-1.7328,-1.7026,-1.6529,-1.583,-1.6679,-1.6876,-1.6497,-1.6195,-1.5483,0.0,0.0,0.0,0.0,0.0,0.0,0.0,0.0,0.0,0.0,0.0,0.5291,0.4862,0.0,0.4326,0.4212,0.4307,0.4193,0.3809,0.3061,0.217,0.1241,0.0466,0.0,0.0,-0.0308,-0.0683,-0.1087,-0.1796,-0.2575,-0.3284,-0.3732,-0.4291,-0.4999,-0.5655,-0.6416,-0.7128,-0.7889,-0.8421,-0.8804,-0.8804,-0.9075,-0.9617,-0.9748,-1.0059,-1.0516,-1.0489,-1.0742,-1.1211,-1.142,-1.1784,-1.2273,-1.2273,-1.2204,-1.2168,-1.2192,-1.1864,-1.1284,-1.1284,-1.062,-0.9704,-0.9426,-0.8898,-0.836,-0.8338,-0.8974,-0.9596,-0.9351,-0.994,-1.0449,-0.9768,-0.9437,-0.9219,-0.8789,-0.8359,-0.8047,-0.8047,-0.8223,-0.8411,-0.8411,-0.8711,-0.9173,-0.9621,-1.0643,-1.1626,-1.2387,-1.2905,-1.3353,-1.3822,-1.4438,-1.4939,-1.5301,-1.5767,-1.6052,-1.6052,-1.6191,-1.6163,-1.5827,-1.6069,-1.6517,-1.7174,-1.6876,-1.6806,-1.7093,-1.6752,-1.6426,-1.5981,-1.6347,-1.6472,-1.6479,-1.6194,-1.5555,0.0,0.0,0.0,0.0,0.0,0.0,0.0,0.0,0.7709,0.6607,0.6298,0.6084,0.5468,0.5162,0.4915,0.4584,0.4406,0.4303,0.4147,0.3385,0.2458,0.1331,0.0596,0.0148,0.0,0.0,-0.0254,-0.084,-0.0999,-0.1599,-0.2811,-0.3199,-0.3655,-0.4236,-0.5054,-0.5801,-0.6367,-0.7222,-0.7887,-0.8475,-0.8579,-0.8561,-0.8531,-0.8985,-0.9094,-0.899,-0.9563,-1.0088,-1.0534,-1.1079,-1.1441,-1.1587,-1.1378,-1.1179,-1.1031,-1.1331,-1.106,-1.0553,-1.0481,-0.9967,-0.9282,-0.8835,-0.8334,-0.7869,-0.7698,-0.8253,-0.8915,-0.8643,-0.9204,-0.9753,-0.9259,-0.8879,-0.8518,-0.8118,-0.7757,-0.748,-0.7569,-0.7867,-0.818,-0.8242,-0.8535,-0.8882,-0.9253,-0.9638,-1.0351,-1.1628,-1.2183,-1.2808,-1.3656,-1.4117,-1.4501,-1.4814,-1.5359,-1.5712,-1.5799,-1.5799,-1.5799,-1.5799,-1.5918,-1.6189,-1.6697,-1.6604,-1.6652,-1.6785,-1.6271,-1.6018,-1.6047,-1.5707,-1.5819,-1.6328,-1.5719,-1.5194,-0.1811,0.4992,1.0477,1.0625,1.0644,1.0074,0.0,0.0,0.737,0.7004,0.6517,0.6214,0.6237,0.5825,0.5471,0.5576,0.5179,0.4584,0.3929,0.3222,0.2443,0.1627,0.1124,0.0575,0.0048,0.0,-0.0049,-0.0101,-0.0711,-0.1183,-0.1331,-0.2662,-0.3404,-0.345,-0.4772,-0.5462,-0.5466,-0.671,-0.7321,-0.7279,-0.7775,-0.829,-0.8833,-0.855,-0.8741,-0.9245,-0.8981,-0.9098,-0.952,-1.0034,-1.0766,-1.1523,-1.0606,-0.9984,-0.9666,-1.0534,-1.0418,-0.974,-0.9298,-0.8663,-0.8112,-0.8017,-0.797,-0.7916,-0.8148,-0.8312,-0.8351,-0.8268,-0.8341,-0.8285,-0.7552,-0.7347,-0.7211,-0.6822,-0.6673,-0.673,-0.7089,-0.7214,-0.734,-0.7704,-0.7802,-0.7871,-0.793,-0.8307,-0.934,-1.1491,-1.216,-1.2614,-1.3191,-1.3682,-1.3986,-1.4019,-1.4721,-1.5359,-1.577,-1.5799,-1.5799,-1.5799,-1.6308,-1.6637,-1.6726,-1.6386,-1.6002,-1.5697,-1.5154,-1.4716,-1.4384,-1.479,-1.5241,-1.5793,-1.5145,-1.4824,0.2972,0.9123,1.3437,1.3031,1.2539,1.1634,0.9505,0.8819,0.8508,0.809,0.7294,0.671,0.6854,0.6134,0.5573,0.0,0.5241,0.4693,0.4351,0.3577,0.2836,0.2195,0.1968,0.1461,0.0487,0.0499,0.0374,0.0049,-0.0293,-0.0646,-0.1081,-0.2056,-0.2796,-0.3151,-0.414,-0.4782,-0.5165,-0.5758,-0.6362,-0.7098,-0.7338,-0.7675,-0.8098,-0.7926,-0.8077,-0.848,-0.8297,-0.8684,-0.9395,-0.9312,-0.9689,-1.033,-0.9917,-0.96,-0.9412,-0.9527,-0.9172,-0.8614,-0.8397,-0.815,-0.7843,-0.749,-0.7357,-0.7375,-0.7501,-0.7672,-0.7795,-0.7741,-0.7862,-0.7837,-0.7248,-0.7114,-0.6982,-0.6601,-0.6669,-0.691,-0.7059,-0.7285,-0.751,-0.7656,-0.7705,-0.7705,-0.7705,-0.8049,-0.8764,-1.0051,-1.1027,-1.1914,-1.2683,-1.3421,-1.3986,-1.4214,-1.4752,-1.5179,-1.5389,-1.5654,-1.5799,-1.5799,-1.6039,-1.604,-1.5798,-1.5889,-1.5492,-1.4593,-1.4593,-1.4417,-1.4097,-1.4324,-1.4702,-1.5216,-1.4305,-1.3857,0.7142,1.1248,1.3823,1.4232,1.391,1.2939,1.0815,0.9982,0.9507,0.8819,0.7945,0.7247,0.7238,0.6483,0.5914,0.6145,0.5505,0.4987,0.5088,0.4278,0.35,0.3006,0.2894,0.2437,0.1296,0.1036,0.0717,0.0281,0.0093,-0.0236,-0.0744,-0.1388,-0.2091,-0.2763,-0.3418,-0.4094,-0.4727,-0.4921,-0.5462,-0.6357,-0.6544,-0.6774,-0.7127,-0.7304,-0.7487,-0.7655,-0.7655,-0.8193,-0.9047,-0.8643,-0.8805,-0.9288,-0.911,-0.907,-0.899,-0.8423,-0.8193,-0.807,-0.7739,-0.7655,-0.7572,-0.7154,-0.6985,-0.6959,-0.6934,-0.7029,-0.7156,-0.698,-0.7051,-0.7121,-0.6705,-0.6609,-0.6514,-0.6246,-0.6397,-0.6639,-0.676,-0.7017,-0.7273,-0.748,-0.7539,-0.7569,-0.7676,-0.7947,-0.8334,-0.8974,-0.9907,-1.0945,-1.2164,-1.3141,-1.3802,-1.4065,-1.4485,-1.4814,-1.4937,-1.5269,-1.5477,-1.5595,-1.5507,-1.5359,-1.509,-1.5209,-1.4845,-1.3921,-1.4052,-1.4032,-1.3871,-1.3871,-1.4148,-1.4638,-1.3619,-1.3166,1.0355,1.1524,1.2048,1.3152,1.3574,1.3149,1.1045,1.0366,0.9883,0.8911,0.8244,0.7771,0.7464,0.7067,0.6863,0.7107,0.6322,0.5786,0.6112,0.5254,0.4461,0.4184,0.3937,0.3424,0.0,0.1511,0.0898,0.0895,0.0346,0.0,-0.0048,-0.0716,-0.1405,-0.2009,-0.2763,-0.3355,-0.3846,-0.44,-0.4633,-0.4491,-0.5058,-0.5674,-0.6276,-0.6787,-0.7027,-0.7027,-0.7027,-0.7363,-0.7961,-0.7919,-0.8234,-0.8683,-0.8152,-0.7961,-0.7878,-0.728,-0.7724,-0.8521,-0.7391,-0.7027,-0.7027,-0.7027,-0.6985,-0.6974,-0.668,-0.6639,-0.6505,-0.5905,-0.5766,-0.5699,-0.5435,-0.5354,-0.5354,-0.534,-0.534,-0.5467,-0.5859,-0.5952,-0.6183,-0.6969,-0.7118,-0.7237,-0.7627,-0.7705,-0.8008,-0.8848,-0.9085,-0.9814,-1.1604,-1.2645,-1.3175,-1.3037,-1.3576,-1.4084,-1.4501,-1.4533,-1.4721,-1.509,-1.4752,-1.4721,-1.5059,-1.4374,-1.3921,-1.3888,-1.3446,-1.3232,-1.3223,-1.3223,-1.3534,-1.4097,-1.3406,-1.3127,1.1086,1.2607,1.3859,1.5138,1.4634,1.3448,1.1873,1.1124,1.051,0.9766,0.9194,0.8805,0.8689,0.8035,0.7676,0.8077,0.6976,0.6225,0.6668,0.5688,0.4883,0.4802,0.4871,0.0,0.0,0.0,0.0,0.0939,0.0708,0.0445,0.0,-0.0595,-0.1058,-0.1258,-0.228,-0.2906,-0.305,-0.3688,-0.4106,-0.443,-0.5437,-0.6167,-0.6732,-0.6943,-0.6985,-0.6985,-0.6985,-0.7321,-0.7878,-0.7489,-0.7655,-0.8136,-0.7729,-0.7559,-0.7529,-0.715,-0.7228,-0.7485,-0.6946,-0.6734,-0.6707,-0.6506,-0.6573,-0.668,-0.6424,-0.6159,-0.5959,-0.5772,-0.5571,-0.5397,-0.5336,-0.5309,-0.5309,-0.5309,-0.5498,-0.5797,-0.6213,-0.6518,-0.685,-0.7403,-0.751,-0.7539,-0.7676,-0.7705,-0.7997,-0.8887,-0.9776,-1.0608,-1.1263,-1.2141,-1.2718,-1.267,-1.3393,-1.3954,-1.4084,-1.4342,-1.4564,-1.469,-1.4564,-1.4438,-1.431,-1.431,-1.4019,-1.3446,-1.3581,-1.3514,-1.3198,-1.3198,-1.3134,-1.3022,-1.2491,-1.2061,1.0774,1.2443,1.394,1.5387,1.5051,1.4002,1.2666,1.2042,1.1452,1.0514,0.9852,0.9433,0.9323,0.8363,0.7843,0.8513,0.7595,0.6976,0.7512,0.6653,0.5871,0.5803,0.5756,0.562,0.0,0.0,0.0,0.1917,0.1517,0.1029,0.0359,-0.0045,-0.0447,-0.0895,-0.165,-0.2273,-0.2716,-0.3081,-0.3568,-0.4132,-0.5091,-0.5867,-0.6422,-0.6592,-0.6816,-0.6985,-0.6985,-0.7238,-0.753,-0.7154,-0.7169,-0.7426,-0.7208,-0.7049,-0.6957,-0.6753,-0.6643,-0.6528,-0.6484,-0.6478,-0.6438,-0.625,-0.6317,-0.6424,-0.6129,-0.5865,-0.5691,-0.5585,-0.5424,-0.5309,-0.5309,-0.5309,-0.5309,-0.5309,-0.5498,-0.5765,-0.5998,-0.6275,-0.6579,-0.6987,-0.7047,-0.7136,-0.7451,-0.7848,-0.832,-0.8711,-0.9918,-1.0814,-1.1021,-1.1734,-1.2292,-1.243,-1.3183,-1.3648,-1.3648,-1.3888,-1.4117,-1.4278,-1.4117,-1.3986,-1.3888,-1.3986,-1.3782,-1.3198,-1.348,-1.348,-1.3198,-1.3198,-1.2955,-1.2508,-1.2186,-1.1653,0.973,1.1292,1.2481,1.4024,1.4795,1.48,1.3379,1.3005,1.2583,1.1088,1.022,0.9662,0.9389,0.8182,0.7589,0.8593,0.8175,0.7948,0.8665,0.8016,0.7356,0.0,0.0,0.0,0.0,0.0,0.0,0.373,0.0,0.1743,0.0984,0.0895,0.0358,-0.076,-0.085,-0.1431,-0.2583,-0.2672,-0.2987,-0.3626,-0.4132,-0.4735,-0.5288,-0.5867,-0.6422,-0.6932,-0.6945,-0.6945,-0.6974,-0.6974,-0.6814,-0.656,-0.6546,-0.6411,-0.6169,-0.6156,-0.5967,-0.5731,-0.6048,-0.6156,-0.6169,-0.6156,-0.6156,-0.6115,-0.5785,-0.5691,-0.5638,-0.5357,-0.5309,-0.5309,-0.5309,-0.5309,-0.5309,-0.5309,-0.5309,-0.5309,-0.5309,-0.534,-0.5467,-0.5859,-0.5937,-0.6183,-0.694,-0.813,-0.8834,-0.8477,-0.9453,-1.0419,-1.0826,-1.1421,-1.1971,-1.2357,-1.2897,-1.3198,-1.3198,-1.3198,-1.3378,-1.3822,-1.3446,-1.3378,-1.3822,-1.3446,-1.3198,-1.3198,-1.3198,-1.3198,-1.3163,-1.3163,-1.292,-1.2437,-1.2437,-1.1909,1.0318,1.2064,1.3764,1.4494,1.4793,1.4667,1.3728,1.3257,1.2773,1.1913,1.0952,1.024,1.0082,0.9583,0.9245,0.9335,0.9221,0.0,0.9279,0.8745,0.0,0.8285,0.0,0.7643,0.7361,0.6829,0.0,0.0,0.4029,0.2667,0.1606,0.1163,0.076,0.0447,-0.0447,-0.1029,-0.1341,-0.2228,-0.2981,-0.3554,-0.4125,-0.4663,-0.5137,-0.5397,-0.5666,-0.5886,-0.6003,-0.6178,-0.6411,-0.6411,-0.6371,-0.629,-0.6025,-0.5892,-0.5798,-0.5618,-0.5484,-0.5397,-0.551,-0.5638,-0.5785,-0.5605,-0.5651,-0.5772,-0.5478,-0.5397,-0.5371,-0.5336,-0.5309,-0.5309,-0.5309,-0.5309,-0.5309,-0.5309,-0.5309,-0.5372,-0.5672,-0.5734,-0.5859,-0.6275,-0.6336,-0.6427,-0.6609,-0.7691,-0.8521,-0.841,-0.9197,-0.9966,-1.0453,-1.1289,-1.1977,-1.2423,-1.2891,-1.3198,-1.3198,-1.3198,-1.3267,-1.3369,-1.3267,-1.3267,-1.3369,-1.3267,-1.3198,-1.3198,-1.3198,-1.3025,-1.2685,-1.2685,-1.2234,-1.1394,-1.1394,-1.1057,1.047,1.18,1.3074,1.3735,1.4053,1.4121,1.3733,1.3718,1.36,1.2976,1.2042,1.1318,1.1102,1.0559,1.02,0.0,0.0,0.0,1.0157,0.9509,0.903,0.0,0.8828,0.0,0.8427,0.7853,0.7231,0.0,0.503,0.3571,0.2578,0.2006,0.1431,0.0895,0.0224,-0.0358,-0.0895,-0.2095,-0.2822,-0.3067,-0.363,-0.4177,-0.4636,-0.4712,-0.5002,-0.5527,0.0,-0.585,-0.6196,-0.6196,-0.6115,-0.5945,-0.5785,-0.5638,-0.5471,-0.5106,-0.4992,-0.496,-0.48,-0.4832,-0.4961,-0.4978,-0.5093,-0.5161,-0.4836,-0.4736,-0.4736,-0.4736,-0.4736,-0.4736,-0.4736,-0.4736,-0.4736,-0.4736,-0.4736,-0.482,-0.5232,-0.5327,-0.5453,-0.589,-0.6402,-0.6782,-0.6782,-0.7975,-0.8925,-0.8925,-0.9483,-1.0089,-1.0605,-1.0974,-1.1431,-1.2126,-1.2437,-1.2685,-1.2861,-1.2896,-1.299,-1.3198,-1.3198,-1.3198,-1.3198,-1.3198,-1.3198,-1.3198,-1.3198,-1.2965,-1.2508,-1.2508,-1.1982,-1.1019,-1.1019,-1.0753,1.0268,1.0908,1.1443,1.2378,1.304,1.3552,1.3701,1.4269,1.4593,1.4029,1.322,1.248,1.2114,1.1342,1.0857,1.1206,0.0,1.0766,1.1153,1.039,0.9843,0.99,0.9506,0.9257,0.9257,0.8716,0.8107,0.7507,0.6023,0.4726,0.3767,0.324,0.2357,0.1163,0.1073,0.0492,-0.0671,-0.1784,-0.2312,-0.2305,-0.2888,-0.3377,-0.3771,-0.3834,-0.4385,-0.5224,-0.5222,0.0,-0.5894,-0.5894,-0.5737,-0.5482,-0.5482,-0.5339,-0.5087,-0.466,-0.45,-0.4468,-0.4123,-0.3993,-0.4058,-0.4403,-0.45,-0.4436,-0.4123,-0.3993,-0.3993,-0.3993,-0.3993,-0.3993,-0.3993,-0.3993,-0.3993,-0.3993,-0.3993,-0.4091,-0.4436,-0.4564,-0.4736,-0.5119,-0.6144,-0.6917,-0.6917,-0.8228,-0.9317,-0.9317,-0.9772,-1.0235,-1.0639,-1.0552,-1.083,-1.1704,-1.1822,-1.1945,-1.2365,-1.2401,-1.2615,-1.3094,-1.3094,-1.3129,-1.3198,-1.3198,-1.3198,-1.3198,-1.3198,-1.2955,-1.2401,-1.2401,-1.1872,-1.0905,-1.0905,-1.0677,0.9389,0.9976,1.0702,1.1904,1.2853,1.3662,1.4355,1.457,0.0,1.4552,1.3717,1.2857,1.2488,1.2079,1.1703,1.1268,1.157,1.1917,1.2271,1.1806,1.1583,0.0,1.0863,1.0018,1.0018,0.9157,0.0,0.0,0.0,0.6592,0.5082,0.4422,0.3585,0.2441,0.1914,0.1294,0.0582,-0.0134,-0.0698,-0.1173,-0.2176,-0.2606,-0.2531,-0.3021,-0.3419,-0.3693,-0.3876,0.0,-0.4371,-0.4371,-0.435,-0.4307,-0.4307,-0.4253,-0.4221,-0.4123,-0.4091,-0.4091,-0.4026,-0.3993,-0.4026,-0.4091,-0.4091,-0.4091,-0.4026,-0.3993,-0.3993,-0.3993,-0.3993,-0.3993,-0.3993,-0.3993,-0.3993,-0.3993,-0.3993,-0.4026,-0.4091,-0.4382,-0.4628,-0.4692,-0.5372,-0.5943,-0.5943,-0.6979,-0.7801,-0.7801,-0.8475,-0.899,-0.907,-1.0137,-1.1121,-1.1726,-1.1822,-1.1822,-1.1932,-1.1909,-1.2113,-1.2579,-1.2615,-1.2791,-1.3198,-1.3198,-1.3198,-1.3198,-1.3198,-1.2791,-1.1909,-1.1909,-1.1394,-1.0428,-1.0428,-1.039,0.879,0.9245,0.9919,1.1131,1.1996,1.2844,1.3838,0.0,0.0,1.4901,1.4376,1.3818,1.3424,1.3232,1.2954,1.2327,1.2291,1.2471,1.2948,1.2165,1.1845,1.2528,1.1676,1.0922,1.0657,0.9923,0.9253,0.8765,0.0,0.7529,0.5867,0.4899,0.4022,0.3146,0.2573,0.1939,0.1257,0.0647,0.0208,-0.0078,-0.1165,-0.1569,-0.1458,-0.2182,-0.2704,-0.2995,-0.3323,0.0,-0.3993,-0.3993,-0.3993,-0.3993,-0.3993,-0.3993,-0.3961,-0.3723,-0.3626,-0.3593,-0.3397,-0.3167,-0.297,-0.297,-0.3266,-0.356,-0.3101,-0.297,-0.2904,-0.2666,-0.2593,-0.2593,-0.2593,-0.2593,-0.2593,-0.2593,-0.2962,-0.3257,-0.302,-0.3649,-0.4253,-0.4048,-0.4877,-0.5623,-0.5701,-0.6505,-0.715,-0.715,-0.7481,-0.7747,-0.7747,-0.8407,-0.9204,-1.0099,-1.0427,-1.0695,-1.096,-1.1223,-1.1689,-1.2473,-1.2294,-1.2365,-1.2826,-1.2826,-1.2826,-1.2826,-1.3094,-1.272,-1.1822,-1.2077,-1.1505,-1.0332,-1.0544,-1.0544,0.8358,0.8621,0.9142,1.0414,1.1185,1.1945,1.3309,1.4359,1.5002,1.5076,1.4907,1.466,1.4289,1.415,1.3922,0.0,1.3098,1.3121,1.3859,1.303,1.2606,0.0,1.27,0.0,1.1394,1.0847,0.0,0.9845,0.0,0.0,0.6546,0.5545,0.4669,0.3921,0.3439,0.2803,0.2021,0.1518,0.1217,0.1078,0.0072,-0.0385,-0.03,-0.1168,-0.1838,-0.2296,-0.2593,0.0,0.0,-0.3429,-0.3429,-0.3429,-0.3429,-0.3429,-0.3388,-0.2995,-0.2856,-0.2831,-0.2507,-0.2109,-0.1709,-0.1709,-0.2236,-0.2732,-0.2042,-0.1776,-0.1642,-0.1271,-0.1101,-0.1035,-0.1035,-0.1035,-0.1035,-0.1138,-0.1733,-0.2197,-0.1927,-0.2746,-0.3491,-0.3243,-0.415,-0.5017,-0.5132,-0.5704,-0.6157,-0.6157,-0.6157,-0.6157,-0.6157,-0.6157,-0.6629,-0.7844,-0.8755,-0.9451,-0.9808,-1.0466,-1.1244,-1.2126,-1.1836,-1.1872,-1.2473,-1.2508,-1.2544,-1.265,-1.2896,-1.265,-1.1822,-1.2054,-1.1468,-1.0118,-1.0601,-1.0524,0.8129,0.8028,0.8363,1.0174,1.0949,1.1742,1.3618,0.0,1.4714,1.494,1.5039,1.4981,1.4684,1.4286,1.4012,1.4008,0.0,1.4504,1.5619,1.5659,1.5519,1.5449,0.0,0.0,1.2461,1.1909,0.0,1.0843,0.0,0.0,0.74,0.7044,0.6376,0.5181,0.4909,0.4318,0.3352,0.3275,0.2957,0.2401,0.1505,0.1117,0.109,0.0199,-0.0432,-0.0901,-0.0935,0.0,0.0,-0.1538,-0.1538,-0.1538,-0.1538,-0.1538,-0.1538,-0.1505,-0.1471,-0.1471,-0.1438,-0.1171,-0.0835,-0.0835,-0.1135,-0.1471,-0.1405,-0.1104,-0.0801,-0.0768,-0.0433,-0.0133,-0.0133,-0.0133,-0.0233,-0.0668,-0.0835,-0.0968,-0.1305,-0.18,-0.2182,-0.2157,-0.278,-0.3317,-0.3331,-0.3588,-0.3825,-0.3825,-0.3825,-0.3825,-0.3825,-0.3825,-0.4258,-0.5471,-0.7457,-0.8705,-0.8745,-0.9748,-1.0582,-1.1132,-1.1094,-1.1505,-1.2473,-1.2508,-1.2685,-1.3129,-1.2756,-1.233,-1.1822,-1.1356,-1.0601,-0.9607,-1.0118,-0.9843,0.8041,0.829,0.8819,1.0239,1.1448,1.2728,1.4436,1.5014,1.5251,1.569,1.5407,1.5077,1.4957,1.4782,1.4755,1.4986,1.4921,1.5233,1.6349,1.6452,1.6485,1.6733,1.6075,0.0,0.0,0.0,1.2998,1.2213,0.0,0.0,0.9687,0.8894,0.8073,0.7253,0.6612,0.5998,0.5441,0.519,0.4879,0.4522,0.3673,0.3128,0.2845,0.1702,0.0956,0.0497,0.0198,0.0,0.0,-0.0532,-0.0532,-0.0532,-0.0532,-0.0532,-0.0498,-0.0231,-0.0165,-0.0132,0.0164,0.072,0.1301,0.1301,0.1523,0.1592,0.0298,0.0,0.02,0.0434,0.1027,0.158,0.158,0.174,0.1833,0.1387,0.1217,0.1276,0.1748,0.1416,0.1174,0.1692,0.1317,0.0919,0.0821,0.0711,0.0635,0.0635,0.0635,0.0635,0.0635,0.0635,0.0085,-0.1459,-0.4927,-0.7389,-0.8121,-0.9191,-1.0021,-1.0504,-1.0562,-1.1019,-1.2041,-1.2077,-1.2294,-1.2756,-1.2861,-1.2544,-1.1822,-1.1872,-1.1244,-1.0,-1.0176,-0.9864,0.8471,0.8906,0.9526,1.0623,1.1974,1.343,1.4887,1.551,1.5932,1.6493,1.6187,1.5867,1.5894,1.5889,1.5939,0.0,1.616,1.6457,1.7505,1.7736,1.7909,1.8161,0.0,1.7061,0.0,1.511,1.4404,0.0,0.0,0.0,1.2274,1.1292,1.013,0.8776,0.8228,0.7771,0.7473,0.7181,0.6966,0.6816,0.6113,0.5531,0.503,0.3975,0.3167,0.2552,0.2214,0.0,0.0,0.1301,0.1239,0.1144,0.1144,0.1206,0.1329,0.1616,0.1799,0.1954,0.2272,0.2865,0.3522,0.37,0.426,0.4636,0.3347,0.2418,0.1875,0.2175,0.2845,0.3502,0.3502,0.3809,0.404,0.3824,0.3666,0.3893,0.4851,0.4726,0.4665,0.5505,0.5407,0.5152,0.5036,0.5019,0.5019,0.5019,0.5019,0.5019,0.5019,0.4833,0.4092,0.2509,-0.078,-0.3863,-0.6379,-0.758,-0.8471,-0.9164,-0.9279,-0.9924,-1.126,-1.1335,-1.1653,-1.2294,-1.2449,-1.2198,-1.1542,-1.1763,-1.1169,-0.9843,-0.9923,-0.9649,0.9552,0.9839,1.0408,1.1359,1.2333,1.3446,1.4808,1.5783,1.6565,1.7171,1.742,1.7621,1.7745,1.7721,1.7659,1.7694,1.8007,1.8615,1.9527,2.0127,2.0304,0.0,0.0,1.8924,1.6789,1.5918,1.5472,0.0,0.0,0.0,1.4945,1.4458,1.2684,0.9386,0.9648,0.968,0.9266,0.9266,0.9266,0.9246,0.8789,0.8276,0.7741,0.7279,0.6494,0.0,0.0,0.0,0.0,0.4355,0.4163,0.3862,0.3862,0.405,0.4355,0.4355,0.4593,0.4957,0.4957,0.5222,0.5665,0.6261,0.6757,0.7283,0.8009,0.6466,0.4479,0.4479,0.5038,0.5664,0.5664,0.5966,0.6313,0.6419,0.6466,0.6705,0.7592,0.7756,0.797,0.8693,0.886,0.8853,0.8839,0.8839,0.8839,0.8839,0.8839,0.8839,0.8839,0.8193,0.729,0.6062,0.5261,0.2507,-0.3074,-0.4524,-0.5658,-0.688,-0.6922,-0.7916,-1.0138,-1.0215,-1.0712,-1.1785,-1.1282,-1.1019,-1.1019,-1.0544,-0.9765,-0.8724,-0.927,-0.891,1.1318,1.1503,1.1869,1.2799,1.4178,1.553,1.6518,1.692,1.7291,1.7978,1.7784,1.753,1.7688,1.7807,1.8187,1.9195,1.9486,0.0,0.0,0.0,0.0,2.1613,2.0763,1.9747,0.0,0.0,0.0,0.0,0.0,0.0,1.6295,1.613,1.501,1.2781,1.2151,1.2128,1.2589,1.2039,1.1868,1.2091,1.1456,1.1016,1.08,1.0067,0.9585,0.0,0.0,0.0,0.0,0.808,0.824,0.8741,0.8741,0.8477,0.8127,0.8401,0.8239,0.7917,0.8339,0.8743,0.9143,0.9473,1.0275,1.1132,1.1353,0.94,0.7246,0.7979,0.8777,0.9442,0.9739,1.0296,1.0807,1.0678,1.0851,1.122,1.2,1.2317,1.2634,1.3252,1.335,1.3346,1.3346,1.3346,1.3346,1.3346,1.3346,1.3346,1.3346,1.3129,1.2395,1.0871,1.0508,0.7848,0.153,-0.1011,-0.2452,-0.2858,-0.4624,-0.6678,-0.8941,-0.9037,-0.9733,-1.1143,-1.1014,-1.0578,-0.9904,-0.9748,-0.8956,-0.7529,-0.7293,-0.6807,1.2814,1.3016,1.3357,1.3951,1.5288,1.6644,1.7328,1.7684,1.8055,1.8776,1.8617,1.8404,1.8562,1.8724,1.9251,2.0542,2.0753,2.125,0.0,0.0,0.0,2.3107,0.0,0.0,0.0,1.8871,0.0,0.0,0.0,0.0,1.7479,1.7479,1.6998,1.592,1.4719,1.4376,1.4919,1.4427,1.4303,1.4558,1.4101,1.3771,1.358,1.308,1.2736,0.0,0.0,0.0,0.0,1.1646,1.1729,1.2169,1.2169,1.1951,1.1643,1.1901,1.1757,1.1496,1.1853,1.2167,1.2431,1.2773,1.3625,1.4478,1.4478,1.2599,1.0624,1.1304,1.1946,1.2498,1.2792,1.3291,1.3777,1.3853,1.4005,1.4418,1.5391,1.5731,1.6018,1.6622,1.6754,1.6754,1.6754,1.6754,1.6733,1.6696,1.6674,1.6643,1.6471,1.6274,1.5735,1.4586,1.446,1.2681,0.8301,0.5051,0.2877,0.197,0.0297,-0.2147,-0.5539,-0.5681,-0.6626,-0.8672,-0.8711,-0.8413,-0.7764,-0.7577,-0.6976,-0.597,-0.5375,-0.4957,0.0,1.4379,1.4783,1.4847,1.5835,1.6912,1.7434,1.8091,0.0,1.9456,1.9734,1.9936,2.0134,2.0338,2.083,2.1806,2.1908,2.2413,0.0,2.4053,0.0,0.0,2.3252,0.0,2.1524,2.0639,0.0,0.0,0.0,0.0,1.8612,1.8629,1.8629,1.8629,1.7287,1.6539,1.6508,1.6475,1.6521,1.6675,1.6675,1.6454,1.6112,1.6093,1.5869,0.0,0.0,0.0,0.0,1.4971,1.476,1.4472,1.4472,1.4647,1.4844,1.4844,1.5019,1.5215,1.5231,1.5231,1.5339,1.5965,1.6615,1.7158,1.7236,1.5872,1.4351,1.4329,1.4616,1.495,1.495,1.5217,1.5615,1.6137,1.6191,1.6507,1.7795,1.805,1.8264,1.893,1.9079,1.9079,1.9079,1.9046,1.896,1.8867,1.8807,1.8689,1.8392,1.7861,1.7515,1.7423,1.7306,1.6971,1.6356,1.2747,0.9525,0.7234,0.6991,0.4704,-0.0229,-0.0386,-0.1616,-0.4271,-0.4364,-0.4382,-0.4382,-0.3917,-0.3744,-0.3751,-0.3221,-0.2974,1.576,0.0,1.5663,1.6191,1.6934,1.7611,0.0,1.8346,1.8735,1.9204,1.9563,2.0061,2.089,2.1166,2.1834,2.337,2.3657,2.4019,2.4993,0.0,0.0,2.4766,2.3934,2.3077,2.2249,0.0,0.0,0.0,0.0,1.9574,1.964,1.9649,1.9649,1.9649,1.9257,1.884,1.8359,1.8162,1.8208,1.8505,1.827,1.8241,1.8338,1.8068,1.8038,0.0,0.0,0.0,1.8244,1.7702,1.781,1.83,1.83,1.7886,1.7277,1.7277,1.694,1.6483,1.6634,1.6703,1.6811,1.7525,1.7754,1.7853,1.849,1.7716,1.6619,1.6514,1.6988,1.7497,1.7335,1.7813,1.8412,1.8671,1.875,1.8862,1.9406,1.9507,1.9542,1.9718,1.9756,1.9756,1.9756,1.9364,1.9143,1.938,1.9035,1.8999,1.9707,1.9188,1.9173,2.0251,1.9875,1.9671,2.0067,1.5475,1.2121,1.0995,0.9653,0.7789,0.5216,0.5473,0.4945,0.3414,0.2834,0.256,0.256,0.2216,0.1847,0.1465,0.2058,0.2121,1.6728,1.6886,1.7076,1.7441,1.7913,1.8416,1.8795,1.8753,1.8823,1.9616,2.0024,2.0578,2.1566,2.1914,2.2508,2.3966,2.4247,0.0,0.0,0.0,2.523,2.5156,2.4652,2.4075,0.0,0.0,0.0,0.0,0.0,2.0109,2.0145,2.0145,2.0145,2.0145,2.0094,1.9879,1.9433,1.9257,1.9277,1.9503,1.928,1.9296,1.9515,1.9277,1.9241,0.0,0.0,0.0,1.9443,1.8912,1.9,1.9402,1.9402,1.9081,1.8551,1.8551,1.8266,1.7898,1.7994,1.8032,1.8089,1.8486,1.8516,1.849,1.8976,1.8669,1.8131,1.8125,1.8421,1.8741,1.8623,1.8916,1.9233,1.9319,1.9369,1.9373,1.9509,1.9552,1.9552,1.9552,1.942,1.9498,1.9986,1.9673,1.9559,2.015,1.9822,1.9701,2.0245,1.9758,1.9669,2.0584,2.0432,2.0316,2.0352,1.789,1.6035,1.5329,1.4276,1.2456,0.9705,0.9704,0.9119,0.7685,0.7257,0.7153,0.7382,0.7059,0.6625,0.6144,0.6459,0.6349,1.7546,1.827,1.879,1.8607,1.8801,1.9188,1.966,0.0,1.9268,2.0334,2.0778,2.1278,2.2297,2.269,0.0,2.4393,0.0,0.0,2.5503,2.5458,2.5351,2.5425,2.5247,0.0,0.0,0.0,0.0,0.0,0.0,2.0271,2.0269,2.0268,2.0266,2.0266,2.0225,2.0117,1.9903,1.9873,1.9934,1.9994,1.9921,1.9906,1.9987,1.9822,1.9796,1.9824,0.0,0.0,1.9475,1.9269,1.9162,1.9138,1.9076,1.9,1.8947,1.8882,1.8837,1.879,1.879,1.8774,1.8741,1.8741,1.8741,1.8741,1.8741,1.8758,1.8833,1.8933,1.9052,1.9138,1.9114,1.9074,1.9027,1.9027,1.8971,1.8906,1.889,1.8875,1.8911,1.902,1.8749,1.8861,2.0081,1.9829,1.9795,2.0764,2.0504,2.0223,2.0391,1.9875,1.961,1.9944,2.0134,2.0,1.9451,1.9833,1.9781,1.9165,1.8866,1.7265,1.3895,1.343,1.2557,1.1078,1.0893,1.099,1.143,1.1252,1.0929,1.0507,1.0535,1.03,1.8968,1.9957,2.0538,1.9571,1.9595,1.9858,1.9923,2.0269,2.0611,0.0,0.0,0.0,0.0,2.4043,2.4962,0.0,0.0,2.6364,0.0,0.0,2.5481,2.5488,0.0,0.0,0.0,0.0,0.0,0.0,0.0,2.0157,2.0226,2.0088,2.0057,2.0057,1.9973,1.995,1.9918,2.0104,2.018,2.0107,2.0137,2.0076,1.9901,1.9669,1.9525,1.945,0.0,1.9064,1.9072,1.9044,1.8962,1.8826,1.8535,1.8341,1.8202,1.7913,1.7811,1.7803,1.7803,1.7688,1.7468,1.7468,1.7502,1.7546,1.7546,1.7759,1.801,1.8004,1.8411,1.883,1.8716,1.8664,1.8681,1.8681,1.8681,1.8572,1.8292,1.8253,1.8408,1.9038,1.881,1.8949,2.0456,1.9602,1.9161,2.0304,1.9714,1.9465,2.0373,1.9855,1.9787,2.0729,2.0284,2.0157,2.067,2.0767,2.0619,2.0136,1.9928,1.9627,1.9135,1.8463,1.8014,1.7734,1.6731,1.6319,1.6556,1.5552,1.4896,1.4612,1.4828,1.4659,1.9293,2.0331,2.1204,2.1223,2.1054,2.0946,2.1278,2.127,2.1339,0.0,0.0,0.0,0.0,0.0,2.5754,2.6911,0.0,2.6639,2.6691,2.5933,2.5413,0.0,0.0,0.0,0.0,0.0,0.0,0.0,0.0,0.0,2.0011,1.9926,1.9898,1.9898,1.9876,1.9834,1.9834,1.981,1.9849,1.9934,1.9888,1.9763,1.9501,1.9314,1.9124,1.8955,0.0,1.8574,1.8556,1.8222,1.8058,1.7948,1.7635,1.7467,1.7396,1.7221,1.7149,1.7149,1.7149,1.7085,1.6987,1.7182,1.7142,1.7052,1.7248,1.7272,1.7248,1.7248,1.7603,1.8025,1.8149,1.8044,1.7924,1.8107,1.8044,1.7859,1.7693,1.7535,1.7595,1.8302,1.8098,1.8377,2.0037,1.9625,1.9399,2.0553,2.012,1.9941,2.0663,2.0067,1.9812,2.0569,2.0118,1.9919,2.0261,2.0296,2.0219,2.0118,1.9764,1.9382,1.8962,1.8976,1.876,1.8306,1.8286,1.8273,1.8244,1.787,1.7494,1.7127,1.7248,1.7153,1.9698,2.0679,2.1657,2.2479,2.2279,2.207,2.2789,2.2551,2.2511,0.0,0.0,0.0,0.0,2.548,0.0,2.731,2.7039,2.6665,2.6485,2.5718,2.5214,2.5235,0.0,0.0,0.0,0.0,0.0,0.0,0.0,0.0,1.9701,1.9626,1.9574,1.9497,1.9535,1.9535,1.9535,1.9323,1.9365,1.9663,1.9481,1.928,1.9041,1.8877,1.8678,1.8393,1.8107,1.7936,1.7849,1.7392,1.7175,1.715,1.6799,1.6617,1.657,1.657,1.657,1.657,1.6727,1.6763,1.6849,1.7241,1.7279,1.7173,1.7436,1.7384,1.7284,1.7284,1.7384,1.7582,1.7738,1.7608,1.7519,1.7937,1.7848,1.7615,1.7539,1.7305,1.7341,1.8038,1.7877,1.816,1.9876,1.9781,1.9838,2.0863,2.0599,2.0434,2.0797,2.0227,1.9909,2.0124,1.9874,1.969,1.969,1.969,1.9732,1.9844,1.9484,1.8986,1.8311,1.8633,1.8486,1.7816,1.864,1.8929,1.8588,1.8963,1.8827,1.8279,1.8408,1.8463,2.0846,2.1651,2.2309,2.2617,2.266,2.2902,2.4014,2.4467,2.4888,2.5705,0.0,0.0,0.0,2.6439,2.7129,2.7305,2.7214,2.6911,2.617,0.0,2.4847,2.4861,0.0,0.0,0.0,0.0,0.0,0.0,0.0,0.0,1.928,1.913,1.8948,1.8698,1.868,1.868,1.868,1.8661,1.8859,1.9243,1.8988,1.8788,1.8624,1.8373,1.8086,1.7737,1.7476,1.7199,1.6901,1.685,1.6857,1.6799,1.649,1.6136,1.5885,1.5885,1.5885,1.5946,1.6518,1.6698,1.6818,1.7481,1.7883,1.8099,1.8129,1.8369,1.8636,1.8636,1.8399,1.8094,1.7868,1.7791,1.7923,1.8562,1.8693,1.8607,1.822,1.8129,1.8346,1.9123,1.8921,1.9101,2.0671,2.0234,1.9954,2.0862,2.0599,2.0299,2.0333,2.033,2.0124,1.9767,1.9726,1.969,1.969,1.969,1.9696,1.9707,1.9811,1.981,1.9778,1.9142,1.876,1.8719,1.9143,1.8996,1.822,1.864,1.8437,1.7687,1.8181,1.8544,2.0399,2.1873,2.3308,2.3087,2.3519,0.0,0.0,2.4968,2.5439,2.6242,2.6292,0.0,0.0,0.0,2.7022,2.7059,2.6726,2.6352,2.605,2.5295,2.4804,0.0,0.0,0.0,0.0,0.0,0.0,0.0,0.0,0.0,2.024,2.0143,1.985,1.931,1.9255,1.9063,1.8603,1.8413,1.8432,1.8589,1.8644,1.8551,1.8333,1.8031,1.7749,1.7429,1.7126,1.6901,1.6837,1.7011,1.7117,1.7093,1.715,1.6849,1.6428,1.6847,1.6997,1.7026,1.7234,1.7324,1.7386,1.785,1.7973,1.7941,1.8161,1.8161,1.8099,1.8099,1.8004,1.7975,1.8332,1.8237,1.8183,1.8672,1.8586,1.8406,1.8223,1.8037,1.8121,1.8821,1.8838,1.9015,2.0032,1.9909,1.9833,2.0154,2.005,1.9945,1.9945,1.9945,1.9874,1.9726,1.969,1.969,1.969,1.969,1.969,1.969,1.9767,1.9602,1.9173,1.9295,1.8956,1.8129,1.9148,1.9228,1.8203,1.8444,1.8294,1.7738,1.7509,1.77,2.0449,2.1988,2.3589,2.3576,0.0,0.0,2.5515,2.5725,2.6062,2.7163,2.6943,2.6612,2.6612,0.0,0.0,0.0,2.63,2.603,2.5506,2.4944,0.0,0.0,0.0,0.0,0.0,0.0,0.0,0.0,0.0,0.0,0.0,2.067,2.0403,1.9791,1.9791,1.9504,1.8841,1.8665,1.854,1.839,1.8597,1.8505,1.8245,1.8091,1.7872,1.7571,1.7332,1.72,1.7093,1.733,1.7425,1.7456,1.7631,1.7413,1.7085,1.7533,1.7682,1.7712,1.7921,1.8044,1.8107,1.852,1.8513,1.8377,1.8581,1.8513,1.8343,1.8343,1.8343,1.8443,1.8966,1.8717,1.8467,1.8967,1.8871,1.8679,1.8679,1.848,1.8463,1.8942,1.9001,1.9151,1.96,1.969,1.969,1.969,1.969,1.969,1.969,1.969,1.969,1.969,1.969,1.969,1.969,1.969,1.969,1.969,1.969,1.948,1.9031,1.945,1.9271,1.8373,1.9463,1.9467,1.8373,1.8607,1.8399,1.7749,1.72,1.7254,2.1403,2.2141,2.3006,2.4131,2.4382,0.0,2.685,2.695,2.709,2.8645,2.775,2.6612,2.6612,2.6612,0.0,2.5531,2.6062,2.6025,2.441,2.419,0.0,0.0,0.0,0.0,0.0,0.0,0.0,0.0,0.0,0.0,0.0,2.0442,2.0298,2.0002,2.0002,1.9822,1.9416,1.9389,1.9195,1.8795,1.8795,1.8644,1.832,1.8647,1.8556,1.8192,1.8223,1.8005,1.7682,1.7712,1.7712,1.7712,1.7712,1.7712,1.7712,1.7712,1.7712,1.7802,1.8493,1.8702,1.8822,1.948,1.969,1.969,1.969,1.969,1.969,1.969,1.969,1.969,1.969,1.9211,1.8882,1.954,1.969,1.969,1.969,1.969,1.969,1.969,1.969,1.969,1.969,1.969,1.969,1.969,1.969,1.969,1.969,1.969,1.969,1.969,1.969,1.969,1.969,1.969,1.969,1.969,1.969,1.969,1.969,1.969,1.969,1.969,2.0089,1.9783,1.8702,1.9173,1.8835,1.7715,1.7425,1.7433,2.1259,2.2582,2.3975,2.4322,2.5183,2.6249,0.0,2.7559,0.0,0.0,2.8608,2.8117,2.753,2.6979,0.0,2.5531,2.5107,2.4681,2.3951,2.3837,0.0,0.0,0.0,0.0,0.0,0.0,0.0,0.0,0.0,0.0,0.0,2.1725,2.1319,2.0368,2.0368,1.9909,1.8997,1.8997,1.8911,1.8795,1.8967,1.8934,1.8651,1.8462,1.8315,1.8161,1.7973,1.7812,1.7742,1.8223,1.8403,1.8463,1.8912,1.8822,1.8463,1.8942,1.9121,1.9121,1.9331,1.939,1.942,1.963,1.969,1.969,1.969,1.969,1.969,1.969,1.969,1.969,1.969,1.954,1.945,1.963,1.969,1.969,1.969,1.969,1.969,1.969,1.969,1.969,1.969,1.969,1.969,1.969,1.969,1.969,1.969,1.969,1.969,1.969,1.969,1.969,1.969,1.969,1.9515,1.9155,1.9479,1.969,1.969,1.969,1.969,1.969,2.0089,1.9997,1.939,1.9387,1.905,1.8403,1.7842,1.7761,2.2449,2.3612,2.4778,2.5566,2.6317,2.7031,2.7655,0.0,0.0,0.0,2.8007,2.7471,2.7177,2.6461,0.0,2.5107,2.4614,2.4115,2.3558,2.35,0.0,0.0,0.0,0.0,0.0,0.0,0.0,0.0,0.0,0.0,0.0,2.2032,2.1624,2.0749,2.0687,2.0281,1.9405,1.9405,1.9343,1.9153,1.9323,1.9293,1.9153,1.8927,1.8799,1.8766,1.8594,1.8493,1.8523,1.8942,1.9091,1.9121,1.954,1.945,1.9151,1.954,1.969,1.969,1.969,1.969,1.969,1.969,1.969,1.969,1.969,1.969,1.969,1.969,1.969,1.969,1.969,1.969,1.969,1.969,1.969,1.969,1.969,1.969,1.969,1.969,1.969,1.969,1.969,1.969,1.969,1.969,1.9515,1.9369,1.9369,1.9369,1.9369,1.9369,1.9551,1.969,1.969,1.969,1.9479,1.893,1.9192,1.9369,1.9369,1.9617,1.969,1.969,1.9945,1.9945,1.969,1.9585,1.9368,1.9061,1.8433,1.8236,2.4334,2.4879,2.5366,2.7295,2.7583,2.7525,2.7743,2.775,2.7677,2.7677,0.0,2.5633,2.6041,2.543,2.4774,2.4431,2.4346,2.4003,2.3271,2.3141,0.0,0.0,0.0,0.0,0.0,0.0,0.0,0.0,0.0,0.0,0.0,2.1552,2.1368,2.0959,2.0926,2.0731,2.0261,2.0261,2.0054,1.969,1.969,1.969,1.969,1.969,1.969,1.969,1.969,1.969,1.969,1.969,1.969,1.969,1.969,1.969,1.969,1.969,1.969,1.969,1.969,1.969,1.969,1.969,1.969,1.969,1.969,1.969,1.969,1.969,1.969,1.969,1.969,1.969,1.969,1.969,1.969,1.969,1.969,1.969,1.969,1.969,1.969,1.969,1.969,1.969,1.969,1.969,1.9295,1.8968,1.8968,1.8968,1.8968,1.8968,1.9406,1.969,1.969,1.9654,1.9406,1.8855,1.8855,1.8893,1.8817,1.9332,1.9654,1.969,1.969,1.969,1.969,1.969,1.969,1.966,1.9061,1.8792,2.3893,2.4551,2.5285,2.6993,2.802,2.8489,2.7934,2.731,2.6869,2.6869,2.6576,2.6271,2.6113,2.543,2.4774,2.4431,2.3886,2.3329,2.2883,2.2822,0.0,0.0,0.0,0.0,0.0,0.0,0.0,0.0,0.0,0.0,2.115,2.1118,2.0926,2.0434,2.0465,2.0261,1.9839,1.9839,1.9767,0.0,1.969,1.969,1.969,1.969,1.969,1.969,1.969,1.969,1.969,1.969,1.969,1.969,1.969,1.969,1.969,1.969,1.969,1.969,1.969,1.969,1.969,1.969,1.969,1.969,1.969,1.969,1.969,1.969,1.969,1.969,1.969,1.969,1.969,1.969,1.969,1.969,1.969,1.969,1.969,1.969,1.969,1.969,1.969,1.969,1.969,1.969,1.9617,1.9515,1.9515,1.9515,1.9515,1.9515,1.9654,1.969,1.969,1.9332,1.8855,1.8288,1.8664,1.8703,1.8288,1.8779,1.9295,1.969,1.969,1.969,1.969,1.969,1.969,1.969,1.954,1.948,2.459,2.5231,2.5801,2.7196,2.799,2.8117,2.6906,2.6176,2.5688,2.5287,2.5215,2.5092,2.4764,2.4219,2.3753,2.3458,2.3033,2.2712,2.2527,2.25,0.0,0.0,0.0,0.0,0.0,0.0,0.0,0.0,0.0,2.1118,2.0698,2.0665,2.0465,2.0019,1.9984,1.9909,1.969,1.969,1.969,1.969,1.969,1.969,1.969,1.969,1.969,1.969,1.969,1.969,1.969,1.969,1.969,1.969,1.969,1.969,1.969,1.969,1.969,1.969,1.969,1.969,1.969,1.969,1.969,1.969,1.969,1.969,1.969,1.969,1.969,1.969,1.969,1.969,1.969,1.969,1.969,1.969,1.969,1.969,1.969,1.969,1.969,1.969,1.969,1.969,1.969,1.969,1.9479,1.9332,1.9332,1.9332,1.9332,1.9332,1.9332,1.9332,1.9332,1.8817,1.8288,1.7733,1.821,1.8366,1.8092,1.8626,1.9155,1.969,1.969,1.969,1.969,1.969,1.969,1.969,1.969,1.969,2.5183,2.6033,2.6548,2.7652,2.7793,2.7317,2.5753,2.5085,2.4581,2.379,2.361,2.3522,2.3165,2.2898,2.2625,2.2349,2.2327,2.2327,2.2327,2.2327,0.0,0.0,0.0,0.0,0.0,0.0,0.0,0.0,0.0,2.0698,2.0227,2.0193,2.0019,1.9726,1.969,1.969,1.969,1.969,1.969,1.969,1.969,1.969,1.969,1.969,1.969,1.969,1.969,1.969,1.969,1.969,1.969,1.969,1.969,1.969,1.969,1.969,1.969,1.969,1.969,1.969,1.969,1.969,1.969,1.969,1.969,1.969,1.969,1.969,1.969,1.969,1.969,1.969,1.969,1.969,1.969,1.969,1.969,1.969,1.969,1.969,1.969,1.969,1.969,1.9617,1.9617,1.969,1.9258,1.893,1.9043,1.9043,1.9006,1.8893,1.8893,1.8855,1.8779,1.8366,1.7894,1.7476,1.7933,1.8249,1.8249,1.8741,1.9258,1.969,1.969,1.969,1.969,1.969,1.969,1.969,1.969,1.969,2.399,2.5679,2.732,2.8128,2.7852,2.7043,0.0,0.0,2.4242,0.0,2.3259,2.3165,2.2883,2.2781,2.2625,2.2349,2.2327,2.2327,2.2327,2.2327,2.2327,0.0,0.0,0.0,0.0,0.0,0.0,0.0,2.0366,2.0227,1.9803,1.9767,1.9762,1.969,1.969,1.969,1.969,1.969,1.969,1.969,1.969,1.969,1.969,1.969,1.969,1.969,1.969,1.969,1.969,1.969,1.969,1.969,1.969,1.969,1.969,1.969,1.969,1.969,1.969,1.969,1.969,1.969,1.969,1.969,1.969,1.969,1.969,1.969,1.969,1.969,1.969,1.969,1.969,1.969,1.969,1.969,1.969,1.969,1.969,1.969,1.969,1.969,1.969,1.9332,1.9155,1.9654,1.9258,1.908,1.9515,1.9617,1.9406,1.8968,1.8893,1.8703,1.8249,1.8131,1.8052,1.7973,1.8482,1.8779,1.8779,1.9332,1.9654,1.969,1.969,1.969,1.969,1.969,1.969,1.969,1.969,1.969,2.4219,2.58,2.7066,2.7371,2.7192,2.6595,2.5136,2.4488,2.3902,2.3098,2.2807,2.2712,2.273,2.2607,2.2453,2.2321,2.2327,2.2327,2.2327,2.2327,2.2327,0.0,0.0,0.0,0.0,0.0,0.0,0.0,1.9949,1.9874,1.9726,1.969,1.969,1.969,1.969,1.969,1.969,1.969,1.969,1.969,1.969,1.969,1.969,1.969,1.969,1.969,1.969,1.969,1.969,1.969,1.969,1.969,1.969,1.969,1.969,1.969,1.969,1.969,1.969,1.969,1.969,1.969,1.969,1.969,1.969,1.969,1.969,1.969,1.969,1.969,1.969,1.969,1.969,1.969,1.969,1.969,1.969,1.969,1.969,1.969,1.969,1.969,1.969,1.9479,1.9442,1.9654,1.9479,1.9332,1.9258,1.9258,1.9043,1.8482,1.8171,1.7894,1.7653,1.7394,1.7188,1.7188,1.7973,1.8444,1.8444,1.9258,1.969,1.969,1.969,1.969,1.969,1.969,1.969,1.969,1.969,1.969,2.4365,2.5435,2.6161,2.6493,2.6423,2.6008,0.0,0.0,2.3571,0.0,2.259,2.2377,2.2546,2.2426,2.2327,2.2327,2.2327,2.2327,2.2327,2.2327,2.2237,0.0,0.0,0.0,0.0,0.0,0.0,0.0,1.969,1.969,1.969,1.969,1.969,1.969,1.969,1.969,1.969,1.969,1.969,1.969,1.969,1.969,1.969,1.969,1.969,1.969,1.969,1.969,1.969,1.969,1.969,1.969,1.969,1.969,1.969,1.9551,1.9551,1.969,1.9515,1.9617,1.969,1.969,1.969,1.969,1.969,1.969,1.969,1.969,1.969,1.969,1.969,1.969,1.969,1.969,1.969,1.969,1.969,1.969,1.969,1.969,1.969,1.969,1.969,1.9617,1.9515,1.969,1.9479,1.9192,1.893,1.8779,1.8482,1.7933,1.7558,1.7312,1.7312,1.7063,1.6921,1.6921,1.7773,1.8249,1.8092,1.8855,1.9369,1.9479,1.9479,1.9551,1.969,1.969,1.969,1.969,1.969,1.969,2.3742,2.4093,2.4475,2.5872,2.5698,2.523,0.0,0.0,2.3405,2.3371,2.2801,2.2293,2.2321,2.2293,2.2327,2.2327,2.2327,2.2327,2.2327,2.2327,2.2118,2.1705,0.0,0.0,0.0,0.0,0.0,0.0,1.969,1.969,1.969,1.969,1.969,1.969,1.969,1.969,1.969,1.969,1.969,1.969,1.969,1.969,1.969,1.969,1.969,1.969,1.969,1.969,1.969,1.969,1.969,1.969,1.969,1.969,1.9654,1.9118,1.9258,1.9654,1.9118,1.9295,1.969,1.969,1.969,1.969,1.969,1.969,1.969,1.969,1.969,1.969,1.969,1.969,1.969,1.969,1.969,1.969,1.969,1.969,1.969,1.969,1.969,1.969,1.969,1.9295,1.9118,1.9617,1.8817,1.8366,1.8855,1.8444,1.7933,1.7394,1.7312,1.7312,1.7312,1.7733,1.8013,1.8013,1.8521,1.8626,1.8131,1.8131,1.8405,1.893,1.893,1.9192,1.969,1.969,1.969,1.969,1.969,1.969,2.3374,2.3608,2.3847,2.4872,2.5282,2.5323,2.4963,2.4831,2.456,2.3613,2.3207,2.2868,2.2395,2.2327,2.2327,2.2327,2.2032,2.1853,2.1853,2.1645,2.1401,2.1244,2.0829,0.0,0.0,0.0,0.0,0.0,0.0,1.969,1.969,1.969,1.969,1.969,1.969,1.969,1.969,1.969,1.969,1.969,1.969,1.969,1.969,1.969,1.969,1.969,1.9332,1.9369,1.969,1.969,1.969,1.969,1.9332,1.9192,1.9118,1.8588,1.8482,1.8664,1.8444,1.8482,1.8664,1.8664,1.8893,1.9192,1.9192,1.9442,1.969,1.969,1.969,1.969,1.969,1.969,1.9617,1.9295,1.9192,1.908,1.8741,1.9221,1.969,1.969,1.969,1.969,1.969,1.9515,1.9369,1.9221,1.8855,1.8405,1.7933,1.7693,1.7394,1.6837,1.6795,1.6795,1.6795,1.6964,1.7063,1.7063,1.7598,1.7773,1.7598,1.7894,1.8327,1.8893,1.8893,1.9155,1.969,1.969,1.969,1.969,1.969,1.969,2.2902,2.3038,0.0,0.0,2.4661,2.4932,2.5169,2.5236,2.5033,2.4289,2.3748,2.3211,2.2559,2.2228,2.2061,2.2061,2.1794,2.1552,2.143,2.115,2.0926,2.0797,2.0499,2.0261,0.0,0.0,0.0,0.0,0.0,0.0,1.969,1.969,1.969,1.969,1.969,1.969,1.969,1.969,1.969,1.969,1.969,1.969,1.969,1.969,1.9617,1.9406,1.9043,1.908,1.9406,1.9258,1.9155,1.9118,1.8779,1.8626,1.8588,1.8013,1.7933,1.8052,1.7894,1.7933,1.8092,1.8092,1.8327,1.8693,1.9114,1.9359,1.9538,1.9922,1.9869,1.969,1.969,1.9551,1.9406,1.9221,1.9217,1.9171,1.9016,1.9217,1.9442,1.9442,1.9551,1.9654,1.9442,1.9442,1.9258,1.8703,1.8482,1.8092,1.7394,1.7146,1.6879,1.6565,1.6697,1.6809,1.6778,1.6931,1.6956,1.6778,1.7105,1.7312,1.7312,1.7639,1.8171,1.8893,1.8893,1.9155,1.969,1.969,1.969,1.969,1.969,1.969,0.0,0.0,0.0,0.0,0.0,0.0,2.6116,0.0,2.4695,2.5374,2.4394,2.3227,2.2793,2.2106,2.1615,2.1552,2.1552,2.143,2.1023,2.0959,2.0797,2.0364,2.0265,2.0124,1.9762,0.0,0.0,0.0,1.969,1.969,1.969,1.969,1.969,1.969,1.969,1.969,1.969,1.969,1.969,1.969,1.969,1.969,1.969,1.969,1.9369,1.8893,1.8855,1.8855,1.8817,1.8288,1.8092,1.8092,1.8052,1.8052,1.8013,1.7476,1.7639,1.7973,1.7476,1.7639,1.808,1.808,1.8108,1.8377,1.9541,1.9469,1.9208,2.0376,2.0221,1.9713,1.9713,1.9317,1.9064,1.9538,1.9815,2.002,2.0546,1.9757,1.895,1.895,1.9332,1.9508,1.9026,1.8884,1.8731,1.8187,1.7666,1.7338,1.7297,1.6863,1.6547,1.6547,1.7049,1.7397,1.7334,1.785,1.7955,1.735,1.7365,1.7365,1.7365,1.7365,1.7868,1.8912,1.895,1.9176,1.975,1.972,1.969,1.969,1.969,1.969,2.2327,0.0,0.0,0.0,0.0,0.0,0.0,0.0,2.4115,2.4347,2.372,2.3095,2.2765,2.228,2.16,2.0794,2.0667,2.0601,2.0532,2.0227,2.0015,1.9874,1.9874,1.9803,1.9726,0.0,0.0,0.0,1.969,1.969,1.969,1.969,1.969,1.969,1.969,1.9515,1.9118,1.9118,1.9118,1.9118,1.9118,1.9118,1.9118,1.9118,1.8817,1.8288,1.7894,1.7733,1.7733,1.7973,1.8092,1.8052,1.7653,1.7517,1.7476,1.6921,1.6837,1.6921,1.6752,1.7119,1.7583,1.7583,1.8409,1.9488,1.9782,2.0061,2.0275,2.0599,2.0226,1.9782,1.9782,1.9656,1.9488,1.9275,1.9556,1.9837,1.958,1.9571,1.9754,2.0124,1.9643,1.9219,1.9489,1.9183,1.8879,1.8789,1.8279,1.78,1.7434,1.7213,1.7149,1.7149,1.7652,1.7949,1.7956,1.8109,1.8134,1.7956,1.8356,1.8596,1.8596,1.9076,1.9418,1.9628,1.9601,1.9878,2.0407,1.9953,1.969,1.969,1.969,1.969,0.0,0.0,0.0,0.0,0.0,0.0,2.3457,2.3753,2.3984,0.0,2.3814,2.3252,2.2697,2.1881,2.1036,2.0185,2.0054,2.0054,2.0054,1.9839,1.969,1.969,1.969,1.969,1.969,1.969,1.969,1.969,1.969,1.969,1.969,1.969,1.969,1.969,1.969,1.9442,1.8893,1.8893,1.8779,1.8588,1.8588,1.8588,1.8588,1.8588,1.8249,1.7733,1.7435,1.7146,1.7005,1.7312,1.7435,1.7394,1.7063,1.6964,1.6921,1.6625,1.6522,1.6547,1.6798,1.7251,1.7823,1.8055,1.8941,2.0014,2.0263,2.0326,2.0444,2.0655,2.0311,1.9855,2.0116,2.0029,1.9812,1.9724,2.002,2.0213,1.9899,2.0034,2.0307,2.033,1.978,1.9321,1.9439,1.9162,1.8879,1.8662,1.8409,1.8113,1.7773,1.7727,1.7727,1.7727,1.8229,1.8455,1.8229,1.843,1.8455,1.8229,1.8528,1.8963,1.9431,1.9784,2.0245,2.0668,2.0668,2.0668,2.0681,2.0323,2.0123,2.0109,1.9809,1.969,0.0,0.0,0.0,0.0,0.0,0.0,2.4072,2.4046,2.385,0.0,2.3947,2.3284,2.2436,2.1224,2.0216,1.9762,1.969,1.969,1.969,1.969,1.969,1.969,1.969,1.969,1.969,1.969,1.969,1.969,1.969,1.969,1.969,1.969,1.969,1.969,1.969,1.9442,1.8893,1.8893,1.8626,1.8092,1.8092,1.8092,1.8092,1.8092,1.7814,1.7394,1.7353,1.7021,1.6607,1.6522,1.6522,1.6522,1.6565,1.6565,1.6522,1.664,1.6683,1.6784,1.732,1.797,1.8665,1.8975,1.9638,2.0335,2.0726,2.046,2.0086,2.0571,2.0234,1.9915,2.0456,2.0239,2.002,2.0499,2.0745,2.0845,2.0799,2.0799,2.0635,2.0086,1.985,1.9601,1.9147,1.9028,1.8843,1.8475,1.8329,1.8304,1.8304,1.8304,1.8304,1.8304,1.8781,1.8907,1.843,1.8832,1.8907,1.8405,1.8427,1.8942,1.9976,2.0064,2.0585,2.1673,2.1783,2.151,2.0924,2.064,2.0512,2.0563,1.9916,1.9654,0.0,0.0,0.0,0.0,0.0,0.0,2.2362,2.2321,2.2509,0.0,2.1729,2.1381,2.1636,2.1094,2.0429,1.9816,1.969,1.969,1.969,1.969,1.969,1.969,1.969,1.969,1.969,1.969,1.969,1.969,1.969,1.969,1.969,1.969,1.969,1.969,1.969,1.9442,1.8893,1.8893,1.8626,1.8092,1.8092,1.8092,1.8092,1.8092,1.8013,1.7894,1.7517,1.7229,1.7105,1.6667,1.6522,1.6565,1.7005,1.6879,1.6615,1.7523,1.7895,1.7974,1.8012,1.9074,2.0252,1.9313,2.0104,2.1332,2.0925,2.0753,2.0527,2.0089,1.9913,1.9811,1.9961,1.9911,1.9861,1.9961,2.0384,2.0833,2.0833,2.0833,2.078,2.0673,1.9854,1.9278,1.9584,1.9282,1.9106,1.9434,1.9133,1.8857,1.8857,1.8857,1.8857,1.8857,1.9334,1.961,1.951,1.9585,1.961,1.9484,1.9986,2.0355,2.0646,2.1097,2.1444,2.1675,2.223,2.2438,2.232,2.0259,1.9486,1.9854,1.9295,1.9295,0.0,0.0,0.0,2.4505,0.0,0.0,0.0,0.0,2.243,2.284,2.1941,2.1301,2.1973,2.1046,2.0079,1.975,1.969,1.969,1.969,1.969,1.9809,2.0168,1.9899,1.969,1.969,1.969,1.969,1.969,1.969,1.969,1.969,1.969,1.969,1.969,1.969,1.9442,1.8893,1.8893,1.8626,1.8092,1.8092,1.7933,1.7693,1.7693,1.7558,1.7312,1.7021,1.6921,1.6879,1.6607,1.6697,1.6992,1.7229,1.7186,1.7068,1.7868,1.8209,1.8287,1.85,1.943,2.0402,2.0051,2.0726,2.1568,2.0993,2.0547,2.0245,1.9888,1.9811,1.9914,2.0194,2.0295,2.0295,2.0295,2.0547,2.0696,2.0346,2.0295,2.0295,2.0295,1.9808,1.9479,1.9762,1.9585,1.951,1.9761,1.9585,1.9409,1.9409,1.9409,1.9409,1.9409,1.9635,1.9811,1.9811,1.9811,1.9811,1.9811,2.0093,2.0446,2.0795,2.1064,2.1547,2.2207,2.2558,2.2694,2.2694,2.0789,2.0345,2.1164,2.0558,2.0448,0.0,0.0,0.0,0.0,0.0,2.3558,0.0,0.0,0.0,0.0,0.0,0.0,0.0,0.0,0.0,0.0,0.0,0.0,0.0,1.9779,0.0,2.0438,2.0019,1.975,1.9869,1.9796,1.9819,2.0079,1.9737,1.9677,1.9869,1.9677,1.9551,1.9551,1.9442,1.9155,1.8741,1.8741,1.8482,1.7933,1.7933,1.7693,1.7312,1.7312,1.7105,1.6795,1.671,1.6701,1.6802,1.6716,1.7024,1.7526,1.7561,1.7541,1.7647,1.8295,1.8545,1.8621,1.9032,1.9675,2.0353,2.0539,2.0917,2.1232,2.0746,2.0245,1.9811,1.9811,1.9811,1.9888,2.0446,2.0597,2.0597,2.0597,2.0597,2.0446,1.9888,1.9811,1.9811,1.9811,1.9811,1.9811,1.9811,1.9811,1.9811,1.9811,1.9811,1.9811,1.9811,1.9811,1.9811,1.9811,1.9811,1.9811,1.9811,1.9811,1.9862,1.9991,1.9991,2.0295,2.0944,2.0993,2.1403,2.2328,2.2466,2.2512,2.2512,2.1682,2.1683,2.2485,2.1873,2.1615,0.0,0.0,0.0,0.0,2.5346,0.0,0.0,0.0,0.0,0.0,0.0,0.0,0.0,0.0,0.0,0.0,0.0,0.0,2.0498,2.0079,1.972,1.9779,1.972,1.9929,2.0528,2.0138,2.0333,2.1386,1.9941,1.9485,2.052,1.9581,1.9006,1.9006,1.8521,1.8249,1.8171,1.8171,1.7894,1.7394,1.7394,1.7353,1.7312,1.7312,1.7558,1.7894,1.7435,1.7502,1.8,1.7498,1.7601,1.81,1.8137,1.8106,1.8226,1.9236,1.9703,1.9782,1.9712,2.0515,2.1343,2.027,1.994,1.9991,1.994,1.9862,1.9811,1.9811,1.9811,1.9811,1.9914,1.9888,1.9888,1.9888,1.9888,1.9914,1.9811,1.9811,1.9811,1.9811,1.9811,1.9811,1.9811,1.9811,1.9811,1.9811,1.9811,1.9811,1.9811,1.9811,1.9811,1.9811,1.9811,1.9811,1.9811,1.9811,2.0042,2.0646,2.0696,2.0966,2.1568,2.1615,2.1376,2.1042,2.152,2.1805,2.1805,2.2289,2.2275,2.1787,2.1236,2.1263,0.0,0.0,0.0,0.0,0.0,0.0,2.4059,0.0,2.2473,0.0,0.0,0.0,0.0,0.0,0.0,0.0,1.969,0.0,0.0,0.0,1.9376,0.0,0.0,0.0,2.0079,1.9982,2.0254,2.1057,2.0099,1.9835,2.0673,2.0211,1.9615,1.8927,1.8657,1.8411,1.8092,1.8092,1.7973,1.7733,1.7733,1.7598,1.7312,1.7312,1.7413,1.7669,1.748,1.7683,1.815,1.7945,1.8179,1.8656,1.8643,1.8646,1.8756,1.9508,1.9861,1.9887,1.9813,2.0144,2.0521,1.9991,1.9811,1.9811,1.9811,1.9811,1.9811,1.9811,1.9811,1.9811,1.9811,1.9811,1.9811,1.9811,1.9811,1.9886,2.0238,2.0313,2.0388,2.0715,2.079,2.079,2.079,2.0238,1.9811,1.9811,1.9811,1.9811,1.9811,1.9811,1.9811,1.9811,1.9811,1.9811,1.9811,1.9811,1.9888,2.0194,2.0194,2.0346,2.062,2.0966,2.121,2.1328,2.1974,2.2438,2.2801,2.3098,2.3113,2.2775,2.2553,2.2562,2.4574,0.0,0.0,0.0,0.0,0.0,0.0,0.0,0.0,0.0,0.0,0.0,0.0,0.0,0.0,0.0,0.0,1.9686,0.0,0.0,0.0,0.0,0.0,0.0,0.0,1.9505,1.9895,2.0981,2.0193,2.0136,2.1162,2.0922,2.0356,1.9489,1.8961,1.8535,1.8139,1.7814,1.7653,1.7653,1.7841,1.7716,1.7323,1.7479,1.7573,1.7601,1.7601,1.7928,1.843,1.843,1.8756,1.9233,1.9233,1.9233,1.9284,1.966,1.9811,1.9811,1.9811,1.9811,1.9811,1.9811,1.9911,2.0037,2.0037,2.0137,2.0238,2.0087,2.0037,2.0012,1.9836,1.9911,2.0037,2.0037,2.0162,2.0388,2.079,2.0945,2.1016,2.1418,2.1493,2.1493,2.1493,2.069,2.0037,2.0037,1.9911,1.9811,1.9811,1.9811,1.9811,1.9811,1.9811,1.9811,1.9811,1.9811,1.9914,2.0042,2.0396,2.0521,2.032,2.0966,2.1452,2.171,2.2207,2.262,2.3069,2.3275,2.3363,2.3363,2.3523,2.361,0.0,0.0,0.0,2.3969,0.0,0.0,0.0,0.0,2.3955,0.0,0.0,0.0,0.0,0.0,0.0,0.0,0.0,0.0,0.0,0.0,0.0,0.0,0.0,0.0,0.0,1.8669,1.933,0.0,2.0161,2.0157,2.2521,2.1545,2.0905,2.0835,1.9181,1.8329,1.8302,1.7136,1.6565,1.6565,1.7118,1.7395,1.742,1.7949,1.8154,1.8179,1.8179,1.8505,1.8958,1.8958,1.9309,1.9786,1.9786,1.9786,1.9786,1.9786,1.9811,1.9811,1.9811,1.9811,1.9811,1.9811,2.0188,2.0693,2.0693,2.1016,2.1317,2.0844,2.0693,2.0567,1.9936,2.0213,2.0693,2.0693,2.1041,2.1443,2.1468,2.1468,2.1468,2.1493,2.1493,2.1493,2.1493,2.1016,2.0693,2.0693,2.0162,1.9811,1.9811,1.9811,1.9811,1.9811,1.9811,1.9811,1.9811,1.9811,2.0093,2.0746,2.1927,2.23,2.1663,2.23,2.2346,2.171,2.171,2.1758,2.1758,2.2392,2.274,2.274,2.3319,2.361,0.0,0.0,2.4747,2.3819,0.0,0.0,0.0,0.0,0.0,0.0,0.0,0.0,0.0,0.0,0.0,0.0,0.0,0.0,0.0,0.0,0.0,0.0,0.0,0.0,0.0,0.0,0.0,2.0497,2.0042,2.0359,2.189,2.1609,2.0973,2.0215,1.9283,1.8584,1.8226,1.7819,1.7626,1.7652,1.7827,1.7928,1.7928,1.8129,1.8405,1.8756,1.8756,1.9058,1.9535,1.9535,1.9635,1.9811,1.9811,1.9811,1.9811,1.9811,1.9811,1.9811,1.9811,1.9811,1.9861,2.0263,2.0514,2.0794,2.1091,2.1343,2.1443,2.1267,2.1217,2.1167,2.0966,2.1066,2.1217,2.1217,2.1343,2.1594,2.1945,2.202,2.2146,2.2498,2.2573,2.2573,2.2573,2.2121,2.1619,2.1267,2.1041,2.0916,2.0916,2.0916,2.0916,2.0916,2.0916,2.0916,2.0916,2.0589,2.0318,2.0118,2.0521,2.067,2.0471,2.067,2.0868,2.1113,2.1113,2.15,2.2346,2.2603,2.292,2.3275,2.3493,2.361,2.367,2.4088,0.0,2.3759,2.361,0.0,2.331,0.0,0.0,0.0,0.0,0.0,0.0,0.0,0.0,0.0,0.0,0.0,0.0,1.7229,0.0,0.0,0.0,0.0,0.0,0.0,0.0,2.0806,2.0378,2.0775,0.0,2.2371,2.1875,2.1095,2.0116,1.9479,1.9121,1.85,1.8204,1.8204,1.8405,1.8505,1.8505,1.8681,1.8957,1.9309,1.9309,1.9484,1.9811,1.9811,1.9811,1.9811,1.9811,1.9936,2.0087,1.9886,1.9936,2.0137,2.0338,2.0388,2.0464,2.084,2.1091,2.1317,2.1669,2.192,2.202,2.1845,2.1769,2.1744,2.1543,2.1644,2.1769,2.1769,2.192,2.2171,2.2523,2.2598,2.2698,2.3015,2.3065,2.3065,2.3065,2.2849,2.2422,2.187,2.1619,2.1493,2.1493,2.1493,2.1493,2.1493,2.1493,2.1493,2.1493,2.1167,2.079,2.0439,2.0862,2.1146,2.1146,2.1629,2.1969,2.2166,2.2166,2.2433,2.3009,2.3009,2.3231,2.361,2.361,2.361]}]]